[[{"header":{"parameterUnit":"m.s-1","parameterCategory":1,"la1":31.0,"la2":29.5877,"lo1":-88.7671,"lo2":-86.6584,"dx":0.0162,"dy":0.0185,"nx":115,"ny":88,"refTime":"2022-11-16T06:00:00:Z","depth":0,"parameterNumber":2,"parameterNumberName":"U-component_of_WINDS"},"data":[0.0,0.0,0.0,0.0,0.0,0.0,0.0,0.0,0.0,0.0,0.0,0.0,0.0,0.0,0.0,0.0,0.0,0.0,0.0,0.0,0.0,0.0,0.0,0.0,0.0,0.0,0.0,0.0,0.0,0.0,0.0,0.0,0.0,0.0,0.0,0.0,0.0,0.0,0.0,0.0,0.0,0.0,0.0,0.0,0.0,0.0,0.0,0.0,0.0,0.0,0.0,0.0,0.0,0.0,0.0,0.0,0.0,0.0,0.0,0.0,0.0,0.0,0.0,0.0,0.0,0.0,0.0,0.0,0.0,0.0,0.0,0.0,0.0,0.0,0.0,0.0,0.0,0.0,0.0,0.0,0.0,0.0,0.0,0.0,0.0,0.0,0.0,0.0,0.0,0.0,0.0,0.0,0.0,0.0,0.0,0.0,0.0,0.0,0.0,0.0,0.0,0.0,0.0,0.0,0.0,0.0,0.0,0.0,0.0,0.0,0.0,0.0,0.0,0.0,0.0,0.0,0.0,0.0,0.0,0.0,0.0,0.0,0.0,0.0,0.0,0.0,0.0,0.0,0.0,0.0,0.0,0.0,0.0,0.0,0.0,0.0,0.0,0.0,0.0,0.0,0.0,0.0,0.0,0.0,0.0,0.0,0.0,0.0,0.0,0.0,0.0,0.0,0.0,0.0,0.0,0.0,0.0,0.0,0.0,0.0,0.0,0.0,0.0,0.0,0.0,0.0,0.0,0.0,0.0,0.0,0.0,0.0,0.0,0.0,0.0,0.0,0.0,0.0,0.0,0.0,0.0,0.0,0.0,0.0,0.0,0.0,0.0,0.0,0.0,0.0,0.0,0.0,0.0,0.0,0.0,0.0,0.0,0.0,0.0,0.0,0.0,0.0,0.0,0.0,0.0,0.0,0.0,0.0,0.0,0.0,0.0,0.0,0.0,0.0,0.0,0.0,0.0,0.0,0.0,0.0,0.0,0.0,0.0,0.0,0.0,0.0,0.0,0.0,0.0,0.0,0.0,0.0,0.0,0.0,0.0,0.0,0.0,0.0,0.0,0.0,0.0,0.0,0.0,0.0,0.0,0.0,0.0,0.0,0.0,0.0,0.0,0.0,0.0,0.0,0.0,0.0,0.0,0.0,0.0,0.0,0.0,0.0,0.0,0.0,0.0,0.0,0.0,0.0,0.0,0.0,0.0,0.0,0.0,0.0,0.0,0.0,0.0,0.0,0.0,0.0,0.0,0.0,0.0,0.0,0.0,0.0,0.0,0.0,0.0,0.0,0.0,0.0,0.0,0.0,0.0,0.0,0.0,0.0,0.0,0.0,0.0,0.0,0.0,0.0,0.0,0.0,0.0,0.0,0.0,0.0,0.0,0.0,0.0,0.0,0.0,0.0,0.0,0.0,0.0,0.0,0.0,0.0,0.0,0.0,0.0,0.0,0.0,0.0,0.0,0.0,0.0,0.0,0.0,0.0,0.0,0.0,0.0,0.0,0.0,0.0,0.0,0.0,0.0,0.0,0.0,0.0,0.0,0.0,0.0,0.0,0.0,0.0,0.0,0.0,0.0,0.0,0.0,0.0,0.0,0.0,0.0,0.0,0.0,0.0,0.0,0.0,0.0,0.0,0.0,0.0,0.0,0.0,0.0,0.0,0.0,0.0,0.0,0.0,0.0,0.0,0.0,0.0,0.0,0.0,0.0,0.0,0.0,0.0,0.0,0.0,0.0,0.0,0.0,0.0,0.0,0.0,0.0,0.0,0.0,0.0,0.0,0.0,0.0,0.0,0.0,0.0,0.0,0.0,0.0,0.0,0.0,0.0,0.0,0.0,0.0,0.0,0.0,0.0,0.0,0.0,0.0,0.0,0.0,0.0,0.0,0.0,0.0,0.0,0.0,0.0,0.0,0.0,0.0,0.0,0.0,0.0,0.0,0.0,0.0,0.0,0.0,0.0,0.0,0.0,0.0,0.0,0.0,0.0,0.0,0.0,0.0,0.0,0.0,0.0,0.0,0.0,0.0,0.0,0.0,0.0,0.0,0.0,0.0,0.0,0.0,0.0,0.0,0.0,0.0,0.0,0.0,0.0,0.0,0.0,0.0,0.0,0.0,0.0,0.0,0.0,0.0,0.0,0.0,0.0,0.0,0.0,0.0,0.0,0.0,0.0,0.0,0.0,0.0,0.0,0.0,0.0,0.0,0.0,0.0,0.0,0.0,0.0,0.0,0.0,0.0,0.0,0.0,0.0,0.0,0.0,0.0,0.0,0.0,0.0,0.0,0.0,0.0,0.0,0.0,0.0,0.0,0.0,0.0,0.0,0.0,0.0,0.0,0.0,0.0,0.0,0.0,0.0,0.0,0.0,0.0,0.0,0.0,0.0,0.0,0.0,0.0,0.0,0.0,0.0,0.0,0.0,0.0,0.0,0.0,0.0,0.0,0.0,0.0,0.0,0.0,0.0,0.0,0.0,0.0,0.0,0.0,0.0,0.0,0.0,0.0,0.0,0.0,0.0,0.0,0.0,0.0,0.0,0.0,0.0,0.0,0.0,0.0,0.0,0.0,0.0,0.0,0.0,0.0,0.0,0.0,0.0,0.0,0.0,0.0,0.0,0.0,0.0,0.0,0.0,0.0,0.0,0.0,0.0,0.0,0.0,0.0,0.0,0.0,0.0,0.0,0.0,0.0,0.0,0.0,0.0,0.0,0.0,0.0,0.0,0.0,0.0,0.0,0.0,0.0,0.0,0.0,0.0,0.0,0.0,0.0,0.0,0.0,0.0,0.0,0.0,0.0,0.0,0.0,0.0,0.0,0.0,0.0,0.0,0.0,0.0,0.0,0.0,0.0,0.0,0.0,0.0,0.0,0.0,0.0,0.0,0.0,0.0,0.0,0.0,0.0,0.0,0.0,0.0,0.0,0.0,0.0,0.0,0.0,0.0,0.0,0.0,0.0,0.0,0.0,0.0,0.0,0.0,0.0,0.0,0.0,0.0,0.0,0.0,0.0,0.0,0.0,0.0,0.0,0.0,0.0,0.0,0.0,0.0,0.0,0.0,0.0,0.0,0.0,0.0,0.0,0.0,0.0,0.0,0.0,0.0,0.0,0.0,0.0,0.0,0.0,0.0,0.0,0.0,0.0,0.0,0.0,0.0,0.0,0.0,0.0,0.0,0.0,0.0,0.0,0.0,0.0,0.0,0.0,0.0,0.0,0.0,0.0,0.0,0.0,0.0,0.0,0.0,0.0,0.0,0.0,0.0,0.0,0.0,0.0,0.0,0.0,0.0,0.0,0.0,0.0,0.0,0.0,0.0,0.0,0.0,0.0,0.0,0.0,0.0,0.0,0.0,0.0,0.0,0.0,0.0,0.0,0.0,0.0,0.0,0.0,0.0,0.0,0.0,0.0,0.0,0.0,0.0,0.0,0.0,0.0,0.0,0.0,0.0,0.0,0.0,0.0,0.0,0.0,0.0,0.0,0.0,0.0,0.0,0.0,0.0,0.0,0.0,0.0,0.0,0.0,0.0,0.0,0.0,0.0,0.0,0.0,0.0,0.0,0.0,0.0,0.0,0.0,0.0,0.0,0.0,0.0,0.0,0.0,0.0,0.0,0.0,0.0,0.0,0.0,0.0,0.0,0.0,0.0,0.0,0.0,0.0,0.0,0.0,0.0,0.0,0.0,0.0,0.0,0.0,0.0,0.0,0.0,0.0,0.0,0.0,0.0,0.0,0.0,0.0,0.0,0.0,0.0,0.0,0.0,0.0,0.0,0.0,0.0,0.0,0.0,0.0,0.0,0.0,0.0,0.0,0.0,0.0,0.0,0.0,0.0,0.0,0.0,0.0,0.0,0.0,0.0,0.0,0.0,0.0,0.0,0.0,0.0,0.0,0.0,0.0,0.0,0.0,0.0,0.0,0.0,0.0,0.0,0.0,0.0,0.0,0.0,0.0,0.0,0.0,0.0,0.0,0.0,0.0,0.0,0.0,0.0,0.0,0.0,0.0,0.0,0.0,0.0,0.0,0.0,0.0,0.0,0.0,0.0,0.0,0.0,0.0,0.0,0.0,0.0,0.0,0.0,0.0,0.0,0.0,0.0,0.0,0.0,0.0,0.0,0.0,0.0,0.0,0.0,0.0,0.0,0.0,0.0,0.0,0.0,0.0,0.0,0.0,0.0,0.0,0.0,0.0,0.0,0.0,0.0,0.0,0.0,0.0,0.0,0.0,0.0,0.0,0.0,0.0,0.0,0.0,0.0,0.0,3.5137,0.0,0.0,0.0,3.2322,0.0,0.0,0.0,0.0,0.0,0.0,0.0,0.0,0.0,0.0,0.0,0.0,0.0,0.0,0.0,0.0,0.0,0.0,0.0,0.0,0.0,0.0,0.0,0.0,0.0,0.0,0.0,0.0,0.0,0.0,0.0,0.0,0.0,0.0,0.0,0.0,0.0,0.0,0.0,0.0,0.0,0.0,0.0,0.0,0.0,0.0,0.0,0.0,0.0,0.0,0.0,0.0,0.0,0.0,0.0,0.0,0.0,0.0,0.0,0.0,0.0,0.0,0.0,0.0,0.0,0.0,0.0,0.0,0.0,0.0,0.0,0.0,0.0,0.0,0.0,0.0,0.0,0.0,0.0,0.0,0.0,0.0,0.0,0.0,0.0,0.0,0.0,0.0,0.0,0.0,0.0,0.0,0.0,0.0,0.0,0.0,0.0,0.0,0.0,0.0,0.0,0.0,0.0,0.0,0.0,0.0,0.0,0.0,0.0,0.0,3.5436,3.5103,3.4365,3.366,3.2921,0.0,0.0,0.0,0.0,0.0,0.0,0.0,0.0,0.0,0.0,0.0,0.0,0.0,0.0,0.0,0.0,0.0,0.0,0.0,0.0,0.0,0.0,0.0,0.0,0.0,0.0,0.0,0.0,0.0,0.0,0.0,0.0,0.0,0.0,0.0,0.0,0.0,0.0,0.0,0.0,0.0,0.0,0.0,0.0,0.0,0.0,0.0,0.0,0.0,0.0,0.0,0.0,0.0,0.0,0.0,0.0,0.0,0.0,0.0,0.0,0.0,0.0,0.0,0.0,0.0,0.0,0.0,0.0,0.0,0.0,0.0,0.0,0.0,0.0,0.0,0.0,0.0,0.0,0.0,0.0,0.0,0.0,0.0,0.0,0.0,0.0,0.0,0.0,0.0,0.0,0.0,0.0,0.0,0.0,0.0,0.0,0.0,0.0,0.0,0.0,0.0,0.0,0.0,0.0,0.0,0.0,0.0,0.0,0.0,0.0,0.0,0.0,3.4872,3.4066,3.3152,0.0,0.0,0.0,0.0,0.0,0.0,0.0,0.0,0.0,0.0,0.0,0.0,0.0,0.0,0.0,0.0,0.0,0.0,0.0,0.0,0.0,0.0,0.0,0.0,0.0,0.0,0.0,0.0,0.0,0.0,0.0,0.0,0.0,0.0,0.0,0.0,0.0,0.0,0.0,0.0,0.0,0.0,0.0,0.0,0.0,0.0,0.0,0.0,0.0,0.0,0.0,0.0,0.0,0.0,0.0,0.0,0.0,0.0,0.0,0.0,0.0,0.0,0.0,0.0,0.0,0.0,0.0,0.0,0.0,0.0,0.0,0.0,0.0,0.0,0.0,0.0,0.0,0.0,0.0,0.0,0.0,0.0,0.0,0.0,0.0,0.0,0.0,0.0,0.0,0.0,0.0,0.0,0.0,0.0,0.0,0.0,0.0,0.0,0.0,0.0,0.0,0.0,0.0,0.0,0.0,0.0,0.0,0.0,0.0,0.0,3.5605,3.5605,3.4872,0.0,3.2457,0.0,0.0,0.0,0.0,0.0,0.0,0.0,0.0,0.0,0.0,0.0,0.0,0.0,0.0,0.0,0.0,0.0,0.0,0.0,0.0,0.0,0.0,0.0,0.0,0.0,0.0,0.0,0.0,0.0,0.0,0.0,0.0,0.0,0.0,0.0,0.0,0.0,0.0,0.0,0.0,0.0,0.0,0.0,0.0,0.0,0.0,0.0,0.0,0.0,0.0,0.0,0.0,0.0,0.0,0.0,0.0,0.0,0.0,0.0,0.0,0.0,0.0,0.0,0.0,0.0,0.0,0.0,0.0,0.0,0.0,0.0,0.0,0.0,0.0,0.0,0.0,0.0,0.0,0.0,0.0,0.0,0.0,0.0,0.0,0.0,0.0,0.0,0.0,0.0,0.0,0.0,0.0,0.0,0.0,0.0,0.0,0.0,0.0,0.0,0.0,0.0,0.0,0.0,0.0,0.0,0.0,0.0,0.0,0.0,0.0,3.5605,3.5605,3.4466,3.3564,0.0,0.0,0.0,0.0,0.0,0.0,0.0,0.0,0.0,0.0,0.0,0.0,0.0,0.0,0.0,0.0,0.0,0.0,0.0,0.0,0.0,0.0,0.0,0.0,0.0,0.0,0.0,0.0,0.0,0.0,0.0,0.0,0.0,0.0,0.0,0.0,0.0,0.0,0.0,0.0,0.0,0.0,0.0,0.0,0.0,0.0,0.0,0.0,0.0,0.0,0.0,0.0,0.0,0.0,0.0,0.0,0.0,0.0,0.0,0.0,0.0,0.0,0.0,0.0,0.0,0.0,0.0,0.0,0.0,0.0,0.0,0.0,0.0,0.0,0.0,0.0,0.0,0.0,0.0,0.0,0.0,0.0,0.0,0.0,0.0,0.0,0.0,0.0,0.0,0.0,0.0,0.0,0.0,0.0,0.0,0.0,0.0,0.0,0.0,0.0,0.0,0.0,0.0,0.0,0.0,0.0,0.0,0.0,0.0,0.0,3.5605,3.5605,3.5538,3.4157,3.3384,3.3384,0.0,0.0,0.0,0.0,0.0,0.0,0.0,0.0,0.0,0.0,0.0,0.0,0.0,0.0,0.0,0.0,0.0,0.0,0.0,0.0,0.0,0.0,0.0,0.0,0.0,0.0,0.0,0.0,0.0,0.0,0.0,0.0,0.0,0.0,0.0,0.0,0.0,0.0,0.0,0.0,0.0,0.0,0.0,0.0,0.0,0.0,0.0,0.0,0.0,0.0,0.0,0.0,0.0,0.0,0.0,0.0,0.0,0.0,0.0,0.0,0.0,0.0,0.0,0.0,0.0,0.0,0.0,0.0,0.0,0.0,0.0,0.0,0.0,0.0,0.0,0.0,0.0,0.0,0.0,0.0,0.0,0.0,0.0,0.0,0.0,0.0,0.0,0.0,0.0,0.0,0.0,0.0,0.0,0.0,0.0,0.0,0.0,0.0,0.0,0.0,0.0,0.0,0.0,0.0,0.0,0.0,0.0,0.0,3.5605,3.5605,3.5605,3.5571,3.419,3.3384,0.0,0.0,0.0,0.0,0.0,0.0,0.0,0.0,0.0,0.0,0.0,0.0,0.0,0.0,0.0,0.0,0.0,0.0,0.0,0.0,0.0,0.0,0.0,0.0,0.0,0.0,0.0,0.0,0.0,0.0,0.0,0.0,0.0,0.0,0.0,0.0,0.0,0.0,0.0,0.0,0.0,0.0,0.0,0.0,0.0,0.0,0.0,0.0,0.0,0.0,0.0,0.0,0.0,0.0,0.0,0.0,0.0,0.0,0.0,0.0,0.0,0.0,0.0,0.0,0.0,0.0,0.0,0.0,0.0,0.0,0.0,0.0,0.0,0.0,0.0,0.0,0.0,0.0,0.0,0.0,0.0,0.0,0.0,0.0,0.0,0.0,0.0,0.0,0.0,0.0,0.0,0.0,0.0,0.0,0.0,0.0,0.0,0.0,0.0,0.0,0.0,0.0,0.0,0.0,0.0,0.0,0.0,0.0,0.0,3.56,3.5605,3.5605,3.5571,3.463,3.3902,0.0,0.0,0.0,0.0,0.0,0.0,0.0,0.0,0.0,0.0,0.0,0.0,0.0,0.0,0.0,0.0,0.0,0.0,0.0,0.0,0.0,0.0,0.0,0.0,0.0,0.0,0.0,0.0,0.0,0.0,0.0,0.0,0.0,0.0,0.0,0.0,0.0,0.0,0.0,0.0,0.0,0.0,0.0,0.0,0.0,0.0,0.0,0.0,0.0,0.0,0.0,0.0,0.0,0.0,0.0,0.0,0.0,0.0,0.0,0.0,0.0,0.0,0.0,0.0,0.0,0.0,0.0,0.0,0.0,0.0,0.0,0.0,0.0,0.0,0.0,0.0,0.0,0.0,0.0,0.0,0.0,0.0,0.0,0.0,0.0,0.0,0.0,0.0,0.0,0.0,0.0,0.0,0.0,0.0,0.0,0.0,0.0,0.0,0.0,0.0,0.0,0.0,0.0,0.0,0.0,0.0,0.0,0.0,0.0,3.6246,3.601,3.5932,3.5949,3.5019,3.4128,0.0,0.0,0.0,0.0,0.0,0.0,0.0,0.0,0.0,0.0,0.0,0.0,0.0,0.0,0.0,0.0,0.0,0.0,0.0,0.0,0.0,0.0,0.0,0.0,0.0,0.0,0.0,0.0,0.0,0.0,0.0,0.0,0.0,0.0,0.0,0.0,0.0,0.0,0.0,0.0,0.0,0.0,0.0,0.0,0.0,0.0,0.0,0.0,0.0,0.0,0.0,0.0,0.0,0.0,0.0,0.0,0.0,0.0,0.0,0.0,0.0,0.0,0.0,0.0,0.0,0.0,0.0,0.0,0.0,0.0,0.0,0.0,0.0,0.0,0.0,0.0,0.0,0.0,0.0,0.0,0.0,0.0,0.0,0.0,0.0,0.0,0.0,0.0,0.0,0.0,0.0,0.0,0.0,0.0,0.0,0.0,0.0,0.0,0.0,0.0,0.0,0.0,0.0,0.0,0.0,0.0,0.0,0.0,3.6846,3.7589,3.6892,3.6615,3.6772,3.5346,3.4196,0.0,0.0,0.0,0.0,0.0,0.0,0.0,0.0,0.0,0.0,0.0,0.0,0.0,0.0,0.0,0.0,0.0,0.0,0.0,0.0,0.0,0.0,0.0,0.0,0.0,0.0,0.0,0.0,0.0,0.0,0.0,0.0,0.0,0.0,0.0,0.0,0.0,0.0,0.0,0.0,0.0,0.0,0.0,0.0,0.0,0.0,0.0,0.0,0.0,0.0,0.0,0.0,0.0,0.0,0.0,0.0,0.0,0.0,0.0,0.0,0.0,0.0,0.0,0.0,0.0,0.0,0.0,0.0,0.0,0.0,0.0,0.0,0.0,0.0,0.0,0.0,0.0,0.0,0.0,0.0,0.0,0.0,0.0,0.0,0.0,0.0,0.0,0.0,0.0,0.0,0.0,0.0,0.0,0.0,0.0,0.0,0.0,0.0,0.0,0.0,0.0,0.0,0.0,0.0,0.0,0.0,0.0,0.0,0.0,3.7565,3.7337,3.7215,3.7236,3.6335,3.5456,0.0,0.0,0.0,0.0,0.0,0.0,0.0,0.0,0.0,0.0,0.0,0.0,0.0,0.0,0.0,0.0,0.0,0.0,0.0,0.0,0.0,0.0,0.0,0.0,0.0,0.0,0.0,0.0,0.0,0.0,0.0,0.0,0.0,0.0,0.0,0.0,0.0,0.0,0.0,0.0,0.0,0.0,0.0,0.0,0.0,0.0,0.0,0.0,0.0,0.0,0.0,0.0,0.0,0.0,0.0,0.0,0.0,0.0,0.0,0.0,0.0,0.0,0.0,0.0,0.0,0.0,0.0,0.0,0.0,0.0,0.0,0.0,0.0,0.0,0.0,0.0,0.0,0.0,0.0,0.0,0.0,0.0,0.0,0.0,0.0,0.0,0.0,0.0,0.0,0.0,0.0,0.0,0.0,0.0,0.0,0.0,0.0,0.0,0.0,0.0,0.0,0.0,0.0,0.0,0.0,0.0,0.0,0.0,0.0,3.8322,3.8399,3.8484,3.8535,3.7632,3.6622,3.5536,0.0,0.0,0.0,0.0,0.0,0.0,0.0,0.0,0.0,0.0,0.0,0.0,0.0,0.0,0.0,0.0,0.0,0.0,0.0,0.0,0.0,0.0,0.0,0.0,0.0,0.0,0.0,0.0,0.0,0.0,0.0,0.0,0.0,0.0,0.0,0.0,0.0,0.0,0.0,0.0,0.0,0.0,0.0,0.0,0.0,0.0,0.0,0.0,0.0,0.0,0.0,0.0,0.0,0.0,0.0,0.0,0.0,0.0,0.0,0.0,0.0,0.0,0.0,0.0,0.0,0.0,0.0,0.0,0.0,0.0,0.0,0.0,0.0,0.0,0.0,0.0,0.0,0.0,0.0,0.0,0.0,0.0,0.0,0.0,0.0,0.0,0.0,0.0,0.0,0.0,0.0,0.0,0.0,0.0,0.0,0.0,0.0,0.0,0.0,0.0,0.0,0.0,0.0,0.0,0.0,0.0,0.0,0.0,3.9693,4.0023,4.0228,4.0238,3.8984,3.7661,0.0,0.0,0.0,0.0,0.0,0.0,0.0,0.0,0.0,0.0,0.0,0.0,0.0,0.0,0.0,0.0,0.0,0.0,0.0,0.0,0.0,0.0,0.0,0.0,0.0,0.0,0.0,0.0,0.0,0.0,0.0,0.0,0.0,0.0,0.0,0.0,0.0,0.0,0.0,0.0,0.0,0.0,0.0,0.0,0.0,0.0,0.0,0.0,0.0,0.0,0.0,0.0,0.0,0.0,0.0,0.0,0.0,0.0,0.0,0.0,0.0,0.0,0.0,0.0,0.0,0.0,0.0,0.0,0.0,0.0,0.0,0.0,0.0,0.0,0.0,0.0,0.0,0.0,0.0,0.0,0.0,0.0,0.0,0.0,0.0,0.0,0.0,0.0,0.0,0.0,0.0,0.0,0.0,0.0,0.0,0.0,0.0,0.0,0.0,0.0,0.0,0.0,0.0,0.0,0.0,0.0,0.0,0.0,0.0,4.0719,4.1263,4.1198,4.0383,3.9121,3.802,0.0,0.0,0.0,0.0,0.0,0.0,0.0,0.0,0.0,0.0,0.0,0.0,0.0,0.0,0.0,0.0,0.0,0.0,0.0,0.0,0.0,0.0,0.0,0.0,0.0,0.0,0.0,0.0,0.0,0.0,0.0,0.0,0.0,0.0,0.0,0.0,0.0,0.0,0.0,0.0,0.0,0.0,0.0,0.0,0.0,0.0,0.0,0.0,0.0,0.0,0.0,0.0,0.0,0.0,0.0,0.0,0.0,0.0,0.0,0.0,0.0,0.0,0.0,0.0,0.0,0.0,0.0,0.0,0.0,0.0,0.0,0.0,0.0,0.0,0.0,0.0,0.0,0.0,0.0,0.0,0.0,0.0,0.0,0.0,0.0,0.0,0.0,0.0,0.0,0.0,0.0,0.0,0.0,0.0,0.0,0.0,0.0,0.0,0.0,0.0,0.0,0.0,0.0,0.0,0.0,0.0,0.0,0.0,4.0704,4.1173,4.2059,4.2085,4.1135,4.0169,3.921,0.0,0.0,0.0,0.0,0.0,0.0,0.0,0.0,0.0,0.0,0.0,0.0,0.0,0.0,0.0,0.0,0.0,0.0,0.0,0.0,0.0,0.0,0.0,0.0,0.0,0.0,0.0,0.0,0.0,0.0,0.0,0.0,0.0,0.0,0.0,0.0,0.0,0.0,0.0,0.0,0.0,0.0,0.0,0.0,0.0,0.0,0.0,0.0,0.0,0.0,0.0,0.0,0.0,0.0,0.0,0.0,0.0,0.0,0.0,0.0,0.0,0.0,0.0,0.0,0.0,0.0,0.0,0.0,0.0,0.0,0.0,0.0,0.0,0.0,0.0,0.0,0.0,0.0,0.0,0.0,0.0,0.0,0.0,0.0,0.0,0.0,0.0,0.0,0.0,0.0,0.0,0.0,0.0,0.0,0.0,0.0,0.0,0.0,0.0,0.0,0.0,0.0,0.0,0.0,0.0,0.0,0.0,0.0,4.0833,4.1373,4.252,4.2793,4.2212,4.1627,4.0601,0.0,0.0,0.0,0.0,0.0,0.0,0.0,0.0,0.0,0.0,0.0,0.0,0.0,0.0,0.0,0.0,0.0,0.0,0.0,0.0,0.0,0.0,0.0,0.0,0.0,0.0,0.0,0.0,0.0,0.0,0.0,0.0,0.0,0.0,0.0,0.0,0.0,0.0,0.0,0.0,0.0,0.0,0.0,0.0,0.0,0.0,0.0,0.0,0.0,0.0,0.0,0.0,0.0,0.0,0.0,0.0,0.0,0.0,0.0,0.0,0.0,0.0,0.0,0.0,0.0,0.0,0.0,0.0,0.0,0.0,0.0,0.0,0.0,0.0,0.0,0.0,0.0,0.0,0.0,0.0,0.0,0.0,0.0,0.0,0.0,0.0,0.0,0.0,0.0,0.0,0.0,0.0,0.0,0.0,0.0,0.0,0.0,0.0,0.0,0.0,0.0,0.0,0.0,0.0,0.0,0.0,0.0,0.0,4.1373,4.1926,4.2686,4.3034,4.2887,4.1865,4.0386,0.0,0.0,0.0,0.0,0.0,0.0,0.0,0.0,0.0,0.0,0.0,0.0,0.0,0.0,0.0,0.0,0.0,0.0,0.0,0.0,0.0,0.0,0.0,0.0,0.0,0.0,0.0,0.0,0.0,0.0,0.0,0.0,0.0,0.0,0.0,0.0,0.0,0.0,0.0,0.0,0.0,0.0,0.0,0.0,0.0,0.0,0.0,0.0,3.2688,0.0,0.0,0.0,0.0,0.0,0.0,0.0,0.0,0.0,0.0,0.0,0.0,0.0,0.0,0.0,0.0,0.0,0.0,0.0,0.0,0.0,0.0,0.0,0.0,0.0,0.0,0.0,0.0,0.0,0.0,0.0,0.0,0.0,0.0,0.0,0.0,0.0,0.0,0.0,0.0,0.0,0.0,0.0,0.0,0.0,0.0,0.0,0.0,0.0,0.0,0.0,0.0,0.0,0.0,0.0,0.0,0.0,0.0,0.0,4.1949,4.2802,4.3376,4.3552,4.3312,4.2342,4.0916,0.0,0.0,0.0,0.0,0.0,0.0,0.0,0.0,0.0,0.0,0.0,0.0,0.0,0.0,0.0,0.0,0.0,0.0,0.0,0.0,0.0,0.0,0.0,0.0,0.0,0.0,0.0,0.0,0.0,0.0,0.0,0.0,0.0,0.0,0.0,0.0,0.0,0.0,0.0,0.0,0.0,0.0,0.0,0.0,0.0,0.0,0.0,0.0,0.0,0.0,0.0,0.0,0.0,0.0,0.0,0.0,0.0,0.0,0.0,0.0,0.0,0.0,0.0,0.0,0.0,0.0,0.0,0.0,0.0,0.0,0.0,0.0,0.0,0.0,0.0,0.0,0.0,0.0,0.0,0.0,0.0,0.0,0.0,0.0,0.0,0.0,0.0,0.0,0.0,0.0,0.0,0.0,0.0,0.0,0.0,0.0,0.0,0.0,0.0,0.0,0.0,0.0,0.0,0.0,0.0,0.0,0.0,4.1534,4.2689,4.3682,4.4159,4.4201,4.382,4.2894,4.1703,4.0225,0.0,0.0,0.0,0.0,0.0,0.0,0.0,0.0,0.0,0.0,0.0,0.0,0.0,0.0,0.0,0.0,0.0,0.0,0.0,0.0,0.0,0.0,0.0,0.0,0.0,0.0,0.0,0.0,0.0,0.0,0.0,0.0,0.0,0.0,0.0,0.0,0.0,0.0,3.5255,3.5369,0.0,0.0,0.0,0.0,0.0,0.0,0.0,0.0,3.611,0.0,0.0,0.0,0.0,0.0,0.0,0.0,0.0,0.0,0.0,0.0,0.0,0.0,0.0,0.0,0.0,0.0,0.0,0.0,0.0,0.0,0.0,0.0,0.0,0.0,0.0,0.0,0.0,0.0,0.0,0.0,0.0,0.0,0.0,0.0,0.0,0.0,0.0,0.0,0.0,0.0,0.0,0.0,0.0,0.0,0.0,0.0,0.0,0.0,0.0,0.0,0.0,0.0,0.0,0.0,0.0,4.0736,4.2781,4.3987,4.4203,4.464,4.4835,4.4743,4.3558,4.2303,4.0988,0.0,0.0,0.0,0.0,0.0,0.0,0.0,0.0,0.0,0.0,0.0,0.0,0.0,0.0,0.0,0.0,0.0,0.0,0.0,0.0,0.0,0.0,0.0,0.0,0.0,0.0,0.0,0.0,0.0,0.0,0.0,0.0,0.0,0.0,0.0,0.0,0.0,0.0,0.0,3.6008,3.6535,0.0,0.0,0.0,0.0,0.0,0.0,0.0,0.0,3.7421,0.0,0.0,0.0,0.0,0.0,0.0,0.0,0.0,0.0,0.0,0.0,0.0,0.0,0.0,0.0,0.0,0.0,0.0,0.0,0.0,0.0,0.0,0.0,0.0,0.0,0.0,0.0,0.0,0.0,0.0,0.0,0.0,0.0,0.0,0.0,0.0,0.0,0.0,0.0,0.0,0.0,0.0,0.0,0.0,0.0,0.0,0.0,0.0,0.0,0.0,0.0,0.0,0.0,0.0,0.0,4.1705,4.3422,4.4586,4.5089,4.5243,4.5364,4.5445,4.4052,4.294,0.0,0.0,0.0,0.0,0.0,0.0,0.0,0.0,0.0,0.0,0.0,0.0,0.0,0.0,0.0,0.0,0.0,0.0,0.0,0.0,0.0,0.0,0.0,0.0,0.0,0.0,0.0,0.0,0.0,0.0,0.0,0.0,0.0,0.0,0.0,0.0,0.0,0.0,0.0,0.0,3.7214,3.7735,3.7811,0.0,0.0,0.0,0.0,0.0,0.0,3.8533,3.808,0.0,0.0,0.0,0.0,0.0,0.0,0.0,0.0,0.0,0.0,0.0,0.0,0.0,0.0,0.0,0.0,0.0,0.0,0.0,0.0,0.0,0.0,0.0,0.0,0.0,0.0,0.0,0.0,0.0,0.0,0.0,0.0,0.0,0.0,0.0,0.0,0.0,0.0,0.0,0.0,0.0,0.0,0.0,0.0,0.0,0.0,0.0,0.0,0.0,0.0,0.0,0.0,0.0,0.0,0.0,4.2778,4.422,4.5383,4.6202,4.6047,4.6026,4.616,4.4599,4.3474,0.0,0.0,0.0,0.0,0.0,0.0,0.0,0.0,0.0,0.0,0.0,0.0,0.0,0.0,0.0,0.0,0.0,0.0,0.0,0.0,0.0,0.0,0.0,0.0,0.0,0.0,0.0,0.0,0.0,0.0,0.0,0.0,0.0,0.0,0.0,0.0,0.0,0.0,0.0,0.0,0.0,3.8756,3.9235,3.9278,0.0,0.0,0.0,0.0,3.9695,3.9368,0.0,0.0,0.0,0.0,0.0,0.0,0.0,0.0,0.0,0.0,0.0,0.0,0.0,0.0,0.0,0.0,0.0,0.0,0.0,0.0,0.0,0.0,0.0,0.0,0.0,0.0,0.0,0.0,0.0,0.0,0.0,0.0,0.0,0.0,0.0,0.0,0.0,0.0,0.0,0.0,0.0,0.0,0.0,0.0,0.0,0.0,0.0,0.0,0.0,0.0,0.0,0.0,0.0,0.0,0.0,0.0,4.3783,4.606,4.7304,4.7372,4.7209,4.7102,4.7104,4.5256,4.3708,0.0,0.0,0.0,0.0,0.0,0.0,0.0,0.0,0.0,0.0,0.0,0.0,0.0,0.0,0.0,0.0,0.0,0.0,0.0,0.0,0.0,0.0,0.0,0.0,0.0,0.0,0.0,0.0,0.0,0.0,0.0,0.0,0.0,0.0,0.0,0.0,0.0,0.0,0.0,0.0,0.0,3.9289,4.0202,4.0181,4.0397,0.0,0.0,4.0885,4.1338,4.0909,0.0,0.0,0.0,0.0,0.0,0.0,0.0,0.0,0.0,0.0,0.0,0.0,0.0,0.0,0.0,0.0,0.0,0.0,0.0,0.0,0.0,0.0,0.0,0.0,0.0,0.0,0.0,0.0,0.0,0.0,0.0,0.0,0.0,0.0,0.0,0.0,0.0,0.0,0.0,0.0,0.0,0.0,0.0,0.0,0.0,0.0,0.0,0.0,0.0,0.0,0.0,0.0,0.0,0.0,0.0,4.2957,4.4861,4.667,4.7929,4.8541,4.8483,4.8248,4.7889,4.6651,4.5235,0.0,0.0,0.0,0.0,0.0,0.0,0.0,0.0,0.0,0.0,0.0,0.0,0.0,0.0,0.0,0.0,0.0,0.0,0.0,0.0,0.0,0.0,0.0,0.0,0.0,0.0,0.0,0.0,0.0,0.0,0.0,0.0,0.0,0.0,0.0,0.0,0.0,0.0,0.0,0.0,0.0,0.0,4.08,4.1028,0.0,0.0,0.0,4.1551,4.2005,0.0,0.0,0.0,0.0,0.0,0.0,0.0,0.0,0.0,0.0,0.0,0.0,0.0,0.0,0.0,0.0,0.0,0.0,0.0,0.0,0.0,0.0,0.0,0.0,0.0,0.0,0.0,0.0,0.0,0.0,0.0,0.0,0.0,0.0,0.0,0.0,0.0,0.0,0.0,0.0,0.0,0.0,0.0,0.0,0.0,0.0,0.0,0.0,0.0,0.0,0.0,0.0,0.0,0.0,0.0,0.0,0.0,4.5992,4.7366,4.8503,4.9486,4.9505,4.9265,4.8775,4.7818,0.0,0.0,0.0,0.0,0.0,0.0,0.0,0.0,0.0,0.0,0.0,0.0,0.0,0.0,0.0,0.0,0.0,0.0,0.0,0.0,0.0,0.0,0.0,0.0,0.0,0.0,0.0,3.3571,0.0,0.0,0.0,0.0,0.0,0.0,0.0,0.0,0.0,0.0,0.0,0.0,0.0,0.0,4.0747,4.1449,4.1853,4.2079,0.0,0.0,4.2206,4.256,4.2092,4.1493,0.0,0.0,0.0,0.0,0.0,0.0,0.0,0.0,0.0,0.0,0.0,0.0,0.0,0.0,0.0,0.0,0.0,0.0,0.0,0.0,0.0,0.0,0.0,0.0,0.0,0.0,0.0,0.0,0.0,0.0,0.0,0.0,0.0,0.0,0.0,0.0,0.0,0.0,0.0,0.0,0.0,0.0,0.0,0.0,0.0,0.0,0.0,0.0,0.0,0.0,0.0,0.0,0.0,0.0,4.4709,4.7121,4.8509,4.9498,5.0117,5.0147,5.0117,5.0058,4.8274,4.6681,0.0,0.0,0.0,0.0,0.0,0.0,0.0,0.0,0.0,0.0,0.0,0.0,0.0,0.0,0.0,0.0,0.0,0.0,0.0,0.0,0.0,0.0,0.0,0.0,0.0,0.0,0.0,0.0,0.0,0.0,0.0,0.0,0.0,0.0,0.0,0.0,0.0,0.0,0.0,0.0,0.0,4.0978,4.2304,4.255,4.2705,0.0,4.319,4.319,4.324,4.2741,4.2321,4.2281,0.0,0.0,0.0,0.0,0.0,0.0,0.0,0.0,0.0,0.0,0.0,0.0,0.0,0.0,0.0,0.0,0.0,0.0,0.0,0.0,0.0,0.0,0.0,0.0,0.0,0.0,0.0,0.0,0.0,0.0,0.0,0.0,0.0,0.0,0.0,0.0,0.0,0.0,0.0,0.0,0.0,0.0,0.0,0.0,0.0,0.0,0.0,0.0,0.0,0.0,0.0,0.0,0.0,4.5747,4.7889,4.9183,5.0159,5.0787,5.0817,5.0607,5.0196,4.946,4.8495,0.0,0.0,0.0,0.0,0.0,0.0,0.0,0.0,0.0,0.0,0.0,0.0,0.0,0.0,0.0,0.0,0.0,0.0,0.0,0.0,0.0,0.0,0.0,0.0,0.0,0.0,0.0,0.0,3.7888,3.8346,3.8969,0.0,0.0,0.0,0.0,0.0,0.0,0.0,0.0,0.0,0.0,4.277,4.3716,4.4068,0.0,0.0,4.4516,4.4516,4.4556,4.4357,4.4028,4.3639,4.2571,0.0,0.0,0.0,0.0,0.0,0.0,0.0,0.0,0.0,0.0,0.0,0.0,0.0,0.0,0.0,0.0,0.0,0.0,0.0,0.0,0.0,0.0,0.0,0.0,0.0,0.0,0.0,0.0,0.0,0.0,0.0,0.0,0.0,0.0,0.0,0.0,0.0,0.0,0.0,0.0,0.0,0.0,0.0,0.0,0.0,0.0,0.0,0.0,0.0,0.0,0.0,0.0,4.6392,4.8588,4.9841,5.0817,5.1475,5.1708,5.1487,5.0817,5.0596,4.9901,0.0,0.0,0.0,0.0,0.0,0.0,0.0,0.0,0.0,0.0,0.0,0.0,0.0,0.0,0.0,0.0,0.0,0.0,0.0,0.0,0.0,0.0,0.0,0.0,0.0,0.0,0.0,0.0,3.9375,3.9496,3.9103,0.0,0.0,0.0,0.0,0.0,0.0,0.0,0.0,0.0,0.0,4.4118,4.4749,4.5087,4.5274,4.5274,4.5274,4.5274,4.5274,4.5274,4.5155,4.4666,0.0,0.0,0.0,0.0,0.0,0.0,0.0,0.0,0.0,0.0,0.0,0.0,0.0,0.0,0.0,0.0,0.0,0.0,0.0,0.0,0.0,0.0,0.0,0.0,0.0,0.0,0.0,3.8808,0.0,0.0,3.7926,0.0,0.0,0.0,0.0,0.0,0.0,0.0,0.0,0.0,0.0,0.0,0.0,0.0,0.0,0.0,0.0,0.0,0.0,0.0,0.0,0.0,0.0,4.6672,4.9258,5.0541,5.1517,5.2157,5.2827,5.2797,5.2157,5.1546,5.0601,4.9348,0.0,0.0,0.0,0.0,0.0,0.0,0.0,0.0,0.0,0.0,0.0,0.0,0.0,0.0,0.0,0.0,0.0,0.0,0.0,0.0,0.0,0.0,0.0,0.0,0.0,0.0,4.1153,4.1323,4.0814,0.0,0.0,0.0,0.0,0.0,0.0,0.0,0.0,0.0,0.0,4.4569,4.4789,4.5275,4.5334,4.5424,4.5364,4.5374,4.5334,4.5394,4.5374,4.5315,0.0,0.0,0.0,0.0,0.0,0.0,0.0,0.0,0.0,0.0,0.0,0.0,0.0,0.0,0.0,0.0,0.0,0.0,0.0,0.0,0.0,0.0,0.0,0.0,0.0,0.0,0.0,4.1794,4.1362,0.0,0.0,0.0,0.0,0.0,0.0,0.0,0.0,0.0,0.0,0.0,4.569,4.5973,0.0,0.0,0.0,0.0,0.0,0.0,0.0,0.0,0.0,0.0,0.0,0.0,4.8356,5.0469,5.1427,5.2187,5.2857,5.3067,5.3097,5.2869,5.266,5.1917,5.0589,0.0,0.0,0.0,0.0,0.0,0.0,0.0,0.0,0.0,0.0,0.0,0.0,0.0,0.0,0.0,0.0,0.0,0.0,0.0,0.0,0.0,0.0,0.0,0.0,0.0,4.1265,0.0,0.0,0.0,0.0,0.0,0.0,0.0,0.0,0.0,0.0,0.0,4.4198,4.5547,4.6496,4.7265,4.7892,4.7959,4.7959,0.0,0.0,0.0,0.0,0.0,0.0,0.0,0.0,0.0,0.0,0.0,0.0,0.0,0.0,4.4766,4.298,4.2651,4.2661,4.2651,0.0,0.0,0.0,0.0,0.0,0.0,0.0,0.0,0.0,0.0,0.0,0.0,0.0,0.0,4.4323,0.0,4.3828,0.0,0.0,0.0,0.0,0.0,0.0,0.0,0.0,4.7135,4.7776,4.7806,4.8091,4.8038,0.0,4.7936,4.7287,0.0,0.0,0.0,0.0,0.0,0.0,0.0,0.0,4.9823,5.1487,5.2414,5.3114,5.3545,5.3785,5.3785,5.3545,5.3318,5.2576,5.1236,4.9972,4.8596,0.0,0.0,0.0,0.0,0.0,0.0,0.0,0.0,0.0,0.0,0.0,0.0,0.0,0.0,0.0,0.0,0.0,0.0,0.0,0.0,0.0,0.0,0.0,4.291,0.0,0.0,0.0,0.0,0.0,0.0,0.0,0.0,0.0,4.3838,4.4839,4.5999,4.72,4.8098,4.8798,4.9228,0.0,0.0,0.0,0.0,0.0,0.0,0.0,4.947,4.947,4.9241,4.9012,4.9012,4.8655,4.8376,4.8376,0.0,0.0,4.5163,4.4685,4.4685,4.4675,4.4875,4.5164,4.5593,4.6202,4.6822,0.0,0.0,0.0,0.0,0.0,0.0,0.0,0.0,4.6315,4.6518,0.0,4.6209,0.0,0.0,0.0,0.0,0.0,4.6639,0.0,0.0,4.9572,5.0234,5.0276,5.1006,5.0954,5.0111,5.062,5.0708,5.0204,4.7829,0.0,0.0,0.0,0.0,0.0,0.0,5.0925,5.2247,5.3521,5.4179,5.4251,5.485,5.4892,5.4239,5.3605,5.2636,5.1385,5.1265,5.0361,4.8457,4.7138,0.0,0.0,0.0,0.0,0.0,0.0,0.0,0.0,0.0,0.0,0.0,0.0,0.0,0.0,0.0,0.0,0.0,0.0,0.0,0.0,4.4596,0.0,0.0,0.0,0.0,0.0,0.0,0.0,0.0,0.0,0.0,4.638,4.6988,4.7878,4.9217,0.0,0.0,0.0,0.0,4.9426,4.9445,4.9415,4.9434,4.9434,4.966,4.9891,4.9903,0.0,0.0,5.0458,5.0458,5.0429,5.047,5.0429,4.9817,4.7791,4.7402,4.7374,4.7374,4.7823,4.8304,4.8424,4.8798,4.9299,5.1063,0.0,0.0,0.0,0.0,4.913,4.9042,4.842,4.866,4.8542,4.8227,4.8055,0.0,0.0,0.0,0.0,0.0,0.0,4.8987,5.0001,5.0456,5.0856,5.1273,5.1064,5.0838,5.0586,5.0771,5.0781,5.0655,4.9939,4.9507,4.9398,0.0,0.0,0.0,0.0,5.2102,5.3539,5.4,5.4418,5.491,5.5102,5.5119,5.491,5.4251,5.373,5.3341,5.2875,5.1959,5.044,4.9561,0.0,0.0,0.0,0.0,0.0,0.0,0.0,0.0,0.0,0.0,0.0,0.0,0.0,0.0,0.0,0.0,0.0,0.0,0.0,4.6741,4.677,4.658,0.0,0.0,0.0,0.0,0.0,0.0,0.0,0.0,0.0,4.9353,4.9435,4.986,0.0,0.0,5.2091,5.2091,5.1924,5.1792,5.1804,5.1623,0.0,5.1503,5.1395,5.1317,5.1275,5.1253,5.1312,5.1753,5.184,5.1827,5.1798,5.1827,5.1483,5.0535,4.9846,4.9521,4.9514,4.9674,4.997,5.0402,5.0668,5.0928,5.3214,5.1428,5.155,5.1175,5.0523,5.0892,5.0752,5.0255,5.0217,5.0099,4.9918,4.9703,4.9469,4.9238,4.8868,0.0,0.0,0.0,5.0323,5.1296,5.1471,5.1727,5.2078,5.1712,5.1752,5.203,5.2072,5.2281,5.2603,5.2603,5.2625,5.25,0.0,0.0,5.2218,5.2484,5.3283,5.4573,5.4896,5.521,5.5623,5.5623,5.5652,5.5623,5.4985,5.4509,5.4229,5.3612,5.2809,5.1714,5.1131,4.989,0.0,0.0,0.0,0.0,0.0,0.0,0.0,0.0,0.0,0.0,0.0,4.0376,4.2202,0.0,0.0,0.0,4.7238,4.8454,4.9015,4.8944,0.0,0.0,0.0,0.0,0.0,0.0,0.0,4.9174,4.958,5.0176,5.1305,5.1238,5.1402,5.2195,5.2618,5.2869,5.2869,0.0,5.2449,5.2437,5.2201,5.2067,5.2055,5.2033,5.2036,5.2224,5.1965,5.1898,5.223,5.2237,5.2197,5.2305,5.2316,5.2326,5.2342,5.1963,5.1441,5.0969,5.083,5.0989,5.1386,5.1457,5.1574,5.4555,5.4468,5.3773,5.3173,5.2658,5.2062,5.182,5.1763,5.1209,5.124,5.1737,5.1196,5.1121,5.1351,5.0522,0.0,5.0153,5.1056,5.1794,5.2392,5.2663,5.2769,5.2754,5.2713,5.3134,5.3908,5.3879,5.4331,5.5096,5.5139,5.5341,5.5561,5.2685,5.1844,5.3104,5.3756,5.4469,5.5302,5.5891,5.6215,5.6215,5.6215,5.6201,5.6201,5.5626,5.4995,5.4393,5.3814,5.3179,5.2506,5.2105,5.1291,4.9927,0.0,0.0,0.0,0.0,0.0,0.0,0.0,0.0,0.0,0.0,0.0,0.0,0.0,0.0,4.9277,5.0578,0.0,5.0418,5.0926,0.0,0.0,0.0,4.8964,4.8686,4.8605,4.9216,5.0895,0.0,0.0,5.2423,5.2571,5.2594,5.2499,5.2473,5.2506,5.2565,5.2331,5.2041,5.2224,5.1907,5.1699,5.1895,5.2076,5.2358,5.2717,5.2502,5.2383,5.2539,5.2403,5.2263,5.2554,5.244,5.2593,5.3461,5.3417,5.3137,5.1811,5.1728,5.1776,5.1879,5.1921,5.1937,5.5104,5.4844,5.4407,5.402,5.3624,5.3023,5.2771,5.2743,5.2421,5.2351,5.2462,5.2323,5.2281,5.2363,5.214,5.2263,5.2706,5.2954,5.3367,5.392,5.3556,5.3403,5.3376,5.2934,5.2798,5.3008,5.3022,5.3134,5.333,5.3345,5.3388,5.3405,5.2685,5.3274,5.5118,5.5346,5.5381,5.5317,5.5463,5.555,5.5537,5.555,5.555,5.555,5.5378,5.5232,5.5071,5.4502,5.3849,5.3192,5.2824,5.2038,5.0789,4.9628,0.0,0.0,0.0,0.0,0.0,0.0,0.0,0.0,0.0,4.4342,4.6629,0.0,4.971,0.0,5.1757,5.2278,5.191,5.2004,0.0,0.0,5.0407,5.0374,5.0069,4.9663,5.0024,5.16,5.1809,5.209,5.2792,5.3333,5.3547,5.335,5.3235,5.3409,5.3849,5.347,5.3294,5.3655,5.3346,5.3103,5.3018,5.2952,5.2939,5.3326,5.3295,5.3542,5.4458,5.4581,5.4551,5.4582,5.4251,5.3947,5.3631,5.3255,5.2852,5.2547,5.3129,5.3801,5.3801,5.373,5.3759,5.4675,5.4714,5.44,5.4301,5.4291,5.3287,5.2883,5.2856,5.2435,5.2252,5.2252,5.2122,5.2078,5.2063,5.1918,5.2348,5.3121,5.3148,5.361,5.437,5.4072,5.3936,5.3909,5.3583,5.3568,5.3797,5.3824,5.3933,5.4177,5.4204,5.4432,5.483,5.4569,5.5129,5.6314,5.5548,5.504,5.495,5.525,5.5393,5.5393,5.5393,5.5464,5.559,5.5331,5.5243,5.5382,5.4777,5.4245,5.3913,5.3574,5.2949,5.1949,5.095,4.9859,0.0,0.0,0.0,0.0,0.0,0.0,0.0,0.0,0.0,0.0,0.0,5.1355,5.2314,5.2942,5.3183,5.2862,5.31,5.2874,5.1783,5.1947,5.1936,5.148,5.1165,5.1323,5.216,5.2308,5.2366,5.2433,5.2737,5.3042,5.3146,5.2883,5.3032,5.3785,5.3636,5.3457,5.3782,5.3486,5.3201,5.3187,5.2916,5.2754,5.2926,5.2745,5.2815,5.3442,5.3446,5.3413,5.3536,5.3425,5.3354,5.3334,5.3261,5.3183,5.3561,5.4066,5.4288,5.381,5.3684,5.3698,5.4059,5.4444,5.4159,5.4312,5.4628,5.3351,5.2796,5.2773,5.2286,5.2028,5.2013,5.1803,5.1657,5.1609,5.1325,5.177,5.2775,5.2897,5.3439,5.4373,5.4464,5.4464,5.4368,5.4288,5.4543,5.5032,5.5027,5.5272,5.581,5.5843,5.6263,5.703,5.6546,5.6451,5.6649,5.4995,5.4295,5.4674,5.5191,5.5471,5.5515,5.5513,5.5631,5.5867,5.5262,5.5067,5.5339,5.4658,5.4275,5.4302,5.3995,5.3587,5.3014,5.213,5.1221,0.0,4.9594,0.0,0.0,0.0,0.0,0.0,0.0,0.0,0.0,5.1432,5.2596,5.3866,5.3943,5.3785,5.3439,5.3975,5.3819,5.2709,5.3109,5.3258,5.2659,5.2631,5.2641,5.265,5.2604,5.2398,5.2065,5.192,5.2178,5.2791,5.2565,5.268,5.3416,5.3307,5.3011,5.3053,5.2863,5.278,5.2848,5.2632,5.251,5.2533,5.2421,5.1848,5.2227,5.1986,5.1758,5.2029,5.2449,5.2661,5.3258,5.3579,5.3852,5.4358,5.4486,5.4248,5.3392,5.316,5.2962,5.4718,5.4764,5.4451,5.437,5.4415,5.3871,5.3785,5.3955,5.3875,5.3822,5.3806,5.3759,5.3586,5.3345,5.3255,5.346,5.386,5.4315,5.4656,5.4882,5.5303,5.5261,5.4756,5.4361,5.422,5.4299,5.4135,5.4122,5.4244,5.4533,5.4736,5.4906,5.4784,5.4762,5.4799,0.0,0.0,0.0,5.5424,5.5479,5.5725,5.5479,5.5371,5.5405,5.4846,0.0,5.4555,5.3526,5.3096,5.3347,5.3041,0.0,0.0,0.0,0.0,0.0,0.0,0.0,0.0,0.0,0.0,0.0,5.0958,5.116,5.0568,5.1886,5.3235,5.4271,5.4138,5.3848,5.3584,5.3683,5.3431,5.2725,5.3139,5.3268,5.2697,5.2795,5.2923,5.2899,5.2725,5.2757,5.3036,5.3169,5.3341,5.3764,5.3859,5.3916,5.408,5.3157,5.2586,5.2992,5.2892,5.2837,5.3274,5.3259,5.3496,5.4312,5.4586,5.4528,5.4805,5.4933,5.5007,5.4981,5.4842,5.4505,5.4718,5.4471,5.4168,5.432,5.4378,5.4352,5.4244,5.4233,5.4386,5.3781,5.4006,5.4155,5.4371,0.0,5.4689,5.4825,5.4885,5.4353,5.4102,5.4118,5.4092,5.4019,5.3838,5.3559,5.3824,5.4434,5.4494,5.4788,5.5297,5.5581,5.5547,5.5262,5.4978,5.4823,5.484,5.4741,5.4712,5.4686,5.4853,5.5084,5.5362,5.5084,5.5084,5.5379,5.5084,5.4987,5.5058,5.4885,5.4885,5.5058,5.49,5.4885,5.5026,5.4745,0.0,0.0,0.0,0.0,0.0,0.0,0.0,0.0,0.0,0.0,5.1945,5.1598,5.128,5.0989,5.1238,5.139,5.1222,5.1934,5.2209,5.181,5.2561,5.3189,5.3529,5.3287,5.3224,5.3543,5.3554,5.3596,5.3679,5.3824,5.3697,5.3304,5.3172,5.3154,5.3138,5.3039,5.3029,5.3133,5.3159,5.3299,5.3635,5.3488,5.3452,5.3631,5.3456,5.3376,5.3659,5.3577,5.3532,5.3793,5.3757,5.3768,5.4362,5.4392,5.4443,5.4707,5.4776,5.4776,5.475,5.4609,5.4521,5.451,5.4357,5.4288,5.4288,5.4288,5.4313,5.443,5.4472,5.4511,5.3249,5.3691,5.4159,5.4618,5.5103,5.552,5.5706,5.563,0.0,0.0,0.0,5.4219,5.4185,5.4065,5.3648,5.3929,5.4738,5.4423,5.4738,5.5571,5.5655,5.5706,5.5706,5.5604,5.5571,5.5571,5.5539,5.5488,5.5505,5.5558,5.584,5.626,5.584,5.584,5.6285,5.5858,5.5253,5.4581,5.4524,5.4552,5.4575,5.4526,5.4612,5.4853,5.4762,5.4809,5.5093,5.5028,5.499,5.5011,5.4552,5.4098,5.3661,5.3175,5.2779,5.2528,5.2546,5.2575,5.256,5.256,5.2442,5.216,5.256,5.2961,5.3299,5.3286,5.3168,5.3001,5.2722,5.2835,5.3492,5.3543,5.3778,5.4394,5.4267,5.4059,5.3852,5.3674,5.3615,5.3563,5.3511,5.3335,5.3106,5.297,5.2961,5.315,5.3071,5.2724,5.3174,5.3557,5.3694,5.3746,5.3614,5.3858,5.4016,5.3817,5.3715,5.3886,5.3795,5.3664,5.3664,5.3726,5.3762,5.4074,5.3991,5.4217,5.4278,5.4563,5.4653,5.4718,5.475,5.475,5.4734,5.476,5.4761,5.566,5.5768,5.5861,5.5937,5.6012,5.6088,5.6138,5.6092,5.5567,5.5362,5.5362,5.5345,5.5213,5.4934,5.4857,5.475,5.4638,5.5023,5.53,5.5451,5.5912,5.6113,5.6088,5.5635,5.5426,5.5419,5.5274,5.5162,5.5197,5.5461,5.5644,5.572,5.5644,5.5669,5.5712,5.5644,5.5543,5.5426,5.54,5.5494,5.5644,5.5401,5.5183,5.5046,5.4564,5.4308,5.4357,5.3953,5.3776,5.3996,5.3943,5.3965,5.4159,5.4095,5.4031,5.3998,5.3998,5.4013,5.3971,5.3998,5.3998,5.3919,5.3747,5.3797,5.4177,5.3954,5.3986,5.4398,5.4063,5.3925,5.3805,5.3747,5.3614,5.326,5.3481,5.3784,5.3975,5.4337,5.4526,5.4517,5.4166,5.3892,5.3799,5.3415,5.3347,5.3723,5.3725,5.3758,5.3707,5.3104,5.2645,5.2584,5.2584,5.2773,5.3421,5.3281,5.3546,5.3908,5.4345,5.456,5.456,5.4868,5.5066,5.5245,5.5169,5.534,5.5666,5.589,5.5922,5.6124,5.62,5.6278,5.626,5.6269,5.6063,5.5333,5.5383,5.5641,5.5767,5.5767,5.6075,5.6219,5.6187,5.6009,5.5925,5.5925,5.5907,5.5861,5.5692,5.5389,5.535,5.5465,5.5415,5.5559,5.5842,5.6093,5.6219,5.6194,5.5942,5.5842,5.5835,5.5753,5.5699,5.5717,5.5861,5.5925,5.5925,5.5925,5.5907,5.5907,5.5907,5.5925,5.5943,5.5706,5.5639,5.571,5.5572,5.5469,5.5366,5.5099,5.4952,5.4952,5.472,5.4632,5.4784,5.4784,5.4599,5.4157,5.4311,5.4122,5.3551,5.3676,5.393,5.422,5.4341,5.4442,5.4548,5.4434,5.4543,5.5027,5.3975,5.3428,5.3681,5.3402,5.3274,5.339,5.3718,5.3897,5.389,5.421,5.444,5.4557,5.4621,5.4764,5.4895,5.4744,5.4591,5.4608,5.4345,5.4182,5.4332,5.4331,5.4323,5.4306,5.39,5.358,5.3673,5.3911,5.4176,5.439,5.4458,5.4569,5.4859,5.5047,5.52,5.5226,5.549,5.5567,5.561,5.5618,5.5662,5.5906,5.6071,5.6262,5.6401,5.6677,5.6763,5.6806,5.6806,5.6613,5.5333,5.5383,5.5785,5.5942,5.6011,5.642,5.6595,5.6595,5.6595,5.6577,5.657,5.6326,5.6219,5.6168,5.5767,5.5817,5.61,5.5767,5.5867,5.6369,5.6376,5.6451,5.6552,5.6595,5.6577,5.6595,5.6595,5.6595,5.6595,5.6577,5.6595,5.6577,5.6595,5.6577,5.6577,5.6451,5.6376,5.6363,5.5954,5.5732,5.5674,5.5674,5.565,5.5592,5.561,5.561,5.561,5.561,5.561,5.561,5.561,5.52,5.4458,5.4602,5.4343,5.355,5.372,5.4077,5.446,5.4666,5.4817,5.4953,5.4901,5.5028,5.5283,5.4099,5.3281,5.3364,5.3334,5.3297,5.3639,5.4006,5.4389,5.4737,5.4908,5.4961,5.5128,5.494,5.4945,5.5269,5.5247,5.5145,5.5145,5.5044,5.4847,5.461,5.4597,5.4597,5.4597,5.4672,5.4819,5.4961,5.5229,5.5228,5.5365,5.5296,5.5253,5.5365,5.5432,5.5473,5.5524,5.561,5.5737,5.5778,5.5771,5.5832,5.5904,5.6116,5.637,5.6562,5.6885,5.7112,5.7259,5.7277,5.7059,5.7549,5.76,5.7593,5.7675,5.76,5.7675,5.7681,5.77,5.7725,5.775,5.76,5.6671,5.6244,5.6194,5.6168,5.6219,5.6269,5.615,5.6426,5.6885,5.6953,5.723,5.7675,5.77,5.775,5.77,5.7675,5.765,5.765,5.7675,5.7725,5.775,5.775,5.7681,5.7656,5.7204,5.6935,5.691,5.6424,5.607,5.5888,5.5898,5.5768,5.5618,5.5618,5.561,5.5634,5.561,5.5592,5.561,5.5626,5.5567,5.5421,5.5491,5.544,5.5304,5.5321,5.5415,5.5441,5.5483,5.5499,5.5498,5.5269,5.5144,5.5178,5.4721,5.4692,5.5095,5.5252,5.4984,5.4934,5.4924,5.4861,5.4708,5.4746,5.4851,5.5286,5.5351,5.5509,5.6054,5.5656,5.5387,5.5354,5.507,5.4751,5.4773,5.478,5.478,5.4805,5.5082,5.5333,5.5264,5.5056,5.4839,5.4857,5.4728,5.4925,5.4908,5.5156,5.5437,5.5599,5.5865,5.6152,5.6049,5.6099,5.62,5.6468,5.6732,5.6843,5.7005,5.7378,5.7837,5.8216,5.8244,5.7904,5.7901,5.7901,5.7901,5.7901,5.7901,5.7901,5.7901,5.7901,5.7901,5.7901,5.7851,5.7399,5.7198,5.7179,5.7179,5.7223,5.7198,5.7223,5.7323,5.7506,5.7531,5.7656,5.7876,5.7901,5.7901,5.7901,5.7901,5.7901,5.7901,5.7901,5.7901,5.7901,5.7901,5.7901,5.7876,5.7631,5.7531,5.7549,5.7323,5.7172,5.6999,5.6412,5.6056,5.598,5.593,5.5947,5.5947,5.5947,5.593,5.5947,5.5973,5.5796,5.551,5.568,5.5608,5.5371,5.5837,5.6026,5.5822,5.6109,5.6206,5.5991,5.5829,5.5739,5.5739,5.5631,5.5685,5.5843,5.5365,5.4951,5.4903,5.5094,5.5225,5.5125,5.5358,5.5641,5.5817,5.5867,5.5993,5.6168,5.6018,5.5867,5.5842,5.5691,5.5566,5.5559,5.5541,5.5541,5.5566,5.5742,5.5842,5.5842,5.5666,5.5566,5.5541,5.5559,5.5541,5.5566,5.5717,5.5867,5.5961,5.6018,5.6194,5.6244,5.6294,5.6331,5.6369,5.6674,5.6874,5.7196,5.7559,5.7963,5.8106,5.8319,5.8182,5.8328,5.8328,5.8328,5.8328,5.8328,5.8328,5.8328,5.8328,5.8353,5.8353,5.8328,5.8328,5.8328,5.8303,5.8052,5.7901,5.7901,5.7901,5.8001,5.8102,5.8127,5.8202,5.8328,5.8328,5.8328,5.8353,5.8353,5.8353,5.8353,5.8353,5.8328,5.8353,5.8328,5.8328,5.8328,5.8227,5.8127,5.8102,5.8001,5.7901,5.7775,5.7097,5.6595,5.6451,5.6426,5.6351,5.6219,5.6219,5.6219,5.6219,5.6219,5.6043,5.5666,5.5843,5.581,5.5507,5.6028,5.631,5.6005,5.641,5.651,5.6255,5.6219,5.6276,5.6376,5.6426,5.652,5.6639,5.5942,5.557,5.5308,5.5616,5.5892,5.6086,5.6445,5.6652,5.6677,5.6671,5.6696,5.6652,5.6746,5.6671,5.6671,5.6696,5.6696,5.6671,5.6652,5.6652,5.6652,5.6677,5.6677,5.6671,5.6671,5.6577,5.6477,5.6376,5.6451,5.6671,5.6702,5.6721,5.6671,5.6696,5.6696,5.6997,5.6728,5.6721,5.6971,5.7091,5.7141,5.7262,5.7549,5.7906,5.8022,5.8234,5.8292,5.9433,5.9408,5.9427,5.9357,5.9408,5.9382,5.9402,5.9326,5.9377,5.9402,5.9351,5.9357,5.9408,5.9307,5.8403,5.7926,5.7926,5.7976,5.8234,5.8635,5.866,5.8956,5.9408,5.9433,5.9382,5.9282,5.9282,5.9307,5.9351,5.9382,5.9433,5.9402,5.9351,5.9382,5.9282,5.888,5.866,5.861,5.8234,5.7951,5.7951,5.7876,5.7575,5.706,5.696,5.6753,5.6344,5.6244,5.6244,5.6244,5.6294,5.6226,5.6175,5.6212,5.623,5.6198,5.6223,5.6248,5.623,5.6305,5.6312,5.6269,5.6344,5.6451,5.691,5.6979,5.7179,5.7725,5.7549,5.7323,5.6928,5.6828,5.7079,5.7524,5.77,5.7725,5.775,5.765,5.7801,5.775,5.7675,5.7625,5.7744,5.7826,5.77,5.77,5.775,5.7725,5.765,5.7725,5.77,5.7675,5.7675,5.7625,5.7129,5.7004,5.723,5.738,5.743,5.7681,5.7801,5.7826,5.7775,5.7725,5.76,5.7575,5.7769,5.7844,5.7893,5.7891,5.7728,5.7896,5.8119,5.802,5.8132,5.9527,5.9527,5.9527,5.9527,5.9527,5.9527,5.9527,5.9527,5.9527,5.9527,5.9527,5.9527,5.9527,5.9483,5.9106,5.895,5.8905,5.893,5.9031,5.9207,5.9207,5.9307,5.9502,5.9527,5.9527,5.9527,5.9527,5.9527,5.9527,5.9527,5.9527,5.9527,5.9527,5.9527,5.9477,5.9307,5.9232,5.9187,5.9006,5.895,5.888,5.893,5.8654,5.8108,5.7757,5.7499,5.7298,5.7298,5.7298,5.728,5.7298,5.728,5.7298,5.7298,5.7298,5.7298,5.7298,5.7298,5.7273,5.728,5.7298,5.7298,5.7298,5.7323,5.7549,5.76,5.7675,5.7876,5.7901,5.7882,5.8033,5.7782,5.7675,5.7851,5.7901,5.7951,5.7901,5.7901,5.7901,5.7901,5.7901,5.7901,5.7976,5.7901,5.7901,5.7901,5.7901,5.7926,5.7901,5.7901,5.7951,5.7901,5.7901,5.7976,5.8183,5.7757,5.7656,5.7775,5.7851,5.7876,5.7951,5.8027,5.7976,5.8027,5.8052,5.8077,5.8121,5.814,5.8209,5.8146,5.8018,5.8104,5.832,5.8287,5.8419,6.0035,6.0055,6.0035,6.0035,6.0035,6.0035,6.0055,6.0035,6.0035,6.0055,6.0055,6.0035,6.0055,6.0055,6.0055,6.0035,5.9985,5.9684,5.9527,5.9527,5.9527,5.9527,5.9527,5.9527,5.9527,5.9527,5.9527,5.9527,5.9527,5.9527,5.9527,5.9527,5.9527,5.9527,5.9527,5.9527,5.9527,5.9527,5.9527,5.9502,5.9527,5.9527,5.9332,5.8981,5.8604,5.8227,5.7926,5.7901,5.7901,5.7901,5.7901,5.7901,5.7901,5.7901,5.7901,5.7901,5.7876,5.7901,5.7901,5.7901,5.7876,5.7901,5.7901,5.7951,5.8127,5.8177,5.8252,5.8353,5.8428,5.8604,5.878,5.8629,5.8428,5.8428,5.8428,5.8428,5.8403,5.8409,5.8453,5.8478,5.8478,5.8453,5.8403,5.8428,5.8453,5.8403,5.8428,5.8428,5.8403,5.8403,5.8403,5.8422,5.8478,5.8629,5.8805,5.8629,5.8478,5.8554,5.8478,5.8378,5.8303,5.8328,5.8328,5.8378,5.8403,5.8403,5.8403,5.8422,5.8397,5.8372,5.8347,5.8435,5.8541,5.8601,5.8667,6.116,6.109,6.1165,6.1085,6.1059,6.1014,6.1115,6.1085,6.1065,6.0989,6.0959,6.111,6.0989,6.111,6.0964,6.109,6.0864,6.0105,5.9703,5.9659,5.9653,5.9633,5.9659,5.9608,5.9533,5.9527,5.9527,5.9527,5.9527,5.9527,5.9527,5.9527,5.9527,5.9527,5.9527,5.9527,5.9527,5.9527,5.9527,5.9527,5.9527,5.9527,5.9483,5.9477,5.9382,5.8956,5.8027,5.8001,5.8052,5.8027,5.8001,5.7945,5.8052,5.8052,5.7976,5.8052,5.7976,5.7951,5.7976,5.8027,5.8077,5.8077,5.8001,5.8252,5.861,5.871,5.888,5.9207,5.9332,5.9452,5.9408,5.9357,5.9351,5.9477,5.9326,5.9307,5.9357,5.9433,5.9477,5.9402,5.9332,5.9477,5.9477,5.9351,5.9276,5.9282,5.9307,5.9282,5.9232,5.9232,5.9408,5.9402,5.9251,5.9182,5.9351,5.9502,5.9452,5.9427,5.9326,5.9182,5.9081,5.9075,5.9025,5.905,5.9025,5.9006,5.9006,5.9025,5.91,5.9075,5.8938,5.8756,5.8838,5.8883,5.8706,6.119,6.119,6.119,6.119,6.119,6.119,6.119,6.119,6.119,6.119,6.119,6.119,6.119,6.119,6.119,6.121,6.114,6.0788,6.0683,6.0683,6.0658,6.0632,6.0582,6.0236,5.9859,5.9578,5.9527,5.9508,5.9552,5.9552,5.9527,5.9527,5.9527,5.9527,5.9527,5.9527,5.9527,5.9527,5.9527,5.9527,5.9527,5.9527,5.9527,5.9527,5.9527,5.9307,5.9006,5.8981,5.9006,5.8981,5.8981,5.9025,5.9,5.9006,5.9006,5.9006,5.9006,5.9006,5.9025,5.8956,5.8956,5.8981,5.8981,5.9056,5.9207,5.9232,5.9307,5.9502,5.9527,5.9527,5.9527,5.9527,5.9527,5.9527,5.9527,5.9527,5.9527,5.9527,5.9527,5.9527,5.9527,5.9527,5.9527,5.9527,5.9527,5.9527,5.9527,5.9527,5.9527,5.9527,5.9502,5.9502,5.9527,5.9527,5.9527,5.9527,5.9527,5.9527,5.9527,5.9527,5.9527,5.9527,5.9527,5.9527,5.9527,5.9527,5.9527,5.9527,5.9527,5.9527,5.9295,5.922,5.9251,5.9152,5.9009,6.1793,6.1793,6.1793,6.1793,6.1813,6.1793,6.1793,6.1793,6.1813,6.1793,6.1793,6.1818,6.1793,6.1793,6.1793,6.1793,6.1793,6.1793,6.1793,6.1692,6.1311,6.119,6.114,6.0839,6.0507,6.0205,6.0136,6.0111,6.0111,6.0136,6.013,6.013,6.0155,6.001,5.9834,5.9784,5.9734,5.9533,5.9527,5.9527,5.9527,5.9527,5.9527,5.9527,5.9527,5.9527,5.9527,5.9527,5.9527,5.9527,5.9527,5.9527,5.9527,5.9502,5.9527,5.9527,5.9502,5.9502,5.9527,5.9452,5.9527,5.9527,5.9527,5.9502,5.9483,5.9527,5.9527,5.9527,5.9527,5.9527,5.9527,5.9527,5.9527,5.9527,5.9527,5.9527,5.9527,5.9527,5.9527,5.9527,5.9527,5.9527,5.9527,5.9527,5.9527,5.9527,5.9527,5.9527,5.9527,5.9527,5.9527,5.9527,5.9527,5.9527,5.9527,5.9527,5.9527,5.9527,5.9527,5.9527,5.9527,5.9527,5.9527,5.9527,5.9527,5.9527,5.9527,5.9527,5.9527,5.9527,5.9527,5.9452,5.9382,5.9427,5.9328,6.2852,6.2852,6.2802,6.2727,6.2727,6.2701,6.2676,6.2752,6.2727,6.2701,6.2727,6.2651,6.2681,6.2752,6.2626,6.2626,6.2777,6.2676,6.2626,6.24,6.1868,6.1416,6.1336,6.1266,6.116,6.1059,6.1059,6.109,6.0989,6.0989,6.1185,6.104,6.0989,6.0889,6.0462,6.0342,6.0116,5.9809,5.9728,5.9728,5.9728,5.9703,5.9703,5.9703,5.9728,5.9734,5.9778,5.9684,5.9583,5.9527,5.9527,5.9527,5.9527,5.9527,5.9527,5.9527,5.9527,5.9527,5.9527,5.9527,5.9527,5.9527,5.9527,5.9527,5.9527,5.9527,5.9527,5.9527,5.9527,5.9527,5.9527,5.9527,5.9527,5.9527,5.9527,5.9527,5.9527,5.9527,5.9527,5.9527,5.9527,5.9527,5.9527,5.9527,5.9527,5.9527,5.9527,5.9527,5.9527,5.9527,5.9527,5.9527,5.9527,5.9527,5.9527,5.9527,5.9527,5.9527,5.9527,5.9527,5.9527,5.9527,5.9527,5.9527,5.9527,5.9527,5.9527,5.9527,5.9527,5.9527,5.9527,5.9527,5.9527,5.9527,5.9552,6.3475,6.3425,6.2978,6.2802,6.2802,6.2802,6.2827,6.2802,6.2827,6.2852,6.2827,6.2802,6.2802,6.2802,6.2802,6.2802,6.2802,6.2802,6.2802,6.2752,6.2531,6.2144,6.1868,6.1793,6.1592,6.1311,6.1291,6.119,6.119,6.1266,6.124,6.119,6.1266,6.1185,6.0964,6.0964,6.0909,6.0783,6.0713,6.0708,6.0688,6.0708,6.0758,6.0758,6.0708,6.0688,6.0708,6.0311,5.9885,5.9533,5.9527,5.9527,5.9527,5.9527,5.9527,5.9527,5.9527,5.9527,5.9527,5.9527,5.9527,5.9527,5.9527,5.9527,5.9527,5.9527,5.9527,5.9527,5.9527,5.9527,5.9527,5.9527,5.9527,5.9527,5.9527,5.9527,5.9527,5.9527,5.9527,5.9527,5.9527,5.9527,5.9527,5.9527,5.9527,5.9527,5.9527,5.9527,5.9527,5.9527,5.9527,5.9527,5.9527,5.9527,5.9527,5.9527,5.9527,5.9527,5.9527,5.9527,5.9527,5.9527,5.9527,5.9527,5.9527,5.9527,5.9527,5.9527,5.9527,5.9527,5.9527,5.9527,5.9508,5.9508,5.9558,6.4048,6.3998,6.3651,6.3525,6.3525,6.3525,6.3525,6.3475,6.3254,6.3178,6.3128,6.2877,6.2802,6.2802,6.2802,6.2802,6.2802,6.2802,6.2802,6.2802,6.2777,6.2601,6.2375,6.2325,6.2149,6.1918,6.1843,6.1893,6.1873,6.1868,6.1868,6.1918,6.1868,6.1768,6.1542,6.1537,6.1411,6.1235,6.119,6.119,6.119,6.119,6.1185,6.1185,6.119,6.119,6.1135,6.0839,6.0337,5.9728,5.9527,5.9527,5.9527,5.9527,5.9527,5.9527,5.9527,5.9527,5.9527,5.9527,5.9527,5.9527,5.9527,5.9527,5.9527,5.9527,5.9527,5.9527,5.9527,5.9527,5.9527,5.9527,5.9527,5.9527,5.9527,5.9527,5.9527,5.9527,5.9527,5.9527,5.9527,5.9527,5.9527,5.9527,5.9527,5.9527,5.9527,5.9527,5.9527,5.9527,5.9527,5.9527,5.9527,5.9527,5.9527,5.9527,5.9527,5.9527,5.9527,5.9527,5.9527,5.9527,5.9527,5.9527,5.9527,5.9527,5.9527,5.9527,5.9527,5.9527,5.9527,5.9552,5.9583,5.9834,5.9834,6.4551,6.4576,6.45,6.45,6.445,6.4475,6.4375,6.435,6.3973,6.3776,6.3676,6.3224,6.3078,6.2902,6.3003,6.2902,6.2802,6.2802,6.2802,6.2802,6.2802,6.2752,6.2727,6.2701,6.2676,6.2626,6.2777,6.2727,6.2626,6.2701,6.2752,6.2651,6.2676,6.2526,6.2149,6.2094,6.1818,6.1567,6.1542,6.1567,6.1567,6.1567,6.1567,6.1567,6.1567,6.1466,6.1366,6.1215,6.0833,5.9734,5.9659,5.9804,5.9778,5.9753,5.9879,5.9985,6.0111,6.0136,5.9935,6.0085,5.9885,5.996,5.9859,5.9678,5.9829,5.9859,5.9904,5.9904,5.9703,5.9879,6.001,5.991,6.0035,6.0085,5.9885,5.9684,5.9583,5.9533,5.9527,5.9527,5.9527,5.9527,5.9527,5.9527,5.9527,5.9527,5.9527,5.9527,5.9527,5.9527,5.9527,5.9527,5.9527,5.9527,5.9527,5.9527,5.9527,5.9527,5.9527,5.9527,5.9527,5.9527,5.9527,5.9527,5.9527,5.9527,5.9527,5.9527,5.9578,5.9684,5.9809,5.9784,5.9784,6.0236,6.0412,6.5128,6.5103,6.4676,6.45,6.45,6.45,6.45,6.4526,6.4375,6.4325,6.4274,6.4174,6.3873,6.3525,6.3475,6.3254,6.2927,6.2877,6.2802,6.2802,6.2802,6.2802,6.2802,6.2802,6.2802,6.2802,6.2802,6.2802,6.2802,6.2802,6.2802,6.2802,6.2802,6.2752,6.2626,6.2551,6.2601,6.245,6.2425,6.235,6.237,6.235,6.237,6.235,6.2375,6.2174,6.1918,6.1818,6.1492,6.1034,6.0833,6.0833,6.0808,6.109,6.1215,6.1291,6.1697,6.1974,6.1974,6.1567,6.1441,6.1316,6.1014,6.0833,6.0833,6.0833,6.0833,6.0833,6.0858,6.0989,6.1291,6.1843,6.1672,6.1366,6.1014,6.0663,6.0211,5.9759,5.9552,5.9527,5.9527,5.9527,5.9527,5.9527,5.9527,5.9527,5.9527,5.9527,5.9527,5.9527,5.9527,5.9527,5.9527,5.9527,5.9527,5.9527,5.9527,5.9527,5.9527,5.9527,5.9527,5.9527,5.9527,5.9527,5.9527,5.9552,5.9659,5.9728,5.9829,5.9985,6.0186,6.0286,6.0437,6.0788,6.0989,6.566,6.566,6.5358,6.5233,6.5233,6.5254,6.5254,6.5204,6.4999,6.4877,6.4802,6.4647,6.4325,6.4073,6.4073,6.3873,6.3601,6.3324,6.3053,6.2877,6.2802,6.2802,6.2802,6.2802,6.2802,6.2802,6.2802,6.2802,6.2802,6.2802,6.2802,6.2802,6.2802,6.2802,6.2802,6.2802,6.2777,6.2777,6.2802,6.2802,6.2802,6.2802,6.2802,6.2802,6.2802,6.2651,6.24,6.2395,6.2245,6.1999,6.1943,6.1667,6.1311,6.1441,6.1617,6.1718,6.2144,6.24,6.232,6.24,6.2325,6.2421,6.2074,6.1999,6.1943,6.1943,6.1943,6.1969,6.1969,6.2074,6.235,6.2551,6.2601,6.245,6.2144,6.1773,6.1346,6.0362,5.9527,5.9527,5.9527,5.9527,5.9527,5.9527,5.9527,5.9527,5.9527,5.9527,5.9527,5.9527,5.9527,5.9527,5.9527,5.9527,5.9527,5.9527,5.9527,5.9527,5.9527,5.9527,5.9527,5.9527,5.9527,5.9552,5.9583,5.9865,5.9991,6.006,6.0256,6.0557,6.0808,6.0939,6.109,6.1316,6.1466,6.6112,6.6112,6.6112,6.6112,6.6112,6.6086,6.6036,6.5986,6.5634,6.5409,6.5354,6.4927,6.4802,6.4626,6.4626,6.4597,6.43,6.3898,6.3375,6.3078,6.2877,6.2827,6.2802,6.2802,6.2802,6.2802,6.2802,6.2802,6.2802,6.2802,6.2802,6.2802,6.2802,6.2802,6.2802,6.2802,6.2802,6.2802,6.2802,6.2802,6.2802,6.2802,6.2802,6.2802,6.2802,6.2802,6.2727,6.2727,6.2752,6.2802,6.2802,6.23,6.1743,6.1562,6.1587,6.1687,6.237,6.2797,6.3023,6.3028,6.3128,6.3128,6.3078,6.3073,6.3073,6.3073,6.3073,6.3124,6.3174,6.3279,6.3183,6.3555,6.3454,6.3254,6.3153,6.3028,6.2601,6.112,6.0387,5.9879,5.9834,5.9759,5.9583,5.9527,5.9527,5.9527,5.9527,5.9527,5.9527,5.9527,5.9527,5.9527,5.9527,5.9527,5.9527,5.9527,5.9527,5.9527,5.9527,5.9527,5.9527,5.9527,5.9552,5.9633,5.9784,6.0066,6.0367,6.0563,6.0808,6.1185,6.1386,6.1466,6.1642,6.1843,6.1969,6.6112,6.6112,6.6112,6.6112,6.6112,6.6112,6.6112,6.6112,6.5986,6.5961,6.5936,6.586,6.5484,6.5279,6.5179,6.4953,6.4526,6.4099,6.3701,6.3425,6.3103,6.2877,6.2802,6.2802,6.2802,6.2802,6.2802,6.2802,6.2802,6.2802,6.2802,6.2802,6.2802,6.2802,6.2802,6.2802,6.2802,6.2802,6.2802,6.2802,6.2802,6.2802,6.2802,6.2802,6.2802,6.2802,6.2802,6.2802,6.2802,6.2802,6.2802,6.2701,6.2551,6.2822,6.2998,6.3099,6.3521,6.3898,6.4224,6.4274,6.4454,6.463,6.4475,6.4224,6.4224,6.4224,6.4178,6.4279,6.453,6.4806,6.4881,6.4961,6.5183,6.4906,6.4429,6.4053,6.355,6.2797,6.1823,6.1266,6.0713,5.9991,5.9834,5.9633,5.9608,5.9558,5.9527,5.9527,5.9527,5.9527,5.9527,5.9527,5.9527,5.9527,5.9527,5.9527,5.9527,5.9527,5.9527,5.9527,5.9527,5.9527,5.9578,5.9759,6.0035,6.0362,6.0663,6.1014,6.1391,6.1768,6.1893,6.1974,6.2149,6.2325,6.2425,6.6112,6.6112,6.6112,6.6112,6.6112,6.6112,6.6112,6.6112,6.6112,6.6112,6.6112,6.6065,6.5986,6.576,6.571,6.5409,6.4927,6.4676,6.4228,6.3776,6.34,6.3053,6.2852,6.2827,6.2802,6.2802,6.2802,6.2802,6.2802,6.2802,6.2802,6.2802,6.2802,6.2802,6.2802,6.2802,6.2802,6.2802,6.2802,6.2802,6.2802,6.2802,6.2802,6.2802,6.2802,6.2802,6.2802,6.2802,6.2802,6.2802,6.2802,6.2802,6.2902,6.3053,6.3274,6.34,6.4023,6.4597,6.4902,6.4827,6.5153,6.5584,6.543,6.5354,6.5329,6.5333,6.5279,6.5358,6.5459,6.571,6.566,6.5961,6.5936,6.5785,6.5434,6.5183,6.4881,6.4379,6.3626,6.2767,6.1969,6.1095,6.0066,5.989,5.9765,5.9659,5.9578,5.9552,5.9578,5.9527,5.9527,5.9527,5.9527,5.9527,5.9527,5.9527,5.9527,5.9527,5.9527,5.9527,5.9527,5.9527,5.9734,5.9991,6.0292,6.0663,6.1316,6.1818,6.2094,6.23,6.235,6.245,6.2626,6.2802,6.2802,6.6112,6.6112,6.6112,6.6112,6.6112,6.6112,6.6112,6.6112,6.6112,6.6112,6.6112,6.6112,6.6112,6.6065,6.6015,6.586,6.5459,6.5333,6.4777,6.4224,6.3751,6.3379,6.3103,6.2852,6.2802,6.2802,6.2802,6.2802,6.2802,6.2802,6.2802,6.2802,6.2802,6.2802,6.2802,6.2802,6.2802,6.2802,6.2802,6.2802,6.2802,6.2802,6.2802,6.2802,6.2802,6.2802,6.2802,6.2802,6.2802,6.2802,6.2802,6.2802,6.2827,6.2927,6.2927,6.2978,6.3802,6.43,6.4798,6.5028,6.5455,6.5936,6.6061,6.6086,6.6061,6.5936,6.6011,6.6112,6.6086,6.6061,6.6011,6.6112,6.6065,6.6086,6.6061,6.6036,6.5835,6.5459,6.5007,6.4153,6.3249,6.2225,6.1195,6.0487,6.0412,6.0211,6.0085,5.9859,5.9834,5.9578,5.9527,5.9527,5.9527,5.9527,5.9527,5.9527,5.9527,5.9527,5.9527,5.9527,5.9527,5.9527,5.9834,6.0217,6.0688,6.1115,6.1843,6.2395,6.2501,6.2601,6.2752,6.2802,6.2802,6.2802,6.2802,6.6112,6.6112,6.6112,6.6112,6.6112,6.6112,6.6112,6.6112,6.6112,6.6112,6.6112,6.6112,6.6112,6.6112,6.6112,6.604,6.5886,6.5559,6.5254,6.4827,6.4224,6.3772,6.3475,6.3003,6.2877,6.2827,6.2802,6.2802,6.2802,6.2802,6.2802,6.2802,6.2802,6.2802,6.2802,6.2802,6.2802,6.2802,6.2802,6.2802,6.2802,6.2802,6.2802,6.2802,6.2802,6.2802,6.2802,6.2802,6.2802,6.2802,6.2802,6.2802,6.2877,6.3329,6.3203,6.3153,6.3475,6.4224,6.4927,6.5153,6.5509,6.5961,6.6112,6.6112,6.6112,6.6112,6.6112,6.6112,6.6112,6.6112,6.6112,6.6112,6.6112,6.6112,6.6112,6.6112,6.6061,6.6011,6.5584,6.5329,6.4354,6.3375,6.237,6.1642,6.1059,6.0839,6.0613,6.0362,6.0166,5.9985,5.9684,5.9709,5.9684,5.9659,5.9527,5.9527,5.9527,5.9527,5.9527,5.9527,5.9527,5.9603,6.0105,6.0487,6.0939,6.1366,6.1893,6.2325,6.2676,6.2802,6.2802,6.2802,6.2802,6.2802,6.2802,6.6112,6.6112,6.6112,6.6112,6.6112,6.6112,6.6112,6.6112,6.6112,6.6112,6.6112,6.6112,6.6112,6.6112,6.6112,6.6112,6.6061,6.5835,6.5559,6.5333,6.4756,6.4254,6.3751,6.3425,6.3203,6.2877,6.2802,6.2802,6.2802,6.2802,6.2802,6.2802,6.2802,6.2802,6.2802,6.2802,6.2802,6.2802,6.2802,6.2802,6.2802,6.2802,6.2802,6.2802,6.2802,6.2802,6.2802,6.2802,6.2802,6.2802,6.2802,6.2802,6.2852,6.3053,6.3128,6.3425,6.3525,6.4073,6.4701,6.4827,6.5354,6.5886,6.609,6.6112,6.6112,6.6112,6.6112,6.6112,6.6112,6.6112,6.6112,6.6112,6.6112,6.6112,6.6112,6.6112,6.6112,6.6112,6.5936,6.5735,6.5434,6.4454,6.35,6.2747,6.2044,6.1592,6.1266,6.0864,6.0788,6.0758,6.0387,6.0016,5.9985,5.991,5.9659,5.9527,5.9533,5.9533,5.9527,5.9527,5.9527,5.9728,6.013,6.0512,6.0889,6.1366,6.1898,6.235,6.2752,6.2802,6.2802,6.2802,6.2802,6.2802,6.2802,6.6112,6.6112,6.6112,6.6112,6.6112,6.6112,6.6112,6.6112,6.6112,6.6112,6.6112,6.6112,6.6112,6.6112,6.6112,6.6112,6.6112,6.6112,6.586,6.5584,6.5283,6.4806,6.4279,6.3927,6.345,6.3003,6.2852,6.2827,6.2802,6.2802,6.2802,6.2802,6.2802,6.2802,6.2802,6.2802,6.2802,6.2802,6.2802,6.2802,6.2802,6.2802,6.2802,6.2802,6.2802,6.2802,6.2802,6.2802,6.2802,6.2802,6.2802,6.2802,6.2827,6.2877,6.3003,6.3229,6.3375,6.3672,6.4224,6.4626,6.5128,6.5634,6.6065,6.6112,6.6112,6.6112,6.6112,6.6112,6.6112,6.6112,6.6112,6.6112,6.6112,6.6112,6.6112,6.6112,6.6112,6.6112,6.6112,6.5961,6.5735,6.5484,6.4605,6.3827,6.3124,6.2496,6.1969,6.1461,6.1336,6.1361,6.0989,6.0568,6.0512,6.0437,6.0211,5.9979,5.9834,5.9659,5.9653,5.9578,5.9583,5.9684,5.9935,6.0362,6.0889,6.1522,6.2174,6.2526,6.2802,6.2802,6.2802,6.2802,6.2802,6.2802,6.2802,6.6112,6.6112,6.6112,6.6112,6.6112,6.6112,6.6112,6.6112,6.6112,6.6112,6.6112,6.6112,6.6112,6.6112,6.6112,6.6112,6.6112,6.6112,6.6015,6.5835,6.5559,6.5258,6.4827,6.43,6.3772,6.355,6.3203,6.2927,6.2827,6.2827,6.2827,6.2802,6.2802,6.2802,6.2802,6.2802,6.2802,6.2802,6.2802,6.2802,6.2802,6.2802,6.2802,6.2802,6.2802,6.2802,6.2802,6.2802,6.2802,6.2802,6.2802,6.2802,6.2802,6.2802,6.2927,6.2978,6.3028,6.3299,6.3701,6.445,6.5153,6.5459,6.5735,6.6036,6.6112,6.6112,6.6112,6.6112,6.6112,6.6112,6.6112,6.6112,6.6112,6.6112,6.6112,6.6112,6.6112,6.6112,6.6112,6.6112,6.5911,6.5559,6.5153,6.4228,6.3676,6.3048,6.2672,6.219,6.1863,6.1788,6.1466,6.119,6.114,6.1065,6.1009,6.0783,6.0387,6.0186,6.0111,5.991,5.9734,5.9859,6.0186,6.0632,6.126,6.1868,6.24,6.2752,6.2952,6.2852,6.2802,6.2802,6.2802,6.2802,6.2802,6.6112,6.6112,6.6112,6.6112,6.6112,6.6112,6.6112,6.6112,6.6112,6.6112,6.6112,6.6112,6.6112,6.6112,6.6112,6.6112,6.6112,6.6112,6.6112,6.6061,6.5886,6.5609,6.5233,6.4927,6.4551,6.4149,6.3626,6.335,6.3329,6.3103,6.2852,6.2802,6.2902,6.2802,6.2802,6.2852,6.2852,6.2852,6.2852,6.2827,6.2802,6.2802,6.2802,6.2802,6.2802,6.2802,6.2802,6.2802,6.2802,6.2827,6.2827,6.2802,6.2802,6.2802,6.2802,6.2802,6.2802,6.2952,6.3203,6.3952,6.4576,6.5258,6.5509,6.5735,6.5986,6.6086,6.6112,6.6112,6.6112,6.6112,6.6112,6.6112,6.6112,6.6112,6.6112,6.6112,6.6112,6.6112,6.6112,6.6112,6.5785,6.5434,6.4982,6.4475,6.4028,6.3601,6.3274,6.2968,6.2692,6.2441,6.2265,6.1943,6.1868,6.1542,6.1441,6.1165,6.0864,6.0738,6.0613,6.0412,6.0261,6.0563,6.0889,6.126,6.1486,6.1943,6.2446,6.2973,6.3149,6.3003,6.2902,6.2802,6.2802,6.2902,6.3003,6.6112,6.6112,6.6112,6.6112,6.6112,6.6112,6.6112,6.6112,6.6112,6.6112,6.6112,6.6112,6.6112,6.6112,6.6112,6.6112,6.6112,6.6112,6.6112,6.6086,6.6036,6.586,6.5609,6.5308,6.5003,6.4651,6.4249,6.3927,6.3902,6.35,6.345,6.3425,6.3299,6.3249,6.2852,6.3003,6.3103,6.3254,6.3304,6.3299,6.335,6.3375,6.3375,6.34,6.3425,6.3425,6.3375,6.3304,6.3128,6.3053,6.2952,6.2827,6.2802,6.2802,6.2802,6.2802,6.2802,6.2802,6.2952,6.34,6.4099,6.4852,6.5028,6.5354,6.5685,6.5886,6.5835,6.6112,6.6112,6.6112,6.609,6.6112,6.6112,6.6112,6.6112,6.6112,6.6112,6.6112,6.6112,6.6112,6.571,6.5283,6.4781,6.435,6.4099,6.3852,6.3873,6.3722,6.3697,6.3471,6.3295,6.2993,6.2647,6.2245,6.1818,6.1617,6.1416,6.1291,6.1165,6.104,6.0989,6.124,6.1391,6.1567,6.1793,6.2019,6.2521,6.3124,6.3249,6.3178,6.3224,6.3375,6.3525,6.3651,6.355,6.614,6.6112,6.6162,6.6187,6.6212,6.6112,6.6112,6.6112,6.6112,6.6162,6.6212,6.6187,6.6216,6.6241,6.6388,6.6391,6.6366,6.6291,6.6291,6.6366,6.6312,6.614,6.5936,6.5685,6.543,6.5204,6.4802,6.4475,6.4475,6.4224,6.4249,6.4249,6.4078,6.3847,6.2978,6.34,6.3902,6.4325,6.4325,6.4274,6.4224,6.4199,6.4199,6.4153,6.4153,6.4124,6.4028,6.3802,6.3626,6.3475,6.3149,6.2952,6.2807,6.2802,6.2802,6.2802,6.2802,6.2802,6.2852,6.3375,6.3898,6.4375,6.4526,6.4777,6.5179,6.5358,6.5534,6.581,6.5965,6.604,6.6065,6.6112,6.6112,6.6112,6.6112,6.6112,6.6112,6.6112,6.6112,6.6036,6.5584,6.5082,6.4601,6.4174,6.4023,6.4023,6.4249,6.44,6.445,6.4375,6.4149,6.3722,6.3299,6.2973,6.2546,6.2195,6.1969,6.1868,6.1768,6.1692,6.1567,6.1617,6.1768,6.1918,6.2119,6.237,6.2822,6.335,6.3701,6.4128,6.4124,6.4224,6.435,6.43,6.4099,6.7241,6.7216,6.7216,6.7241,6.7116,6.6391,6.6112,6.6112,6.6115,6.6338,6.6639,6.6689,6.694,6.7141,6.7191,6.7166,6.7191,6.7241,6.7241,6.7166,6.684,6.6714,6.6488,6.6086,6.581,6.5685,6.5329,6.5028,6.5028,6.4802,6.4551,6.4475,6.4626,6.43,6.4073,6.4174,6.435,6.445,6.4475,6.4475,6.45,6.4526,6.4551,6.4551,6.4576,6.4601,6.4601,6.435,6.4124,6.3852,6.35,6.3249,6.2952,6.2877,6.2827,6.2827,6.2802,6.2802,6.2827,6.3099,6.3375,6.3772,6.3998,6.4199,6.4676,6.4752,6.5078,6.5434,6.5609,6.576,6.6011,6.6086,6.6112,6.6112,6.6112,6.6112,6.6112,6.6112,6.6086,6.5961,6.5634,6.5128,6.4626,6.4651,6.4526,6.4605,6.4902,6.4978,6.5028,6.4978,6.4802,6.4274,6.3873,6.3626,6.3299,6.2727,6.2425,6.2325,6.2375,6.245,6.2325,6.2094,6.222,6.24,6.2526,6.2727,6.3299,6.3927,6.4777,6.5179,6.4978,6.4752,6.4701,6.4576,6.44,6.7819,6.7819,6.7819,6.7819,6.7693,6.699,6.6689,6.6689,6.6714,6.6915,6.7216,6.7267,6.7417,6.7719,6.7819,6.7819,6.7819,6.7794,6.7794,6.7741,6.7238,6.7012,6.6786,6.6438,6.6086,6.5986,6.581,6.5584,6.5559,6.5254,6.5153,6.5153,6.5028,6.5128,6.5028,6.4953,6.4927,6.5078,6.5204,6.5157,6.5132,6.5128,6.5128,6.5128,6.5128,6.5103,6.5028,6.4852,6.4626,6.4279,6.4002,6.3701,6.3324,6.3103,6.3003,6.2902,6.2802,6.2802,6.2827,6.2827,6.3078,6.335,6.3375,6.3651,6.4073,6.4224,6.4526,6.4856,6.5107,6.5434,6.576,6.5886,6.6112,6.6112,6.6112,6.6112,6.6112,6.6112,6.6112,6.5961,6.5685,6.5204,6.4902,6.5078,6.5179,6.5358,6.5559,6.5559,6.5534,6.5459,6.5333,6.4852,6.4325,6.3998,6.3576,6.3028,6.2827,6.2802,6.2802,6.2802,6.2752,6.2501,6.2676,6.2802,6.2802,6.3003,6.3802,6.4526,6.5078,6.5455,6.5534,6.5283,6.5078,6.4978,6.4902,6.7869,6.7844,6.7844,6.7894,6.7869,6.7847,6.7819,6.7769,6.7744,6.7769,6.7819,6.7819,6.7945,6.7919,6.7919,6.7995,6.8045,6.802,6.8045,6.7819,6.7467,6.7216,6.6865,6.6438,6.6187,6.6112,6.6036,6.5936,6.604,6.586,6.586,6.5961,6.581,6.581,6.571,6.558,6.5534,6.571,6.5785,6.576,6.5735,6.5886,6.581,6.581,6.581,6.5835,6.5735,6.5509,6.5304,6.5053,6.4777,6.4274,6.3923,6.3722,6.3324,6.2978,6.2827,6.2802,6.2802,6.2802,6.2827,6.2978,6.2902,6.3178,6.3475,6.3676,6.3973,6.4425,6.4806,6.5082,6.5358,6.5735,6.6112,6.6112,6.6112,6.6112,6.6112,6.6112,6.6112,6.5961,6.5685,6.5383,6.5358,6.5484,6.5584,6.5735,6.586,6.5886,6.586,6.5911,6.571,6.5383,6.4877,6.435,6.3852,6.3379,6.2978,6.2877,6.2827,6.2802,6.2802,6.2802,6.2802,6.2827,6.2852,6.3254,6.4028,6.4601,6.5053,6.5405,6.576,6.581,6.5559,6.5685,6.571,6.8952,6.8952,6.8952,6.8929,6.8929,6.8952,6.8525,6.7869,6.7819,6.7995,6.8349,6.8371,6.8525,6.8904,6.8952,6.8904,6.8904,6.8929,6.8954,6.86,6.7872,6.7668,6.7216,6.6592,6.6216,6.6112,6.6112,6.6112,6.609,6.6112,6.6112,6.6086,6.6112,6.6112,6.6061,6.5961,6.6011,6.604,6.6112,6.6112,6.6112,6.6112,6.6112,6.6112,6.6112,6.6112,6.6011,6.5936,6.5685,6.5308,6.5204,6.4827,6.4325,6.3923,6.3404,6.2902,6.2802,6.2802,6.2802,6.2802,6.2802,6.2827,6.2827,6.2827,6.3028,6.3203,6.3446,6.3877,6.45,6.4852,6.5258,6.566,6.5986,6.6112,6.6112,6.6112,6.6112,6.6112,6.6112,6.6061,6.5785,6.576,6.576,6.5785,6.5886,6.6036,6.6112,6.6112,6.6112,6.6112,6.6036,6.571,6.5258,6.4701,6.4274,6.3822,6.3324,6.2952,6.2877,6.2802,6.2802,6.2802,6.2802,6.2852,6.2927,6.35,6.43,6.4726,6.5028,6.5609,6.6011,6.6061,6.6112,6.6112,6.6112,6.9406,6.9406,6.9406,6.9406,6.9406,6.9406,6.8979,6.8475,6.8424,6.865,6.8901,6.8926,6.9105,6.9306,6.9331,6.9331,6.9331,6.928,6.928,6.9029,6.8299,6.7945,6.7417,6.6718,6.619,6.6112,6.6112,6.6112,6.6112,6.6112,6.6112,6.6112,6.6112,6.6112,6.6086,6.6061,6.6086,6.609,6.6112,6.6112,6.6112,6.6112,6.6112,6.6112,6.6112,6.6112,6.6112,6.6112,6.5911,6.566,6.5609,6.5358,6.4777,6.4174,6.3651,6.3153,6.2902,6.2852,6.2802,6.2802,6.2802,6.2877,6.3048,6.3178,6.3078,6.3149,6.3174,6.34,6.4073,6.4676,6.5132,6.5584,6.586,6.6112,6.6112,6.6112,6.6112,6.6112,6.6112,6.6112,6.6086,6.6061,6.6086,6.6112,6.6112,6.6112,6.6112,6.6112,6.6112,6.6112,6.6112,6.5961,6.5509,6.5007,6.4601,6.4073,6.35,6.3028,6.2852,6.2802,6.2802,6.2802,6.2802,6.2902,6.3028,6.3576,6.4099,6.4601,6.5003,6.5509,6.5936,6.6061,6.6086,6.6112,6.6112,6.9406,6.9406,6.9406,6.9406,6.9406,6.9406,6.9356,6.9406,6.9306,6.9381,6.9356,6.9381,6.9356,6.9406,6.9406,6.9406,6.9406,6.9406,6.928,6.928,6.8274,6.7794,6.7342,6.6689,6.6212,6.6112,6.6112,6.6112,6.6112,6.6112,6.6112,6.6112,6.6112,6.6112,6.6112,6.6112,6.6112,6.6112,6.6112,6.6112,6.6112,6.6112,6.6112,6.6112,6.6112,6.6112,6.6112,6.6112,6.6112,6.6065,6.6011,6.576,6.5107,6.4551,6.4053,6.3676,6.34,6.3274,6.3249,6.3249,6.3153,6.3254,6.345,6.3651,6.3626,6.3475,6.35,6.3651,6.4325,6.4726,6.5157,6.566,6.6011,6.6112,6.6112,6.6112,6.6112,6.6112,6.6112,6.6112,6.6112,6.6112,6.6112,6.6112,6.6112,6.6112,6.6112,6.6112,6.6112,6.6112,6.6112,6.6112,6.581,6.5308,6.4626,6.4124,6.355,6.3174,6.2902,6.2802,6.2802,6.2802,6.2802,6.2877,6.2978,6.3274,6.3697,6.4174,6.4651,6.5103,6.5509,6.5886,6.6011,6.5986,6.6112,6.9406,6.9406,6.9406,6.9406,6.9406,6.9406,6.9406,6.9406,6.9406,6.9406,6.9406,6.9406,6.9406,6.9406,6.9406,6.9406,6.9406,6.9381,6.913,6.8776,6.8095,6.7593,6.7166,6.6513,6.6162,6.6112,6.6112,6.6112,6.6112,6.6112,6.6112,6.6112,6.6112,6.6112,6.6112,6.6112,6.6112,6.6112,6.6112,6.6112,6.6112,6.6112,6.6112,6.6112,6.6112,6.6112,6.6112,6.6112,6.6112,6.609,6.6112,6.581,6.5283,6.5007,6.4701,6.4375,6.4099,6.3927,6.3902,6.3877,6.3877,6.3977,6.4174,6.4249,6.4249,6.4128,6.4149,6.4325,6.4526,6.4852,6.5183,6.571,6.6112,6.6112,6.6112,6.6112,6.6112,6.6112,6.6112,6.6112,6.6112,6.6112,6.6112,6.6112,6.6112,6.6112,6.6112,6.6112,6.6112,6.6112,6.6112,6.6112,6.6112,6.5634,6.4852,6.4224,6.3726,6.3199,6.2852,6.2802,6.2802,6.2802,6.2802,6.2802,6.2902,6.3149,6.3375,6.3701,6.4153,6.4605,6.5053,6.5409,6.5609,6.5634,6.5911,6.9406,6.9406,6.9406,6.9406,6.9406,6.9406,6.9406,6.9406,6.9406,6.9406,6.9406,6.9406,6.9406,6.9406,6.9406,6.9406,6.9406,6.9406,6.908,6.86,6.802,6.754,6.6962,6.6388,6.6212,6.6112,6.6112,6.6112,6.6112,6.6112,6.6112,6.6112,6.6112,6.6112,6.6112,6.6112,6.6112,6.6112,6.6112,6.6112,6.6112,6.6112,6.6112,6.6112,6.6112,6.6112,6.6112,6.6112,6.6112,6.6112,6.6112,6.6036,6.566,6.5358,6.5153,6.4852,6.4626,6.45,6.4526,6.4551,6.4576,6.4601,6.4802,6.4852,6.4953,6.4852,6.4726,6.4852,6.4902,6.5179,6.5333,6.5735,6.6011,6.6112,6.6112,6.6112,6.6112,6.6112,6.6112,6.6112,6.6112,6.6112,6.6112,6.6112,6.6112,6.6112,6.6112,6.6112,6.6112,6.6112,6.6112,6.6061,6.6036,6.5609,6.4752,6.4274,6.3927,6.3425,6.2827,6.2802,6.2802,6.2802,6.2802,6.2802,6.2827,6.2927,6.3178,6.345,6.3676,6.4078,6.4526,6.4927,6.5103,6.5229,6.5308,6.9406,6.9406,6.9406,6.9406,6.9406,6.9406,6.9406,6.9406,6.9406,6.9406,6.9406,6.9406,6.9406,6.9406,6.9406,6.9406,6.9331,6.9205,6.8926,6.8399,6.7894,6.7267,6.6764,6.6363,6.6187,6.6112,6.6112,6.6112,6.6112,6.6112,6.6112,6.6112,6.6112,6.6112,6.6112,6.6112,6.6112,6.6112,6.6112,6.6112,6.6112,6.6112,6.6112,6.6112,6.6112,6.6112,6.6112,6.6112,6.6112,6.6112,6.6112,6.6061,6.5961,6.5685,6.5559,6.5308,6.5128,6.4953,6.4852,6.4927,6.4877,6.4902,6.5208,6.5409,6.5505,6.548,6.5329,6.5329,6.538,6.5455,6.5584,6.571,6.5961,6.6112,6.6112,6.6112,6.6112,6.6112,6.6112,6.6112,6.6112,6.6112,6.6112,6.6112,6.6112,6.6112,6.6112,6.6112,6.6112,6.6112,6.6112,6.5986,6.5886,6.5308,6.4601,6.4325,6.4053,6.3329,6.2802,6.2802,6.2802,6.2802,6.2802,6.2802,6.2852,6.2877,6.2978,6.3199,6.3425,6.3626,6.4023,6.44,6.45,6.4576,6.4551,6.9406,6.9406,6.9406,6.9406,6.9406,6.9406,6.9406,6.9406,6.9406,6.9406,6.9406,6.9406,6.9406,6.9406,6.9406,6.9381,6.9331,6.9055,6.8475,6.7945,6.7493,6.689,6.6438,6.6237,6.6137,6.6112,6.6112,6.6112,6.6112,6.6112,6.6112,6.6112,6.6112,6.6112,6.6112,6.6112,6.6112,6.6112,6.6112,6.6112,6.6112,6.6112,6.6112,6.6112,6.6112,6.6112,6.6112,6.6112,6.6112,6.6112,6.6112,6.6112,6.604,6.5939,6.5864,6.581,6.5609,6.5609,6.5534,6.5534,6.5509,6.5559,6.581,6.5835,6.5886,6.5886,6.581,6.581,6.586,6.586,6.5961,6.5961,6.6112,6.6112,6.6112,6.6112,6.6112,6.6112,6.6112,6.6112,6.6112,6.6112,6.6112,6.6112,6.6112,6.6112,6.6112,6.6112,6.6112,6.6112,6.6112,6.5961,6.581,6.5229,6.4601,6.4375,6.4048,6.3324,6.2802,6.2802,6.2802,6.2802,6.2802,6.2802,6.2802,6.2827,6.2927,6.3003,6.3003,6.3224,6.355,6.3873,6.3948,6.3952,6.3952]},{"header":{"parameterUnit":"m.s-1","parameterCategory":1,"la1":31.0,"la2":29.5877,"lo1":-88.7671,"lo2":-86.6584,"dx":0.0162,"dy":0.0185,"nx":115,"ny":88,"refTime":"2022-11-16T06:00:00:Z","depth":0,"parameterNumber":3,"parameterNumberName":"V-component_of_WINDS"},"data":[0.0,0.0,0.0,0.0,0.0,0.0,0.0,0.0,0.0,0.0,0.0,0.0,0.0,0.0,0.0,0.0,0.0,0.0,0.0,0.0,0.0,0.0,0.0,0.0,0.0,0.0,0.0,0.0,0.0,0.0,0.0,0.0,0.0,0.0,0.0,0.0,0.0,0.0,0.0,0.0,0.0,0.0,0.0,0.0,0.0,0.0,0.0,0.0,0.0,0.0,0.0,0.0,0.0,0.0,0.0,0.0,0.0,0.0,0.0,0.0,0.0,0.0,0.0,0.0,0.0,0.0,0.0,0.0,0.0,0.0,0.0,0.0,0.0,0.0,0.0,0.0,0.0,0.0,0.0,0.0,0.0,0.0,0.0,0.0,0.0,0.0,0.0,0.0,0.0,0.0,0.0,0.0,0.0,0.0,0.0,0.0,0.0,0.0,0.0,0.0,0.0,0.0,0.0,0.0,0.0,0.0,0.0,0.0,0.0,0.0,0.0,0.0,0.0,0.0,0.0,0.0,0.0,0.0,0.0,0.0,0.0,0.0,0.0,0.0,0.0,0.0,0.0,0.0,0.0,0.0,0.0,0.0,0.0,0.0,0.0,0.0,0.0,0.0,0.0,0.0,0.0,0.0,0.0,0.0,0.0,0.0,0.0,0.0,0.0,0.0,0.0,0.0,0.0,0.0,0.0,0.0,0.0,0.0,0.0,0.0,0.0,0.0,0.0,0.0,0.0,0.0,0.0,0.0,0.0,0.0,0.0,0.0,0.0,0.0,0.0,0.0,0.0,0.0,0.0,0.0,0.0,0.0,0.0,0.0,0.0,0.0,0.0,0.0,0.0,0.0,0.0,0.0,0.0,0.0,0.0,0.0,0.0,0.0,0.0,0.0,0.0,0.0,0.0,0.0,0.0,0.0,0.0,0.0,0.0,0.0,0.0,0.0,0.0,0.0,0.0,0.0,0.0,0.0,0.0,0.0,0.0,0.0,0.0,0.0,0.0,0.0,0.0,0.0,0.0,0.0,0.0,0.0,0.0,0.0,0.0,0.0,0.0,0.0,0.0,0.0,0.0,0.0,0.0,0.0,0.0,0.0,0.0,0.0,0.0,0.0,0.0,0.0,0.0,0.0,0.0,0.0,0.0,0.0,0.0,0.0,0.0,0.0,0.0,0.0,0.0,0.0,0.0,0.0,0.0,0.0,0.0,0.0,0.0,0.0,0.0,0.0,0.0,0.0,0.0,0.0,0.0,0.0,0.0,0.0,0.0,0.0,0.0,0.0,0.0,0.0,0.0,0.0,0.0,0.0,0.0,0.0,0.0,0.0,0.0,0.0,0.0,0.0,0.0,0.0,0.0,0.0,0.0,0.0,0.0,0.0,0.0,0.0,0.0,0.0,0.0,0.0,0.0,0.0,0.0,0.0,0.0,0.0,0.0,0.0,0.0,0.0,0.0,0.0,0.0,0.0,0.0,0.0,0.0,0.0,0.0,0.0,0.0,0.0,0.0,0.0,0.0,0.0,0.0,0.0,0.0,0.0,0.0,0.0,0.0,0.0,0.0,0.0,0.0,0.0,0.0,0.0,0.0,0.0,0.0,0.0,0.0,0.0,0.0,0.0,0.0,0.0,0.0,0.0,0.0,0.0,0.0,0.0,0.0,0.0,0.0,0.0,0.0,0.0,0.0,0.0,0.0,0.0,0.0,0.0,0.0,0.0,0.0,0.0,0.0,0.0,0.0,0.0,0.0,0.0,0.0,0.0,0.0,0.0,0.0,0.0,0.0,0.0,0.0,0.0,0.0,0.0,0.0,0.0,0.0,0.0,0.0,0.0,0.0,0.0,0.0,0.0,0.0,0.0,0.0,0.0,0.0,0.0,0.0,0.0,0.0,0.0,0.0,0.0,0.0,0.0,0.0,0.0,0.0,0.0,0.0,0.0,0.0,0.0,0.0,0.0,0.0,0.0,0.0,0.0,0.0,0.0,0.0,0.0,0.0,0.0,0.0,0.0,0.0,0.0,0.0,0.0,0.0,0.0,0.0,0.0,0.0,0.0,0.0,0.0,0.0,0.0,0.0,0.0,0.0,0.0,0.0,0.0,0.0,0.0,0.0,0.0,0.0,0.0,0.0,0.0,0.0,0.0,0.0,0.0,0.0,0.0,0.0,0.0,0.0,0.0,0.0,0.0,0.0,0.0,0.0,0.0,0.0,0.0,0.0,0.0,0.0,0.0,0.0,0.0,0.0,0.0,0.0,0.0,0.0,0.0,0.0,0.0,0.0,0.0,0.0,0.0,0.0,0.0,0.0,0.0,0.0,0.0,0.0,0.0,0.0,0.0,0.0,0.0,0.0,0.0,0.0,0.0,0.0,0.0,0.0,0.0,0.0,0.0,0.0,0.0,0.0,0.0,0.0,0.0,0.0,0.0,0.0,0.0,0.0,0.0,0.0,0.0,0.0,0.0,0.0,0.0,0.0,0.0,0.0,0.0,0.0,0.0,0.0,0.0,0.0,0.0,0.0,0.0,0.0,0.0,0.0,0.0,0.0,0.0,0.0,0.0,0.0,0.0,0.0,0.0,0.0,0.0,0.0,0.0,0.0,0.0,0.0,0.0,0.0,0.0,0.0,0.0,0.0,0.0,0.0,0.0,0.0,0.0,0.0,0.0,0.0,0.0,0.0,0.0,0.0,0.0,0.0,0.0,0.0,0.0,0.0,0.0,0.0,0.0,0.0,0.0,0.0,0.0,0.0,0.0,0.0,0.0,0.0,0.0,0.0,0.0,0.0,0.0,0.0,0.0,0.0,0.0,0.0,0.0,0.0,0.0,0.0,0.0,0.0,0.0,0.0,0.0,0.0,0.0,0.0,0.0,0.0,0.0,0.0,0.0,0.0,0.0,0.0,0.0,0.0,0.0,0.0,0.0,0.0,0.0,0.0,0.0,0.0,0.0,0.0,0.0,0.0,0.0,0.0,0.0,0.0,0.0,0.0,0.0,0.0,0.0,0.0,0.0,0.0,0.0,0.0,0.0,0.0,0.0,0.0,0.0,0.0,0.0,0.0,0.0,0.0,0.0,0.0,0.0,0.0,0.0,0.0,0.0,0.0,0.0,0.0,0.0,0.0,0.0,0.0,0.0,0.0,0.0,0.0,0.0,0.0,0.0,0.0,0.0,0.0,0.0,0.0,0.0,0.0,0.0,0.0,0.0,0.0,0.0,0.0,0.0,0.0,0.0,0.0,0.0,0.0,0.0,0.0,0.0,0.0,0.0,0.0,0.0,0.0,0.0,0.0,0.0,0.0,0.0,0.0,0.0,0.0,0.0,0.0,0.0,0.0,0.0,0.0,0.0,0.0,0.0,0.0,0.0,0.0,0.0,0.0,0.0,0.0,0.0,0.0,0.0,0.0,0.0,0.0,0.0,0.0,0.0,0.0,0.0,0.0,0.0,0.0,0.0,0.0,0.0,0.0,0.0,0.0,0.0,0.0,0.0,0.0,0.0,0.0,0.0,0.0,0.0,0.0,0.0,0.0,0.0,0.0,0.0,0.0,0.0,0.0,0.0,0.0,0.0,0.0,0.0,0.0,0.0,0.0,0.0,0.0,0.0,0.0,0.0,0.0,0.0,0.0,0.0,0.0,0.0,0.0,0.0,0.0,0.0,0.0,0.0,0.0,0.0,0.0,0.0,0.0,0.0,0.0,0.0,0.0,0.0,0.0,0.0,0.0,0.0,0.0,0.0,0.0,0.0,0.0,0.0,0.0,0.0,0.0,0.0,0.0,0.0,0.0,0.0,0.0,0.0,0.0,0.0,0.0,0.0,0.0,0.0,0.0,0.0,0.0,0.0,0.0,0.0,0.0,0.0,0.0,0.0,0.0,0.0,0.0,0.0,0.0,0.0,0.0,0.0,0.0,0.0,0.0,0.0,0.0,0.0,0.0,0.0,0.0,0.0,0.0,0.0,0.0,0.0,0.0,0.0,0.0,0.0,0.0,0.0,0.0,0.0,0.0,0.0,0.0,0.0,0.0,0.0,0.0,0.0,0.0,0.0,0.0,0.0,0.0,0.0,0.0,0.0,0.0,0.0,0.0,0.0,0.0,0.0,0.0,0.0,0.0,0.0,0.0,0.0,0.0,0.0,0.0,0.0,0.0,0.0,0.0,0.0,0.0,0.0,0.0,0.0,0.0,0.0,0.0,0.0,0.0,0.0,0.0,0.0,0.0,0.0,0.0,0.0,0.0,0.0,0.0,0.0,0.0,0.0,0.0,0.0,2.0312,0.0,0.0,0.0,1.8626,0.0,0.0,0.0,0.0,0.0,0.0,0.0,0.0,0.0,0.0,0.0,0.0,0.0,0.0,0.0,0.0,0.0,0.0,0.0,0.0,0.0,0.0,0.0,0.0,0.0,0.0,0.0,0.0,0.0,0.0,0.0,0.0,0.0,0.0,0.0,0.0,0.0,0.0,0.0,0.0,0.0,0.0,0.0,0.0,0.0,0.0,0.0,0.0,0.0,0.0,0.0,0.0,0.0,0.0,0.0,0.0,0.0,0.0,0.0,0.0,0.0,0.0,0.0,0.0,0.0,0.0,0.0,0.0,0.0,0.0,0.0,0.0,0.0,0.0,0.0,0.0,0.0,0.0,0.0,0.0,0.0,0.0,0.0,0.0,0.0,0.0,0.0,0.0,0.0,0.0,0.0,0.0,0.0,0.0,0.0,0.0,0.0,0.0,0.0,0.0,0.0,0.0,0.0,0.0,0.0,0.0,0.0,0.0,0.0,0.0,2.0498,2.0293,1.9853,1.9434,1.8995,0.0,0.0,0.0,0.0,0.0,0.0,0.0,0.0,0.0,0.0,0.0,0.0,0.0,0.0,0.0,0.0,0.0,0.0,0.0,0.0,0.0,0.0,0.0,0.0,0.0,0.0,0.0,0.0,0.0,0.0,0.0,0.0,0.0,0.0,0.0,0.0,0.0,0.0,0.0,0.0,0.0,0.0,0.0,0.0,0.0,0.0,0.0,0.0,0.0,0.0,0.0,0.0,0.0,0.0,0.0,0.0,0.0,0.0,0.0,0.0,0.0,0.0,0.0,0.0,0.0,0.0,0.0,0.0,0.0,0.0,0.0,0.0,0.0,0.0,0.0,0.0,0.0,0.0,0.0,0.0,0.0,0.0,0.0,0.0,0.0,0.0,0.0,0.0,0.0,0.0,0.0,0.0,0.0,0.0,0.0,0.0,0.0,0.0,0.0,0.0,0.0,0.0,0.0,0.0,0.0,0.0,0.0,0.0,0.0,0.0,0.0,0.0,2.0146,1.9668,1.9141,0.0,0.0,0.0,0.0,0.0,0.0,0.0,0.0,0.0,0.0,0.0,0.0,0.0,0.0,0.0,0.0,0.0,0.0,0.0,0.0,0.0,0.0,0.0,0.0,0.0,0.0,0.0,0.0,0.0,0.0,0.0,0.0,0.0,0.0,0.0,0.0,0.0,0.0,0.0,0.0,0.0,0.0,0.0,0.0,0.0,0.0,0.0,0.0,0.0,0.0,0.0,0.0,0.0,0.0,0.0,0.0,0.0,0.0,0.0,0.0,0.0,0.0,0.0,0.0,0.0,0.0,0.0,0.0,0.0,0.0,0.0,0.0,0.0,0.0,0.0,0.0,0.0,0.0,0.0,0.0,0.0,0.0,0.0,0.0,0.0,0.0,0.0,0.0,0.0,0.0,0.0,0.0,0.0,0.0,0.0,0.0,0.0,0.0,0.0,0.0,0.0,0.0,0.0,0.0,0.0,0.0,0.0,0.0,0.0,0.0,2.0595,2.0595,2.0146,0.0,1.8704,0.0,0.0,0.0,0.0,0.0,0.0,0.0,0.0,0.0,0.0,0.0,0.0,0.0,0.0,0.0,0.0,0.0,0.0,0.0,0.0,0.0,0.0,0.0,0.0,0.0,0.0,0.0,0.0,0.0,0.0,0.0,0.0,0.0,0.0,0.0,0.0,0.0,0.0,0.0,0.0,0.0,0.0,0.0,0.0,0.0,0.0,0.0,0.0,0.0,0.0,0.0,0.0,0.0,0.0,0.0,0.0,0.0,0.0,0.0,0.0,0.0,0.0,0.0,0.0,0.0,0.0,0.0,0.0,0.0,0.0,0.0,0.0,0.0,0.0,0.0,0.0,0.0,0.0,0.0,0.0,0.0,0.0,0.0,0.0,0.0,0.0,0.0,0.0,0.0,0.0,0.0,0.0,0.0,0.0,0.0,0.0,0.0,0.0,0.0,0.0,0.0,0.0,0.0,0.0,0.0,0.0,0.0,0.0,0.0,0.0,2.0595,2.0595,1.9912,1.9366,0.0,0.0,0.0,0.0,0.0,0.0,0.0,0.0,0.0,0.0,0.0,0.0,0.0,0.0,0.0,0.0,0.0,0.0,0.0,0.0,0.0,0.0,0.0,0.0,0.0,0.0,0.0,0.0,0.0,0.0,0.0,0.0,0.0,0.0,0.0,0.0,0.0,0.0,0.0,0.0,0.0,0.0,0.0,0.0,0.0,0.0,0.0,0.0,0.0,0.0,0.0,0.0,0.0,0.0,0.0,0.0,0.0,0.0,0.0,0.0,0.0,0.0,0.0,0.0,0.0,0.0,0.0,0.0,0.0,0.0,0.0,0.0,0.0,0.0,0.0,0.0,0.0,0.0,0.0,0.0,0.0,0.0,0.0,0.0,0.0,0.0,0.0,0.0,0.0,0.0,0.0,0.0,0.0,0.0,0.0,0.0,0.0,0.0,0.0,0.0,0.0,0.0,0.0,0.0,0.0,0.0,0.0,0.0,0.0,0.0,2.0595,2.0595,2.0556,1.9745,1.9286,1.9286,0.0,0.0,0.0,0.0,0.0,0.0,0.0,0.0,0.0,0.0,0.0,0.0,0.0,0.0,0.0,0.0,0.0,0.0,0.0,0.0,0.0,0.0,0.0,0.0,0.0,0.0,0.0,0.0,0.0,0.0,0.0,0.0,0.0,0.0,0.0,0.0,0.0,0.0,0.0,0.0,0.0,0.0,0.0,0.0,0.0,0.0,0.0,0.0,0.0,0.0,0.0,0.0,0.0,0.0,0.0,0.0,0.0,0.0,0.0,0.0,0.0,0.0,0.0,0.0,0.0,0.0,0.0,0.0,0.0,0.0,0.0,0.0,0.0,0.0,0.0,0.0,0.0,0.0,0.0,0.0,0.0,0.0,0.0,0.0,0.0,0.0,0.0,0.0,0.0,0.0,0.0,0.0,0.0,0.0,0.0,0.0,0.0,0.0,0.0,0.0,0.0,0.0,0.0,0.0,0.0,0.0,0.0,0.0,2.0595,2.0595,2.0595,2.0576,1.9765,1.9286,0.0,0.0,0.0,0.0,0.0,0.0,0.0,0.0,0.0,0.0,0.0,0.0,0.0,0.0,0.0,0.0,0.0,0.0,0.0,0.0,0.0,0.0,0.0,0.0,0.0,0.0,0.0,0.0,0.0,0.0,0.0,0.0,0.0,0.0,0.0,0.0,0.0,0.0,0.0,0.0,0.0,0.0,0.0,0.0,0.0,0.0,0.0,0.0,0.0,0.0,0.0,0.0,0.0,0.0,0.0,0.0,0.0,0.0,0.0,0.0,0.0,0.0,0.0,0.0,0.0,0.0,0.0,0.0,0.0,0.0,0.0,0.0,0.0,0.0,0.0,0.0,0.0,0.0,0.0,0.0,0.0,0.0,0.0,0.0,0.0,0.0,0.0,0.0,0.0,0.0,0.0,0.0,0.0,0.0,0.0,0.0,0.0,0.0,0.0,0.0,0.0,0.0,0.0,0.0,0.0,0.0,0.0,0.0,0.0,2.0605,2.0595,2.0595,2.0576,2.0019,1.9561,0.0,0.0,0.0,0.0,0.0,0.0,0.0,0.0,0.0,0.0,0.0,0.0,0.0,0.0,0.0,0.0,0.0,0.0,0.0,0.0,0.0,0.0,0.0,0.0,0.0,0.0,0.0,0.0,0.0,0.0,0.0,0.0,0.0,0.0,0.0,0.0,0.0,0.0,0.0,0.0,0.0,0.0,0.0,0.0,0.0,0.0,0.0,0.0,0.0,0.0,0.0,0.0,0.0,0.0,0.0,0.0,0.0,0.0,0.0,0.0,0.0,0.0,0.0,0.0,0.0,0.0,0.0,0.0,0.0,0.0,0.0,0.0,0.0,0.0,0.0,0.0,0.0,0.0,0.0,0.0,0.0,0.0,0.0,0.0,0.0,0.0,0.0,0.0,0.0,0.0,0.0,0.0,0.0,0.0,0.0,0.0,0.0,0.0,0.0,0.0,0.0,0.0,0.0,0.0,0.0,0.0,0.0,0.0,0.0,2.1125,2.0987,2.0889,2.0781,2.0205,1.9716,0.0,0.0,0.0,0.0,0.0,0.0,0.0,0.0,0.0,0.0,0.0,0.0,0.0,0.0,0.0,0.0,0.0,0.0,0.0,0.0,0.0,0.0,0.0,0.0,0.0,0.0,0.0,0.0,0.0,0.0,0.0,0.0,0.0,0.0,0.0,0.0,0.0,0.0,0.0,0.0,0.0,0.0,0.0,0.0,0.0,0.0,0.0,0.0,0.0,0.0,0.0,0.0,0.0,0.0,0.0,0.0,0.0,0.0,0.0,0.0,0.0,0.0,0.0,0.0,0.0,0.0,0.0,0.0,0.0,0.0,0.0,0.0,0.0,0.0,0.0,0.0,0.0,0.0,0.0,0.0,0.0,0.0,0.0,0.0,0.0,0.0,0.0,0.0,0.0,0.0,0.0,0.0,0.0,0.0,0.0,0.0,0.0,0.0,0.0,0.0,0.0,0.0,0.0,0.0,0.0,0.0,0.0,0.0,2.203,2.2156,2.1799,2.1501,2.123,2.042,1.9755,0.0,0.0,0.0,0.0,0.0,0.0,0.0,0.0,0.0,0.0,0.0,0.0,0.0,0.0,0.0,0.0,0.0,0.0,0.0,0.0,0.0,0.0,0.0,0.0,0.0,0.0,0.0,0.0,0.0,0.0,0.0,0.0,0.0,0.0,0.0,0.0,0.0,0.0,0.0,0.0,0.0,0.0,0.0,0.0,0.0,0.0,0.0,0.0,0.0,0.0,0.0,0.0,0.0,0.0,0.0,0.0,0.0,0.0,0.0,0.0,0.0,0.0,0.0,0.0,0.0,0.0,0.0,0.0,0.0,0.0,0.0,0.0,0.0,0.0,0.0,0.0,0.0,0.0,0.0,0.0,0.0,0.0,0.0,0.0,0.0,0.0,0.0,0.0,0.0,0.0,0.0,0.0,0.0,0.0,0.0,0.0,0.0,0.0,0.0,0.0,0.0,0.0,0.0,0.0,0.0,0.0,0.0,0.0,0.0,2.2502,2.2351,2.2251,2.2139,2.159,2.1081,0.0,0.0,0.0,0.0,0.0,0.0,0.0,0.0,0.0,0.0,0.0,0.0,0.0,0.0,0.0,0.0,0.0,0.0,0.0,0.0,0.0,0.0,0.0,0.0,0.0,0.0,0.0,0.0,0.0,0.0,0.0,0.0,0.0,0.0,0.0,0.0,0.0,0.0,0.0,0.0,0.0,0.0,0.0,0.0,0.0,0.0,0.0,0.0,0.0,0.0,0.0,0.0,0.0,0.0,0.0,0.0,0.0,0.0,0.0,0.0,0.0,0.0,0.0,0.0,0.0,0.0,0.0,0.0,0.0,0.0,0.0,0.0,0.0,0.0,0.0,0.0,0.0,0.0,0.0,0.0,0.0,0.0,0.0,0.0,0.0,0.0,0.0,0.0,0.0,0.0,0.0,0.0,0.0,0.0,0.0,0.0,0.0,0.0,0.0,0.0,0.0,0.0,0.0,0.0,0.0,0.0,0.0,0.0,0.0,2.4033,2.3835,2.3698,2.3614,2.292,2.225,2.163,0.0,0.0,0.0,0.0,0.0,0.0,0.0,0.0,0.0,0.0,0.0,0.0,0.0,0.0,0.0,0.0,0.0,0.0,0.0,0.0,0.0,0.0,0.0,0.0,0.0,0.0,0.0,0.0,0.0,0.0,0.0,0.0,0.0,0.0,0.0,0.0,0.0,0.0,0.0,0.0,0.0,0.0,0.0,0.0,0.0,0.0,0.0,0.0,0.0,0.0,0.0,0.0,0.0,0.0,0.0,0.0,0.0,0.0,0.0,0.0,0.0,0.0,0.0,0.0,0.0,0.0,0.0,0.0,0.0,0.0,0.0,0.0,0.0,0.0,0.0,0.0,0.0,0.0,0.0,0.0,0.0,0.0,0.0,0.0,0.0,0.0,0.0,0.0,0.0,0.0,0.0,0.0,0.0,0.0,0.0,0.0,0.0,0.0,0.0,0.0,0.0,0.0,0.0,0.0,0.0,0.0,0.0,0.0,2.6444,2.6085,2.5767,2.5388,2.4301,2.332,0.0,0.0,0.0,0.0,0.0,0.0,0.0,0.0,0.0,0.0,0.0,0.0,0.0,0.0,0.0,0.0,0.0,0.0,0.0,0.0,0.0,0.0,0.0,0.0,0.0,0.0,0.0,0.0,0.0,0.0,0.0,0.0,0.0,0.0,0.0,0.0,0.0,0.0,0.0,0.0,0.0,0.0,0.0,0.0,0.0,0.0,0.0,0.0,0.0,0.0,0.0,0.0,0.0,0.0,0.0,0.0,0.0,0.0,0.0,0.0,0.0,0.0,0.0,0.0,0.0,0.0,0.0,0.0,0.0,0.0,0.0,0.0,0.0,0.0,0.0,0.0,0.0,0.0,0.0,0.0,0.0,0.0,0.0,0.0,0.0,0.0,0.0,0.0,0.0,0.0,0.0,0.0,0.0,0.0,0.0,0.0,0.0,0.0,0.0,0.0,0.0,0.0,0.0,0.0,0.0,0.0,0.0,0.0,0.0,2.8133,2.8376,2.7985,2.6888,2.568,2.4794,0.0,0.0,0.0,0.0,0.0,0.0,0.0,0.0,0.0,0.0,0.0,0.0,0.0,0.0,0.0,0.0,0.0,0.0,0.0,0.0,0.0,0.0,0.0,0.0,0.0,0.0,0.0,0.0,0.0,0.0,0.0,0.0,0.0,0.0,0.0,0.0,0.0,0.0,0.0,0.0,0.0,0.0,0.0,0.0,0.0,0.0,0.0,0.0,0.0,0.0,0.0,0.0,0.0,0.0,0.0,0.0,0.0,0.0,0.0,0.0,0.0,0.0,0.0,0.0,0.0,0.0,0.0,0.0,0.0,0.0,0.0,0.0,0.0,0.0,0.0,0.0,0.0,0.0,0.0,0.0,0.0,0.0,0.0,0.0,0.0,0.0,0.0,0.0,0.0,0.0,0.0,0.0,0.0,0.0,0.0,0.0,0.0,0.0,0.0,0.0,0.0,0.0,0.0,0.0,0.0,0.0,0.0,0.0,2.87,2.959,3.0365,3.0262,2.924,2.7623,2.6463,0.0,0.0,0.0,0.0,0.0,0.0,0.0,0.0,0.0,0.0,0.0,0.0,0.0,0.0,0.0,0.0,0.0,0.0,0.0,0.0,0.0,0.0,0.0,0.0,0.0,0.0,0.0,0.0,0.0,0.0,0.0,0.0,0.0,0.0,0.0,0.0,0.0,0.0,0.0,0.0,0.0,0.0,0.0,0.0,0.0,0.0,0.0,0.0,0.0,0.0,0.0,0.0,0.0,0.0,0.0,0.0,0.0,0.0,0.0,0.0,0.0,0.0,0.0,0.0,0.0,0.0,0.0,0.0,0.0,0.0,0.0,0.0,0.0,0.0,0.0,0.0,0.0,0.0,0.0,0.0,0.0,0.0,0.0,0.0,0.0,0.0,0.0,0.0,0.0,0.0,0.0,0.0,0.0,0.0,0.0,0.0,0.0,0.0,0.0,0.0,0.0,0.0,0.0,0.0,0.0,0.0,0.0,0.0,2.9991,3.0772,3.1914,3.2265,3.1737,2.9761,2.8166,0.0,0.0,0.0,0.0,0.0,0.0,0.0,0.0,0.0,0.0,0.0,0.0,0.0,0.0,0.0,0.0,0.0,0.0,0.0,0.0,0.0,0.0,0.0,0.0,0.0,0.0,0.0,0.0,0.0,0.0,0.0,0.0,0.0,0.0,0.0,0.0,0.0,0.0,0.0,0.0,0.0,0.0,0.0,0.0,0.0,0.0,0.0,0.0,0.0,0.0,0.0,0.0,0.0,0.0,0.0,0.0,0.0,0.0,0.0,0.0,0.0,0.0,0.0,0.0,0.0,0.0,0.0,0.0,0.0,0.0,0.0,0.0,0.0,0.0,0.0,0.0,0.0,0.0,0.0,0.0,0.0,0.0,0.0,0.0,0.0,0.0,0.0,0.0,0.0,0.0,0.0,0.0,0.0,0.0,0.0,0.0,0.0,0.0,0.0,0.0,0.0,0.0,0.0,0.0,0.0,0.0,0.0,0.0,3.0772,3.1468,3.2148,3.2465,3.2336,3.0961,2.9544,0.0,0.0,0.0,0.0,0.0,0.0,0.0,0.0,0.0,0.0,0.0,0.0,0.0,0.0,0.0,0.0,0.0,0.0,0.0,0.0,0.0,0.0,0.0,0.0,0.0,0.0,0.0,0.0,0.0,0.0,0.0,0.0,0.0,0.0,0.0,0.0,0.0,0.0,0.0,0.0,0.0,0.0,0.0,0.0,0.0,0.0,0.0,0.0,2.2231,0.0,0.0,0.0,0.0,0.0,0.0,0.0,0.0,0.0,0.0,0.0,0.0,0.0,0.0,0.0,0.0,0.0,0.0,0.0,0.0,0.0,0.0,0.0,0.0,0.0,0.0,0.0,0.0,0.0,0.0,0.0,0.0,0.0,0.0,0.0,0.0,0.0,0.0,0.0,0.0,0.0,0.0,0.0,0.0,0.0,0.0,0.0,0.0,0.0,0.0,0.0,0.0,0.0,0.0,0.0,0.0,0.0,0.0,0.0,3.1827,3.2769,3.3434,3.3589,3.3197,3.2472,3.1184,0.0,0.0,0.0,0.0,0.0,0.0,0.0,0.0,0.0,0.0,0.0,0.0,0.0,0.0,0.0,0.0,0.0,0.0,0.0,0.0,0.0,0.0,0.0,0.0,0.0,0.0,0.0,0.0,0.0,0.0,0.0,0.0,0.0,0.0,0.0,0.0,0.0,0.0,0.0,0.0,0.0,0.0,0.0,0.0,0.0,0.0,0.0,0.0,0.0,0.0,0.0,0.0,0.0,0.0,0.0,0.0,0.0,0.0,0.0,0.0,0.0,0.0,0.0,0.0,0.0,0.0,0.0,0.0,0.0,0.0,0.0,0.0,0.0,0.0,0.0,0.0,0.0,0.0,0.0,0.0,0.0,0.0,0.0,0.0,0.0,0.0,0.0,0.0,0.0,0.0,0.0,0.0,0.0,0.0,0.0,0.0,0.0,0.0,0.0,0.0,0.0,0.0,0.0,0.0,0.0,0.0,0.0,3.1727,3.3109,3.4186,3.4969,3.5041,3.439,3.3986,3.2784,3.0674,0.0,0.0,0.0,0.0,0.0,0.0,0.0,0.0,0.0,0.0,0.0,0.0,0.0,0.0,0.0,0.0,0.0,0.0,0.0,0.0,0.0,0.0,0.0,0.0,0.0,0.0,0.0,0.0,0.0,0.0,0.0,0.0,0.0,0.0,0.0,0.0,0.0,0.0,2.179,2.2996,0.0,0.0,0.0,0.0,0.0,0.0,0.0,0.0,2.6918,0.0,0.0,0.0,0.0,0.0,0.0,0.0,0.0,0.0,0.0,0.0,0.0,0.0,0.0,0.0,0.0,0.0,0.0,0.0,0.0,0.0,0.0,0.0,0.0,0.0,0.0,0.0,0.0,0.0,0.0,0.0,0.0,0.0,0.0,0.0,0.0,0.0,0.0,0.0,0.0,0.0,0.0,0.0,0.0,0.0,0.0,0.0,0.0,0.0,0.0,0.0,0.0,0.0,0.0,0.0,0.0,3.1099,3.3499,3.4871,3.5102,3.5807,3.6125,3.599,3.5096,3.3914,3.2367,0.0,0.0,0.0,0.0,0.0,0.0,0.0,0.0,0.0,0.0,0.0,0.0,0.0,0.0,0.0,0.0,0.0,0.0,0.0,0.0,0.0,0.0,0.0,0.0,0.0,0.0,0.0,0.0,0.0,0.0,0.0,0.0,0.0,0.0,0.0,0.0,0.0,0.0,0.0,2.4503,2.5597,0.0,0.0,0.0,0.0,0.0,0.0,0.0,0.0,2.9319,0.0,0.0,0.0,0.0,0.0,0.0,0.0,0.0,0.0,0.0,0.0,0.0,0.0,0.0,0.0,0.0,0.0,0.0,0.0,0.0,0.0,0.0,0.0,0.0,0.0,0.0,0.0,0.0,0.0,0.0,0.0,0.0,0.0,0.0,0.0,0.0,0.0,0.0,0.0,0.0,0.0,0.0,0.0,0.0,0.0,0.0,0.0,0.0,0.0,0.0,0.0,0.0,0.0,0.0,0.0,3.2401,3.4327,3.5624,3.6309,3.6801,3.6961,3.6862,3.5912,3.4928,0.0,0.0,0.0,0.0,0.0,0.0,0.0,0.0,0.0,0.0,0.0,0.0,0.0,0.0,0.0,0.0,0.0,0.0,0.0,0.0,0.0,0.0,0.0,0.0,0.0,0.0,0.0,0.0,0.0,0.0,0.0,0.0,0.0,0.0,0.0,0.0,0.0,0.0,0.0,0.0,2.6194,2.7212,2.7772,0.0,0.0,0.0,0.0,0.0,0.0,3.0685,3.075,0.0,0.0,0.0,0.0,0.0,0.0,0.0,0.0,0.0,0.0,0.0,0.0,0.0,0.0,0.0,0.0,0.0,0.0,0.0,0.0,0.0,0.0,0.0,0.0,0.0,0.0,0.0,0.0,0.0,0.0,0.0,0.0,0.0,0.0,0.0,0.0,0.0,0.0,0.0,0.0,0.0,0.0,0.0,0.0,0.0,0.0,0.0,0.0,0.0,0.0,0.0,0.0,0.0,0.0,0.0,3.3818,3.5332,3.6628,3.7665,3.7916,3.7941,3.7778,3.6785,3.5817,0.0,0.0,0.0,0.0,0.0,0.0,0.0,0.0,0.0,0.0,0.0,0.0,0.0,0.0,0.0,0.0,0.0,0.0,0.0,0.0,0.0,0.0,0.0,0.0,0.0,0.0,0.0,0.0,0.0,0.0,0.0,0.0,0.0,0.0,0.0,0.0,0.0,0.0,0.0,0.0,0.0,2.8662,2.9717,2.9918,0.0,0.0,0.0,0.0,3.1858,3.2076,0.0,0.0,0.0,0.0,0.0,0.0,0.0,0.0,0.0,0.0,0.0,0.0,0.0,0.0,0.0,0.0,0.0,0.0,0.0,0.0,0.0,0.0,0.0,0.0,0.0,0.0,0.0,0.0,0.0,0.0,0.0,0.0,0.0,0.0,0.0,0.0,0.0,0.0,0.0,0.0,0.0,0.0,0.0,0.0,0.0,0.0,0.0,0.0,0.0,0.0,0.0,0.0,0.0,0.0,0.0,0.0,3.5376,3.7653,3.8908,3.9072,3.9329,3.9458,3.9394,3.789,3.6453,0.0,0.0,0.0,0.0,0.0,0.0,0.0,0.0,0.0,0.0,0.0,0.0,0.0,0.0,0.0,0.0,0.0,0.0,0.0,0.0,0.0,0.0,0.0,0.0,0.0,0.0,0.0,0.0,0.0,0.0,0.0,0.0,0.0,0.0,0.0,0.0,0.0,0.0,0.0,0.0,0.0,2.9775,3.1216,3.1623,3.2169,0.0,0.0,3.3182,3.3925,3.3648,0.0,0.0,0.0,0.0,0.0,0.0,0.0,0.0,0.0,0.0,0.0,0.0,0.0,0.0,0.0,0.0,0.0,0.0,0.0,0.0,0.0,0.0,0.0,0.0,0.0,0.0,0.0,0.0,0.0,0.0,0.0,0.0,0.0,0.0,0.0,0.0,0.0,0.0,0.0,0.0,0.0,0.0,0.0,0.0,0.0,0.0,0.0,0.0,0.0,0.0,0.0,0.0,0.0,0.0,0.0,3.4844,3.6775,3.845,3.9686,4.0416,4.0547,4.0462,4.0161,3.9145,3.7915,0.0,0.0,0.0,0.0,0.0,0.0,0.0,0.0,0.0,0.0,0.0,0.0,0.0,0.0,0.0,0.0,0.0,0.0,0.0,0.0,0.0,0.0,0.0,0.0,0.0,0.0,0.0,0.0,0.0,0.0,0.0,0.0,0.0,0.0,0.0,0.0,0.0,0.0,0.0,0.0,0.0,0.0,3.2164,3.2818,0.0,0.0,0.0,3.4157,3.4896,0.0,0.0,0.0,0.0,0.0,0.0,0.0,0.0,0.0,0.0,0.0,0.0,0.0,0.0,0.0,0.0,0.0,0.0,0.0,0.0,0.0,0.0,0.0,0.0,0.0,0.0,0.0,0.0,0.0,0.0,0.0,0.0,0.0,0.0,0.0,0.0,0.0,0.0,0.0,0.0,0.0,0.0,0.0,0.0,0.0,0.0,0.0,0.0,0.0,0.0,0.0,0.0,0.0,0.0,0.0,0.0,0.0,3.8166,3.9263,4.034,4.1478,4.1517,4.1316,4.0927,4.0124,0.0,0.0,0.0,0.0,0.0,0.0,0.0,0.0,0.0,0.0,0.0,0.0,0.0,0.0,0.0,0.0,0.0,0.0,0.0,0.0,0.0,0.0,0.0,0.0,0.0,0.0,0.0,2.6126,0.0,0.0,0.0,0.0,0.0,0.0,0.0,0.0,0.0,0.0,0.0,0.0,0.0,0.0,3.2104,3.323,3.3911,3.4438,0.0,0.0,3.5083,3.5633,3.528,3.4778,0.0,0.0,0.0,0.0,0.0,0.0,0.0,0.0,0.0,0.0,0.0,0.0,0.0,0.0,0.0,0.0,0.0,0.0,0.0,0.0,0.0,0.0,0.0,0.0,0.0,0.0,0.0,0.0,0.0,0.0,0.0,0.0,0.0,0.0,0.0,0.0,0.0,0.0,0.0,0.0,0.0,0.0,0.0,0.0,0.0,0.0,0.0,0.0,0.0,0.0,0.0,0.0,0.0,0.0,3.7081,3.9496,4.0637,4.1464,4.2123,4.2149,4.2123,4.2073,4.0552,3.917,0.0,0.0,0.0,0.0,0.0,0.0,0.0,0.0,0.0,0.0,0.0,0.0,0.0,0.0,0.0,0.0,0.0,0.0,0.0,0.0,0.0,0.0,0.0,0.0,0.0,0.0,0.0,0.0,0.0,0.0,0.0,0.0,0.0,0.0,0.0,0.0,0.0,0.0,0.0,0.0,0.0,3.2505,3.4718,3.5095,3.5399,0.0,3.6281,3.6281,3.6343,3.5844,3.5433,3.5419,0.0,0.0,0.0,0.0,0.0,0.0,0.0,0.0,0.0,0.0,0.0,0.0,0.0,0.0,0.0,0.0,0.0,0.0,0.0,0.0,0.0,0.0,0.0,0.0,0.0,0.0,0.0,0.0,0.0,0.0,0.0,0.0,0.0,0.0,0.0,0.0,0.0,0.0,0.0,0.0,0.0,0.0,0.0,0.0,0.0,0.0,0.0,0.0,0.0,0.0,0.0,0.0,0.0,3.8216,4.0161,4.1292,4.2135,4.2663,4.2688,4.2512,4.2213,4.157,4.0715,0.0,0.0,0.0,0.0,0.0,0.0,0.0,0.0,0.0,0.0,0.0,0.0,0.0,0.0,0.0,0.0,0.0,0.0,0.0,0.0,0.0,0.0,0.0,0.0,0.0,0.0,0.0,0.0,3.0801,3.1104,3.1451,0.0,0.0,0.0,0.0,0.0,0.0,0.0,0.0,0.0,0.0,3.4828,3.6076,3.6631,0.0,0.0,3.7374,3.7374,3.7387,3.7199,3.6923,3.6597,3.5741,0.0,0.0,0.0,0.0,0.0,0.0,0.0,0.0,0.0,0.0,0.0,0.0,0.0,0.0,0.0,0.0,0.0,0.0,0.0,0.0,0.0,0.0,0.0,0.0,0.0,0.0,0.0,0.0,0.0,0.0,0.0,0.0,0.0,0.0,0.0,0.0,0.0,0.0,0.0,0.0,0.0,0.0,0.0,0.0,0.0,0.0,0.0,0.0,0.0,0.0,0.0,0.0,3.8906,4.0725,4.1845,4.2688,4.324,4.3388,4.3226,4.2688,4.2526,4.1895,0.0,0.0,0.0,0.0,0.0,0.0,0.0,0.0,0.0,0.0,0.0,0.0,0.0,0.0,0.0,0.0,0.0,0.0,0.0,0.0,0.0,0.0,0.0,0.0,0.0,0.0,0.0,0.0,3.2314,3.2413,3.2091,0.0,0.0,0.0,0.0,0.0,0.0,0.0,0.0,0.0,0.0,3.651,3.7156,3.7665,3.799,3.799,3.799,3.799,3.799,3.799,3.7889,3.75,0.0,0.0,0.0,0.0,0.0,0.0,0.0,0.0,0.0,0.0,0.0,0.0,0.0,0.0,0.0,0.0,0.0,0.0,0.0,0.0,0.0,0.0,0.0,0.0,0.0,0.0,0.0,3.3772,0.0,0.0,3.306,0.0,0.0,0.0,0.0,0.0,0.0,0.0,0.0,0.0,0.0,0.0,0.0,0.0,0.0,0.0,0.0,0.0,0.0,0.0,0.0,0.0,0.0,3.9119,4.1264,4.2409,4.3251,4.3765,4.4303,4.4278,4.3765,4.3277,4.2459,4.1339,0.0,0.0,0.0,0.0,0.0,0.0,0.0,0.0,0.0,0.0,0.0,0.0,0.0,0.0,0.0,0.0,0.0,0.0,0.0,0.0,0.0,0.0,0.0,0.0,0.0,0.0,3.4455,3.4616,3.419,0.0,0.0,0.0,0.0,0.0,0.0,0.0,0.0,0.0,0.0,3.6883,3.7168,3.7928,3.804,3.8115,3.8065,3.8053,3.804,3.809,3.8053,3.8002,0.0,0.0,0.0,0.0,0.0,0.0,0.0,0.0,0.0,0.0,0.0,0.0,0.0,0.0,0.0,0.0,0.0,0.0,0.0,0.0,0.0,0.0,0.0,0.0,0.0,0.0,0.0,3.6291,3.6074,0.0,0.0,0.0,0.0,0.0,0.0,0.0,0.0,0.0,0.0,0.0,3.9609,3.97,0.0,0.0,0.0,0.0,0.0,0.0,0.0,0.0,0.0,0.0,0.0,0.0,4.0576,4.2372,4.3176,4.379,4.4328,4.4503,4.4529,4.4313,4.4138,4.3564,4.2473,0.0,0.0,0.0,0.0,0.0,0.0,0.0,0.0,0.0,0.0,0.0,0.0,0.0,0.0,0.0,0.0,0.0,0.0,0.0,0.0,0.0,0.0,0.0,0.0,0.0,3.4625,0.0,0.0,0.0,0.0,0.0,0.0,0.0,0.0,0.0,0.0,0.0,3.6535,3.8029,3.8842,3.9506,4.0097,4.0198,4.0198,0.0,0.0,0.0,0.0,0.0,0.0,0.0,0.0,0.0,0.0,0.0,0.0,0.0,0.0,3.7563,3.6105,3.5828,3.5817,3.5828,0.0,0.0,0.0,0.0,0.0,0.0,0.0,0.0,0.0,0.0,0.0,0.0,0.0,0.0,3.8977,0.0,3.8712,0.0,0.0,0.0,0.0,0.0,0.0,0.0,0.0,4.2047,4.2502,4.2528,4.2618,4.2384,0.0,4.2085,4.1106,0.0,0.0,0.0,0.0,0.0,0.0,0.0,0.0,4.1806,4.3226,4.4005,4.4568,4.4905,4.5106,4.5106,4.4905,4.469,4.4116,4.3039,4.1932,4.0777,0.0,0.0,0.0,0.0,0.0,0.0,0.0,0.0,0.0,0.0,0.0,0.0,0.0,0.0,0.0,0.0,0.0,0.0,0.0,0.0,0.0,0.0,0.0,3.6006,0.0,0.0,0.0,0.0,0.0,0.0,0.0,0.0,0.0,3.648,3.7292,3.8342,3.9584,4.0337,4.0901,4.1239,0.0,0.0,0.0,0.0,0.0,0.0,0.0,4.174,4.174,4.1709,4.1676,4.1676,4.1372,4.1158,4.1158,0.0,0.0,3.8001,3.7537,3.7537,3.7549,3.7675,3.7939,3.8278,3.8768,3.9245,0.0,0.0,0.0,0.0,0.0,0.0,0.0,0.0,4.1089,4.1565,0.0,4.1675,0.0,0.0,0.0,0.0,0.0,4.2597,0.0,0.0,4.5524,4.6132,4.6145,4.633,4.5804,4.4579,4.5006,4.4789,4.3883,4.1852,0.0,0.0,0.0,0.0,0.0,0.0,4.2802,4.384,4.4934,4.5487,4.5522,4.6024,4.6035,4.5537,4.4955,4.4166,4.3165,4.3065,4.2258,4.0638,3.9597,0.0,0.0,0.0,0.0,0.0,0.0,0.0,0.0,0.0,0.0,0.0,0.0,0.0,0.0,0.0,0.0,0.0,0.0,0.0,0.0,3.7462,0.0,0.0,0.0,0.0,0.0,0.0,0.0,0.0,0.0,0.0,3.8982,3.9472,4.0174,4.1252,0.0,0.0,0.0,0.0,4.1428,4.1466,4.1441,4.148,4.148,4.218,4.2752,4.2739,0.0,0.0,4.4008,4.4008,4.3982,4.3994,4.3982,4.3138,4.0458,3.9951,3.9862,3.9862,4.0239,4.0577,4.0678,4.1083,4.1458,4.4145,0.0,0.0,0.0,0.0,4.3802,4.4133,4.4006,4.4613,4.4798,4.4678,4.4519,0.0,0.0,0.0,0.0,0.0,0.0,4.5582,4.6499,4.6871,4.7243,4.7656,4.7307,4.6918,4.6557,4.6702,4.6634,4.6366,4.5761,4.4552,4.2846,0.0,0.0,0.0,0.0,4.4132,4.4974,4.5336,4.5688,4.6075,4.621,4.625,4.6075,4.5522,4.511,4.4784,4.4367,4.3575,4.2347,4.1632,0.0,0.0,0.0,0.0,0.0,0.0,0.0,0.0,0.0,0.0,0.0,0.0,0.0,0.0,0.0,0.0,0.0,0.0,0.0,3.922,3.9245,3.9107,0.0,0.0,0.0,0.0,0.0,0.0,0.0,0.0,0.0,4.2059,4.1781,4.1884,0.0,0.0,4.3661,4.3661,4.386,4.4015,4.4001,4.4212,0.0,4.4353,4.4776,4.5103,4.5091,4.547,4.5873,4.6318,4.6396,4.641,4.6384,4.641,4.5975,4.4808,4.3521,4.2764,4.2711,4.2825,4.308,4.3477,4.3706,4.3883,4.7731,4.6154,4.5783,4.5675,4.5816,4.6455,4.6608,4.6455,4.6726,4.6795,4.6703,4.6476,4.6383,4.6343,4.6223,0.0,0.0,0.0,4.8095,4.8998,4.938,4.9734,5.0045,4.9693,4.9596,4.97,4.9712,4.9776,4.9891,4.9891,4.9127,4.7531,0.0,0.0,4.5318,4.5548,4.5937,4.6533,4.6756,4.705,4.7349,4.7349,4.7374,4.7349,4.6832,4.6427,4.6214,4.5613,4.4929,4.4046,4.3405,4.2212,0.0,0.0,0.0,0.0,0.0,0.0,0.0,0.0,0.0,0.0,0.0,3.3861,3.5392,0.0,0.0,0.0,3.966,4.0703,4.1128,4.1091,0.0,0.0,0.0,0.0,0.0,0.0,0.0,4.2208,4.2815,4.3618,4.482,4.454,4.4291,4.4505,4.4792,4.498,4.498,0.0,4.5468,4.5482,4.5754,4.5964,4.5978,4.6415,4.6879,4.7255,4.7539,4.7843,4.8175,4.834,4.8383,4.8324,4.8254,4.8185,4.7937,4.7019,4.5963,4.5143,4.4946,4.5061,4.5437,4.5475,4.5579,5.1124,5.0987,4.9382,4.8938,4.932,4.8814,4.8615,4.8561,4.8067,4.8149,4.859,4.8081,4.8274,4.8997,4.8789,0.0,4.8777,5.0145,5.1065,5.1683,5.2519,5.2855,5.2869,5.28,5.2932,5.3149,5.3179,5.3332,5.3555,5.3567,5.3471,5.3072,4.9291,4.7324,4.7268,4.7769,4.8084,4.8259,4.8773,4.9055,4.9055,4.9055,4.9071,4.9071,4.8542,4.8017,4.7518,4.6935,4.6355,4.5819,4.4971,4.4,4.283,0.0,0.0,0.0,0.0,0.0,0.0,0.0,0.0,0.0,0.0,0.0,0.0,0.0,0.0,4.1302,4.2487,0.0,4.2494,4.2922,0.0,0.0,0.0,4.2213,4.2533,4.2626,4.3351,4.5226,0.0,0.0,4.7384,4.7569,4.7252,4.6243,4.5917,4.5819,4.5871,4.6197,4.6347,4.6612,4.6789,4.6961,4.7268,4.7823,4.8611,4.9429,4.9714,5.0009,5.0185,5.0384,5.036,5.0282,5.0063,5.0072,5.0291,5.0167,4.9551,4.7476,4.6987,4.6876,4.6995,4.7007,4.7047,5.3097,5.331,5.3087,5.2195,5.0915,5.1204,5.1351,5.138,5.1486,5.1613,5.1723,5.1586,5.1629,5.1823,5.1771,5.1979,5.242,5.2781,5.3251,5.3803,5.3615,5.3491,5.3463,5.3021,5.2826,5.2892,5.2878,5.2932,5.3011,5.2997,5.2953,5.2825,5.1886,5.0999,5.0285,5.0383,5.0112,4.9481,4.9611,4.969,4.9705,4.969,4.969,4.969,4.9589,4.9459,4.9288,4.8752,4.8194,4.758,4.676,4.5761,4.4638,4.3117,0.0,0.0,0.0,0.0,0.0,0.0,0.0,0.0,0.0,3.758,3.917,0.0,4.1758,0.0,4.3815,4.4649,4.4778,4.4908,0.0,0.0,4.4303,4.4518,4.486,4.5309,4.6014,4.7128,4.7997,4.8841,4.9634,5.0143,5.0428,5.0352,4.8755,4.7748,4.8194,4.8729,4.921,4.9625,5.0128,5.0613,5.0532,5.094,5.1459,5.246,5.2659,5.3019,5.3926,5.4136,5.4166,5.4079,5.3692,5.3332,5.2818,5.2476,5.1995,5.1357,5.0528,4.987,4.987,4.9831,4.9858,5.4705,5.5163,5.5418,5.5077,5.4261,5.3607,5.3347,5.3319,5.3241,5.3201,5.3201,5.333,5.3372,5.3386,5.3528,5.409,5.4918,5.4947,5.5424,5.621,5.5901,5.5761,5.5733,5.5396,5.541,5.5678,5.5706,5.5818,5.6071,5.6099,5.6151,5.6254,5.6017,5.5521,5.4769,5.303,5.1805,5.1158,5.1409,5.1542,5.1542,5.1542,5.1467,5.133,5.1092,5.0899,5.0748,5.0194,4.9734,4.9402,4.8557,4.7675,4.6801,4.5399,4.4039,0.0,0.0,0.0,0.0,0.0,0.0,0.0,0.0,0.0,0.0,0.0,4.4226,4.5027,4.5794,4.641,4.6717,4.6979,4.7115,4.6985,4.7211,4.7513,4.8006,4.8342,4.897,4.996,5.0651,5.1264,5.1864,5.2222,5.2581,5.303,5.1685,5.0574,5.0403,5.0732,5.1146,5.1485,5.1961,5.2309,5.2323,5.2542,5.2869,5.336,5.3703,5.4127,5.477,5.4984,5.507,5.4896,5.4514,5.4145,5.389,5.3523,5.327,5.3444,5.3044,5.2425,5.1851,5.1757,5.1742,5.6563,5.706,5.7384,5.783,5.823,5.6374,5.5393,5.5037,5.4529,5.429,5.4304,5.4559,5.4643,5.4742,5.5009,5.5821,5.6967,5.7067,5.7683,5.8628,5.8758,5.8758,5.8686,5.86,5.8843,5.9403,5.93,5.9499,6.0013,5.9982,6.0071,6.0261,5.975,5.9357,5.8951,5.5599,5.3647,5.3261,5.3794,5.4067,5.4021,5.4079,5.3957,5.3657,5.3046,5.2629,5.24,5.1755,5.1364,5.1278,5.0407,4.9698,4.9167,4.7821,4.65,0.0,4.463,0.0,0.0,0.0,0.0,0.0,0.0,0.0,0.0,4.5503,4.684,4.7998,4.8146,4.8323,4.8647,4.9162,4.9505,4.9665,5.0152,5.0733,5.1354,5.1551,5.2042,5.3083,5.3239,5.3496,5.4092,5.4177,5.4417,5.4966,5.4641,5.3931,5.2981,5.2757,5.2723,5.2736,5.3037,5.3504,5.3602,5.3705,5.3933,5.4074,5.467,5.4785,5.5126,5.5353,5.5352,5.5098,5.4968,5.4711,5.4731,5.4582,5.4532,5.5075,5.5114,5.4634,5.3392,5.3016,5.3049,6.0273,6.039,6.0673,6.085,6.0967,6.0823,5.9538,5.7576,5.749,5.7433,5.7448,5.7492,5.7653,5.793,5.7959,5.8566,5.9523,6.0059,6.0435,6.0652,6.1219,6.1205,6.0713,6.0175,5.9987,6.0074,5.9272,5.8967,5.9067,5.88,5.8665,5.8719,5.862,5.8533,5.8445,0.0,0.0,0.0,5.6492,5.6548,5.6305,5.6548,5.6654,5.6566,5.5965,0.0,5.5485,5.4469,5.3796,5.3492,5.2637,0.0,0.0,0.0,0.0,0.0,0.0,0.0,0.0,0.0,0.0,0.0,4.9237,4.8575,4.5707,4.7104,4.8755,5.0168,5.054,5.0849,5.1184,5.1306,5.1569,5.2068,5.2649,5.3239,5.386,5.4582,5.5164,5.5349,5.5622,5.6022,5.6564,5.6706,5.692,5.7434,5.7505,5.7345,5.7082,5.5589,5.4783,5.5205,5.5463,5.5892,5.6447,5.6461,5.6775,5.783,5.8217,5.8378,5.8707,5.8908,5.9052,5.8863,5.8618,5.8131,5.8199,5.7842,5.7268,5.7555,5.7554,5.6932,5.4749,5.4263,5.4386,6.0955,6.1278,6.1718,6.2101,0.0,6.2912,6.2378,6.1123,6.0498,6.0251,6.0236,6.0207,6.0325,6.0486,6.0107,6.0604,6.1628,6.1628,6.1994,6.2639,6.2961,6.2991,6.2669,6.2347,6.2171,6.2156,6.167,6.1434,6.1405,6.1256,6.1311,6.1587,6.1311,6.1311,6.1572,6.1311,5.9975,5.7608,5.7773,5.7773,5.7608,5.7758,5.7773,5.7638,5.7313,0.0,0.0,0.0,0.0,0.0,0.0,0.0,0.0,0.0,0.0,5.169,5.1374,5.1084,5.0823,5.1071,5.1306,5.1474,5.2418,5.1868,4.9139,4.9879,5.0862,5.1749,5.2109,5.2675,5.3572,5.3671,5.4125,5.5193,5.5706,5.6153,5.6633,5.7238,5.7628,5.7642,5.7787,5.8061,5.8494,5.8523,5.8871,5.9568,5.9437,5.9364,5.9466,5.7987,5.6834,5.7104,5.7235,5.7437,5.7781,5.8027,5.823,5.8905,5.9196,5.9414,5.9702,5.9745,5.9745,5.9716,5.9368,5.9077,5.9034,5.8643,5.8281,5.8281,5.8281,5.799,5.6641,5.6438,5.6509,6.173,6.2277,6.2751,6.3283,6.3845,6.4363,6.4614,6.4526,0.0,0.0,0.0,6.2544,6.2573,6.2573,6.2056,6.2381,6.3386,6.2987,6.3386,6.4422,6.4555,6.4614,6.4614,6.4496,6.4422,6.4422,6.4243,6.4184,6.4169,6.4123,6.4343,6.4755,6.4343,6.4343,6.4785,6.4328,6.2521,5.9499,5.934,5.9208,5.8974,5.9019,5.8886,5.8502,5.8373,5.8168,5.7898,5.7798,5.7727,5.7653,5.7173,5.6635,5.6025,5.5517,5.4923,5.4187,5.4116,5.4088,5.4102,5.4102,5.4217,5.4488,5.5025,5.4693,5.3154,5.3111,5.3284,5.367,5.3944,5.4652,5.597,5.6084,5.667,5.8075,5.8514,5.8866,5.9319,5.9742,6.0005,5.9947,5.9888,5.9888,6.0092,6.0003,6.0324,6.1041,6.085,6.0686,6.0968,5.9743,5.8564,5.8622,5.8637,5.8679,5.8851,5.9086,5.9232,5.9552,5.9844,5.9961,5.9961,6.0063,6.0136,6.0485,5.993,5.9884,5.9723,5.9675,5.9221,5.9161,5.9131,5.9131,5.9146,5.9175,5.9014,6.604,6.6204,6.6279,6.6368,6.6458,6.6547,6.6607,6.6442,6.4631,6.3827,6.3827,6.3842,6.4008,6.4248,6.4159,6.4353,6.4755,6.5248,6.5577,6.5756,6.6338,6.6577,6.6547,6.601,6.5726,6.5681,6.4933,6.4515,6.4485,6.4259,6.4152,6.424,6.4152,6.4181,6.4196,6.4152,6.3825,6.3305,6.3276,6.2725,6.1596,6.1867,6.159,6.0767,6.0202,5.9854,5.981,5.9332,5.8912,5.8605,5.8547,5.8315,5.792,5.782,5.7719,5.759,5.759,5.7575,5.7561,5.759,5.759,5.7663,5.7984,5.7564,5.6071,5.6177,5.6579,5.7104,5.7314,5.7765,5.8302,5.8303,5.8637,5.9379,6.002,6.0692,6.1513,6.213,6.2484,6.2439,6.2072,6.1689,6.1718,6.1379,6.1335,6.1836,6.2042,6.1909,6.185,6.0821,6.003,5.9927,5.9927,6.0176,6.0647,6.0822,6.1057,6.1571,6.2071,6.2351,6.2351,6.2703,6.2998,6.3308,6.3012,6.2965,6.2781,6.2896,6.2449,6.2162,6.2041,6.2128,6.2039,6.2083,6.1585,6.5906,6.5966,6.6311,6.646,6.646,6.6864,6.6999,6.6924,6.6051,6.5661,6.5661,6.5676,6.5767,6.5859,6.5501,6.5636,6.6101,6.6041,6.6176,6.655,6.6849,6.6999,6.6969,6.667,6.655,6.6505,6.6114,6.5904,6.5889,6.5767,6.5661,6.5661,6.5661,6.5676,6.5676,6.5676,6.5661,6.5646,6.4614,6.3794,6.3212,6.3333,6.3216,6.2786,6.2449,6.2318,6.2318,6.2054,6.1819,6.1684,6.1684,6.1274,6.0412,6.022,5.9812,5.9117,5.8898,5.8983,5.93,5.9825,6.0365,6.0848,6.1055,6.101,6.0679,5.9259,5.8595,5.884,5.9146,5.9524,6.0049,6.0384,6.0852,6.1483,6.2293,6.2972,6.3387,6.3847,6.4085,6.3921,6.3639,6.3461,6.3446,6.3209,6.3194,6.358,6.3684,6.3639,6.3654,6.3179,6.2527,6.1983,6.2086,6.2426,6.2706,6.275,6.2913,6.3178,6.3429,6.3606,6.3635,6.3975,6.4063,6.4078,6.4122,6.4032,6.3924,6.3726,6.3558,6.3435,6.3188,6.3111,6.3125,6.3125,6.2668,6.5906,6.5966,6.6445,6.667,6.6714,6.7238,6.7448,6.7448,6.7448,6.7463,6.7418,6.7164,6.6999,6.6939,6.646,6.652,6.6894,6.646,6.658,6.7178,6.7224,6.7313,6.7433,6.7448,6.7463,6.7448,6.7448,6.7448,6.7448,6.7463,6.7448,6.7463,6.7448,6.7463,6.7463,6.7313,6.7224,6.7133,6.5586,6.4644,6.4435,6.4435,6.4301,6.4093,6.4078,6.4078,6.4078,6.4078,6.4078,6.4078,6.4078,6.3606,6.2647,6.2365,6.1762,6.0794,6.0487,6.0588,6.1084,6.1789,6.2541,6.3251,6.34,6.3652,6.3947,6.2234,6.0822,6.075,6.0983,6.1379,6.1909,6.2367,6.2913,6.349,6.4218,6.4636,6.4904,6.5114,6.5263,6.5142,6.5008,6.4889,6.4889,6.477,6.4681,6.483,6.4994,6.4994,6.4994,6.5084,6.4755,6.4173,6.4097,6.4201,6.429,6.4245,6.4231,6.429,6.4438,6.4557,6.4617,6.4646,6.4794,6.4913,6.4868,6.4867,6.4701,6.4518,6.4348,6.4284,6.405,6.3743,6.3663,6.3647,6.337,6.8585,6.8645,6.8599,6.8734,6.8645,6.8734,6.878,6.8764,6.8794,6.8824,6.8645,6.7537,6.7029,6.6969,6.6939,6.6999,6.7059,6.6954,6.7284,6.7868,6.7912,6.8241,6.8734,6.8764,6.8824,6.8764,6.8734,6.8704,6.8704,6.8734,6.8794,6.8824,6.8824,6.878,6.875,6.8211,6.7928,6.7898,6.7132,6.6306,6.5436,6.5376,6.4973,6.4122,6.4122,6.4078,6.4212,6.4078,6.4093,6.4078,6.4167,6.4063,6.3931,6.387,6.3812,6.362,6.3604,6.3678,6.3707,6.3826,6.3915,6.402,6.432,6.453,6.4605,6.4532,6.4249,6.38,6.3665,6.3741,6.4248,6.4308,6.4412,6.4696,6.492,6.5189,6.5742,6.5891,6.6116,6.6729,6.6145,6.5861,6.5786,6.5413,6.5069,6.5203,6.5248,6.5248,6.5278,6.5607,6.5906,6.5607,6.5323,6.4994,6.4979,6.4935,6.5024,6.5039,6.5442,6.5666,6.5785,6.6173,6.6698,6.6171,6.6487,6.635,6.6225,6.6205,6.6006,6.5505,6.5283,6.5086,6.4904,6.4722,6.4344,6.9004,6.9004,6.9004,6.9004,6.9004,6.9004,6.9004,6.9004,6.9004,6.9004,6.8944,6.8405,6.8166,6.8181,6.8181,6.8196,6.8166,6.8196,6.8315,6.8571,6.86,6.875,6.8974,6.9004,6.9004,6.9004,6.9004,6.9004,6.9004,6.9004,6.9004,6.9004,6.9004,6.9004,6.8974,6.872,6.86,6.8585,6.8315,6.7984,6.7516,6.6785,6.6216,6.5871,6.5811,6.5796,6.5796,6.5796,6.5811,6.5796,6.5826,6.5618,6.5245,6.5049,6.475,6.4439,6.4553,6.4699,6.4927,6.5298,6.5627,6.5811,6.5948,6.6024,6.6024,6.6115,6.607,6.5782,6.5112,6.4695,6.489,6.5188,6.5487,6.5622,6.5936,6.6311,6.652,6.658,6.6729,6.6939,6.6759,6.658,6.655,6.637,6.6221,6.6176,6.6191,6.6191,6.6221,6.643,6.655,6.655,6.634,6.6221,6.6191,6.6176,6.6191,6.6221,6.64,6.658,6.6654,6.6759,6.6969,6.7029,6.7089,6.7058,6.677,6.6614,6.6444,6.627,6.5851,6.5443,6.5317,6.5126,6.4724,6.9512,6.9512,6.9512,6.9512,6.9512,6.9512,6.9512,6.9512,6.9542,6.9542,6.9512,6.9512,6.9512,6.9482,6.9183,6.9004,6.9004,6.9004,6.9123,6.9243,6.9273,6.9363,6.9512,6.9512,6.9512,6.9542,6.9542,6.9542,6.9542,6.9542,6.9512,6.9542,6.9512,6.9512,6.9512,6.9393,6.9273,6.9243,6.9123,6.9004,6.8854,6.8046,6.7448,6.7313,6.7284,6.7194,6.6999,6.6999,6.6999,6.6999,6.6999,6.6789,6.634,6.6038,6.5708,6.535,6.5419,6.564,6.5901,6.6377,6.6753,6.6968,6.6999,6.7104,6.7224,6.7284,6.7358,6.7462,6.667,6.6116,6.5877,6.6281,6.661,6.6804,6.7268,6.7553,6.7583,6.7537,6.7567,6.7553,6.7627,6.7537,6.7537,6.7567,6.7567,6.7537,6.7553,6.7553,6.7553,6.7583,6.7583,6.7537,6.7537,6.7463,6.7343,6.7224,6.7313,6.7537,6.7613,6.7597,6.7537,6.7567,6.7567,6.7926,6.7643,6.7597,6.7745,6.7439,6.7089,6.6934,6.6532,6.6066,6.6016,6.5569,6.5203,7.0829,7.0799,7.0783,7.0739,7.0799,7.0769,7.0753,7.0663,7.0723,7.0753,7.0693,7.0739,7.0799,7.0679,6.9602,6.9034,6.9034,6.9093,6.9439,6.9917,6.9947,7.026,7.0799,7.0829,7.0769,7.0649,7.0649,7.0679,7.0693,7.0769,7.0829,7.0753,7.0693,7.0769,7.0649,7.0171,6.9947,6.9887,6.9439,6.9064,6.9064,6.8974,6.8615,6.8077,6.7958,6.7673,6.7148,6.7029,6.7029,6.7029,6.7089,6.7044,6.6984,6.6954,6.6938,6.6863,6.6893,6.6923,6.6938,6.7028,6.7073,6.7059,6.7148,6.7313,6.7898,6.7942,6.8181,6.8794,6.8585,6.8315,6.7882,6.7762,6.8062,6.8555,6.8764,6.8794,6.8824,6.8704,6.8884,6.8824,6.8734,6.8675,6.8778,6.8914,6.8764,6.8764,6.8824,6.8794,6.8704,6.8794,6.8764,6.8734,6.8734,6.8675,6.8122,6.7972,6.8241,6.8421,6.8481,6.878,6.8884,6.8914,6.8854,6.8794,6.8645,6.8615,6.8808,6.8745,6.85,6.8194,6.7666,6.7265,6.6969,6.6122,6.5815,7.0903,7.0903,7.0903,7.0903,7.0903,7.0903,7.0903,7.0903,7.0903,7.0903,7.0903,7.0903,7.0903,7.0889,7.044,7.0214,7.0201,7.0231,7.035,7.056,7.056,7.0679,7.0873,7.0903,7.0903,7.0903,7.0903,7.0903,7.0903,7.0903,7.0903,7.0903,7.0903,7.0903,7.0843,7.0679,7.059,7.0576,7.032,7.0214,7.0171,7.0231,6.9901,6.9289,6.887,6.8525,6.8286,6.8286,6.8286,6.8301,6.8286,6.8301,6.8286,6.8286,6.8286,6.8286,6.8286,6.8286,6.8256,6.8301,6.8286,6.8286,6.8286,6.8315,6.8585,6.8645,6.8734,6.8974,6.9004,6.9019,6.9199,6.89,6.8734,6.8944,6.9004,6.9064,6.9004,6.9004,6.9004,6.9004,6.9004,6.9004,6.9093,6.9004,6.9004,6.9004,6.9004,6.9034,6.9004,6.9004,6.9064,6.9004,6.9004,6.9093,6.9379,6.887,6.875,6.8854,6.8944,6.8974,6.9064,6.9153,6.9093,6.9153,6.9183,6.9213,6.9227,6.9211,6.9102,6.8951,6.8496,6.8219,6.7983,6.7237,6.7019,7.1547,7.1531,7.1547,7.1547,7.1547,7.1547,7.1531,7.1547,7.1547,7.1531,7.1531,7.1547,7.1531,7.1531,7.1531,7.1547,7.1487,7.1128,7.0903,7.0903,7.0903,7.0903,7.0903,7.0903,7.0903,7.0903,7.0903,7.0903,7.0903,7.0903,7.0903,7.0903,7.0903,7.0903,7.0903,7.0903,7.0903,7.0903,7.0903,7.0873,7.0903,7.0903,7.0709,7.029,6.9842,6.9393,6.9034,6.9004,6.9004,6.9004,6.9004,6.9004,6.9004,6.9004,6.9004,6.9004,6.8974,6.9004,6.9004,6.9004,6.8974,6.9004,6.9004,6.9064,6.9273,6.9333,6.9423,6.9542,6.9632,6.9842,7.0051,6.9871,6.9632,6.9632,6.9632,6.9632,6.9602,6.9648,6.9662,6.9692,6.9692,6.9662,6.9602,6.9632,6.9662,6.9602,6.9632,6.9632,6.9602,6.9602,6.9602,6.9586,6.9692,6.9871,7.0081,6.9871,6.9692,6.9782,6.9692,6.9572,6.9482,6.9512,6.9512,6.9572,6.9602,6.9602,6.9602,6.9586,6.9556,6.9526,6.9343,6.9064,6.877,6.8462,6.8199,7.2847,7.2804,7.2894,7.2757,7.2727,7.2714,7.2834,7.2757,7.2774,7.2684,7.2608,7.2787,7.2684,7.2787,7.2654,7.2804,7.2535,7.1591,7.1112,7.1098,7.1052,7.1068,7.1098,7.1038,7.0949,7.0903,7.0903,7.0903,7.0903,7.0903,7.0903,7.0903,7.0903,7.0903,7.0903,7.0903,7.0903,7.0903,7.0903,7.0903,7.0903,7.0903,7.0889,7.0843,7.0769,7.026,6.9153,6.9123,6.9183,6.9153,6.9123,6.9018,6.9183,6.9183,6.9093,6.9183,6.9093,6.9064,6.9093,6.9153,6.9213,6.9213,6.9123,6.9423,6.9887,7.0007,7.0171,7.056,7.0709,7.0813,7.0799,7.0739,7.0693,7.0843,7.0663,7.0679,7.0739,7.0829,7.0843,7.0753,7.0709,7.0843,7.0843,7.0693,7.0603,7.0649,7.0679,7.0649,7.059,7.059,7.0799,7.0753,7.0573,7.053,7.0693,7.0873,7.0813,7.0783,7.0663,7.053,7.041,7.0364,7.0304,7.0334,7.0304,7.032,7.032,7.0304,7.0394,7.0364,7.0123,6.9867,6.9695,6.9402,6.904,7.2924,7.2924,7.2924,7.2924,7.2924,7.2924,7.2924,7.2924,7.2924,7.2924,7.2924,7.2924,7.2924,7.2924,7.2924,7.2907,7.2864,7.2445,7.2279,7.2279,7.2249,7.2219,7.2159,7.1787,7.1338,7.0962,7.0903,7.0919,7.0932,7.0932,7.0903,7.0903,7.0903,7.0903,7.0903,7.0903,7.0903,7.0903,7.0903,7.0903,7.0903,7.0903,7.0903,7.0903,7.0903,7.0679,7.032,7.029,7.032,7.029,7.029,7.0304,7.0274,7.032,7.032,7.032,7.032,7.032,7.0304,7.026,7.026,7.029,7.029,7.038,7.056,7.059,7.0679,7.0873,7.0903,7.0903,7.0903,7.0903,7.0903,7.0903,7.0903,7.0903,7.0903,7.0903,7.0903,7.0903,7.0903,7.0903,7.0903,7.0903,7.0903,7.0903,7.0903,7.0903,7.0903,7.0903,7.0873,7.0873,7.0903,7.0903,7.0903,7.0903,7.0903,7.0903,7.0903,7.0903,7.0903,7.0903,7.0903,7.0903,7.0903,7.0903,7.0903,7.0903,7.0903,7.0903,7.0587,7.0497,7.0573,7.03,6.9858,7.3642,7.3642,7.3642,7.3642,7.3625,7.3642,7.3642,7.3642,7.3625,7.3642,7.3642,7.3672,7.3642,7.3642,7.3642,7.3642,7.3642,7.3642,7.3642,7.3522,7.3027,7.2924,7.2864,7.2505,7.2069,7.171,7.1667,7.1637,7.1637,7.1667,7.1621,7.1621,7.165,7.1517,7.1308,7.1248,7.1188,7.0949,7.0903,7.0903,7.0903,7.0903,7.0903,7.0903,7.0903,7.0903,7.0903,7.0903,7.0903,7.0903,7.0903,7.0903,7.0903,7.0873,7.0903,7.0903,7.0873,7.0873,7.0903,7.0813,7.0903,7.0903,7.0903,7.0873,7.0889,7.0903,7.0903,7.0903,7.0903,7.0903,7.0903,7.0903,7.0903,7.0903,7.0903,7.0903,7.0903,7.0903,7.0903,7.0903,7.0903,7.0903,7.0903,7.0903,7.0903,7.0903,7.0903,7.0903,7.0903,7.0903,7.0903,7.0903,7.0903,7.0903,7.0903,7.0903,7.0903,7.0903,7.0903,7.0903,7.0903,7.0903,7.0903,7.0903,7.0903,7.0903,7.0903,7.0903,7.0903,7.0903,7.0903,7.0813,7.0769,7.0783,7.0509,7.4946,7.4946,7.4886,7.4796,7.4796,7.4766,7.4736,7.4826,7.4796,7.4766,7.4796,7.4706,7.4783,7.4826,7.4676,7.4676,7.4856,7.4736,7.4676,7.4407,7.3732,7.3193,7.3057,7.3013,7.2847,7.2727,7.2727,7.2804,7.2684,7.2684,7.2877,7.2744,7.2684,7.2565,7.2056,7.1953,7.1683,7.1278,7.1142,7.1142,7.1142,7.1112,7.1112,7.1112,7.1142,7.1188,7.1202,7.1128,7.1009,7.0903,7.0903,7.0903,7.0903,7.0903,7.0903,7.0903,7.0903,7.0903,7.0903,7.0903,7.0903,7.0903,7.0903,7.0903,7.0903,7.0903,7.0903,7.0903,7.0903,7.0903,7.0903,7.0903,7.0903,7.0903,7.0903,7.0903,7.0903,7.0903,7.0903,7.0903,7.0903,7.0903,7.0903,7.0903,7.0903,7.0903,7.0903,7.0903,7.0903,7.0903,7.0903,7.0903,7.0903,7.0903,7.0903,7.0903,7.0903,7.0903,7.0903,7.0903,7.0903,7.0903,7.0903,7.0903,7.0903,7.0903,7.0903,7.0903,7.0903,7.0903,7.0903,7.0903,7.0903,7.0903,7.0932,7.5647,7.5587,7.5095,7.4886,7.4886,7.4886,7.4916,7.4886,7.4916,7.4946,7.4916,7.4886,7.4886,7.4886,7.4886,7.4886,7.4886,7.4886,7.4886,7.4826,7.4604,7.4061,7.3732,7.3642,7.3402,7.3027,7.3043,7.2924,7.2924,7.3013,7.2984,7.2924,7.3013,7.2877,7.2654,7.2654,7.2548,7.2398,7.2355,7.2309,7.2325,7.2309,7.2368,7.2368,7.2309,7.2325,7.2309,7.1876,7.1368,7.0949,7.0903,7.0903,7.0903,7.0903,7.0903,7.0903,7.0903,7.0903,7.0903,7.0903,7.0903,7.0903,7.0903,7.0903,7.0903,7.0903,7.0903,7.0903,7.0903,7.0903,7.0903,7.0903,7.0903,7.0903,7.0903,7.0903,7.0903,7.0903,7.0903,7.0903,7.0903,7.0903,7.0903,7.0903,7.0903,7.0903,7.0903,7.0903,7.0903,7.0903,7.0903,7.0903,7.0903,7.0903,7.0903,7.0903,7.0903,7.0903,7.0903,7.0903,7.0903,7.0903,7.0903,7.0903,7.0903,7.0903,7.0903,7.0903,7.0903,7.0903,7.0903,7.0903,7.0919,7.0919,7.0979,7.6288,7.6228,7.5856,7.5707,7.5707,7.5707,7.5707,7.5647,7.5425,7.5335,7.5275,7.4976,7.4886,7.4886,7.4886,7.4886,7.4886,7.4886,7.4886,7.4886,7.4856,7.4646,7.4377,7.4317,7.4108,7.3791,7.3702,7.3762,7.3778,7.3732,7.3732,7.3791,7.3732,7.3612,7.3343,7.3296,7.3146,7.2937,7.2924,7.2924,7.2924,7.2924,7.2877,7.2877,7.2924,7.2924,7.2817,7.2505,7.1906,7.1142,7.0903,7.0903,7.0903,7.0903,7.0903,7.0903,7.0903,7.0903,7.0903,7.0903,7.0903,7.0903,7.0903,7.0903,7.0903,7.0903,7.0903,7.0903,7.0903,7.0903,7.0903,7.0903,7.0903,7.0903,7.0903,7.0903,7.0903,7.0903,7.0903,7.0903,7.0903,7.0903,7.0903,7.0903,7.0903,7.0903,7.0903,7.0903,7.0903,7.0903,7.0903,7.0903,7.0903,7.0903,7.0903,7.0903,7.0903,7.0903,7.0903,7.0903,7.0903,7.0903,7.0903,7.0903,7.0903,7.0903,7.0903,7.0903,7.0903,7.0903,7.0903,7.0932,7.1009,7.1308,7.1308,7.6886,7.6916,7.6826,7.6826,7.6766,7.6796,7.6676,7.6647,7.6198,7.6006,7.5886,7.5347,7.5215,7.5006,7.5125,7.5006,7.4886,7.4886,7.4886,7.4886,7.4886,7.4826,7.4796,7.4766,7.4736,7.4676,7.4856,7.4796,7.4676,7.4766,7.4826,7.4706,7.4736,7.4557,7.4108,7.4001,7.3672,7.3373,7.3343,7.3373,7.3373,7.3373,7.3373,7.3373,7.3373,7.3253,7.3133,7.2954,7.2458,7.1188,7.1098,7.1232,7.1202,7.1172,7.1321,7.1487,7.1637,7.1667,7.1427,7.1607,7.1368,7.1457,7.1338,7.1082,7.1262,7.1338,7.1351,7.1351,7.1112,7.1321,7.1517,7.1398,7.1547,7.1607,7.1368,7.1128,7.1009,7.0949,7.0903,7.0903,7.0903,7.0903,7.0903,7.0903,7.0903,7.0903,7.0903,7.0903,7.0903,7.0903,7.0903,7.0903,7.0903,7.0903,7.0903,7.0903,7.0903,7.0903,7.0903,7.0903,7.0903,7.0903,7.0903,7.0903,7.0903,7.0903,7.0903,7.0903,7.0962,7.1128,7.1278,7.1248,7.1248,7.1787,7.1996,7.7574,7.7544,7.7035,7.6826,7.6826,7.6826,7.6826,7.6856,7.6676,7.6617,7.6557,7.6437,7.6078,7.5707,7.5647,7.5425,7.5035,7.4976,7.4886,7.4886,7.4886,7.4886,7.4886,7.4886,7.4886,7.4886,7.4886,7.4886,7.4886,7.4886,7.4886,7.4886,7.4886,7.4826,7.4676,7.4587,7.4646,7.4467,7.4437,7.4347,7.433,7.4347,7.433,7.4347,7.4377,7.4138,7.3791,7.3672,7.3283,7.2698,7.2458,7.2458,7.2428,7.2804,7.2954,7.3043,7.3569,7.3898,7.3898,7.3373,7.3223,7.3073,7.2714,7.2458,7.2458,7.2458,7.2458,7.2458,7.2488,7.2684,7.3043,7.3702,7.3539,7.3133,7.2714,7.2295,7.1757,7.1218,7.0932,7.0903,7.0903,7.0903,7.0903,7.0903,7.0903,7.0903,7.0903,7.0903,7.0903,7.0903,7.0903,7.0903,7.0903,7.0903,7.0903,7.0903,7.0903,7.0903,7.0903,7.0903,7.0903,7.0903,7.0903,7.0903,7.0903,7.0932,7.1098,7.1142,7.1262,7.1487,7.1727,7.1846,7.2026,7.2445,7.2684,7.825,7.825,7.7891,7.7741,7.7741,7.7724,7.7724,7.7664,7.7377,7.7275,7.7185,7.6958,7.6617,7.6317,7.6317,7.6078,7.5796,7.5467,7.5185,7.4976,7.4886,7.4886,7.4886,7.4886,7.4886,7.4886,7.4886,7.4886,7.4886,7.4886,7.4886,7.4886,7.4886,7.4886,7.4886,7.4886,7.4856,7.4856,7.4886,7.4886,7.4886,7.4886,7.4886,7.4886,7.4886,7.4706,7.4407,7.436,7.418,7.3928,7.3821,7.3492,7.3027,7.3223,7.3432,7.3552,7.4061,7.4407,7.427,7.4407,7.4317,7.439,7.4018,7.3928,7.3821,7.3821,7.3821,7.3851,7.3851,7.4018,7.4347,7.4587,7.4646,7.4467,7.4061,7.3659,7.315,7.1936,7.0903,7.0903,7.0903,7.0903,7.0903,7.0903,7.0903,7.0903,7.0903,7.0903,7.0903,7.0903,7.0903,7.0903,7.0903,7.0903,7.0903,7.0903,7.0903,7.0903,7.0903,7.0903,7.0903,7.0903,7.0903,7.0932,7.1009,7.1384,7.1534,7.1577,7.177,7.2129,7.2428,7.2624,7.2804,7.3073,7.3253,7.8789,7.8789,7.8789,7.8789,7.8789,7.8759,7.8699,7.8639,7.822,7.7951,7.7843,7.7335,7.7185,7.6976,7.6976,7.6898,7.6587,7.6108,7.5527,7.5215,7.4976,7.4916,7.4886,7.4886,7.4886,7.4886,7.4886,7.4886,7.4886,7.4886,7.4886,7.4886,7.4886,7.4886,7.4886,7.4886,7.4886,7.4886,7.4886,7.4886,7.4886,7.4886,7.4886,7.4886,7.4886,7.4886,7.4796,7.4796,7.4826,7.4886,7.4886,7.4287,7.3582,7.3326,7.3356,7.3475,7.433,7.4839,7.5108,7.5155,7.5275,7.5275,7.5215,7.5168,7.5168,7.5168,7.5168,7.5228,7.5288,7.5455,7.5382,7.5784,7.5664,7.5425,7.5305,7.5155,7.4646,7.288,7.1966,7.1321,7.1308,7.1218,7.1009,7.0903,7.0903,7.0903,7.0903,7.0903,7.0903,7.0903,7.0903,7.0903,7.0903,7.0903,7.0903,7.0903,7.0903,7.0903,7.0903,7.0903,7.0903,7.0903,7.0932,7.1068,7.1248,7.1623,7.1983,7.2176,7.2428,7.2877,7.3116,7.3253,7.3462,7.3702,7.3851,7.8789,7.8789,7.8789,7.8789,7.8789,7.8789,7.8789,7.8789,7.8639,7.8609,7.8579,7.8489,7.8041,7.7753,7.7634,7.7365,7.6856,7.6347,7.5916,7.5587,7.5245,7.4976,7.4886,7.4886,7.4886,7.4886,7.4886,7.4886,7.4886,7.4886,7.4886,7.4886,7.4886,7.4886,7.4886,7.4886,7.4886,7.4886,7.4886,7.4886,7.4886,7.4886,7.4886,7.4886,7.4886,7.4886,7.4886,7.4886,7.4886,7.4886,7.4886,7.4766,7.4587,7.4869,7.5078,7.5198,7.5659,7.6108,7.6497,7.6557,7.6814,7.7023,7.6796,7.6497,7.6497,7.6497,7.6485,7.6604,7.6904,7.7233,7.7322,7.746,7.7682,7.7352,7.6784,7.6335,7.5736,7.4839,7.3719,7.3013,7.2355,7.1534,7.1308,7.1068,7.1038,7.0979,7.0903,7.0903,7.0903,7.0903,7.0903,7.0903,7.0903,7.0903,7.0903,7.0903,7.0903,7.0903,7.0903,7.0903,7.0903,7.0903,7.0962,7.1218,7.1547,7.1936,7.2295,7.2714,7.3163,7.3612,7.3762,7.3898,7.4108,7.4317,7.4437,7.8789,7.8789,7.8789,7.8789,7.8789,7.8789,7.8789,7.8789,7.8789,7.8789,7.8789,7.8777,7.8639,7.837,7.831,7.7951,7.7335,7.7035,7.6544,7.6006,7.5557,7.5185,7.4946,7.4916,7.4886,7.4886,7.4886,7.4886,7.4886,7.4886,7.4886,7.4886,7.4886,7.4886,7.4886,7.4886,7.4886,7.4886,7.4886,7.4886,7.4886,7.4886,7.4886,7.4886,7.4886,7.4886,7.4886,7.4886,7.4886,7.4886,7.4886,7.4886,7.5006,7.5185,7.5407,7.5557,7.6258,7.6898,7.7305,7.7215,7.7604,7.816,7.7933,7.7843,7.7813,7.7861,7.7753,7.7891,7.8011,7.831,7.825,7.8609,7.8579,7.84,7.7981,7.7682,7.7322,7.6724,7.5826,7.4762,7.3851,7.2851,7.1623,7.1414,7.1264,7.1098,7.0962,7.0932,7.0962,7.0903,7.0903,7.0903,7.0903,7.0903,7.0903,7.0903,7.0903,7.0903,7.0903,7.0903,7.0903,7.0903,7.1188,7.1534,7.1893,7.2295,7.3073,7.3672,7.4001,7.4287,7.4347,7.4467,7.4676,7.4886,7.4886,7.8789,7.8789,7.8789,7.8789,7.8789,7.8789,7.8789,7.8789,7.8789,7.8789,7.8789,7.8789,7.8789,7.8777,7.8717,7.8489,7.8011,7.7861,7.7155,7.6497,7.5976,7.5574,7.5245,7.4946,7.4886,7.4886,7.4886,7.4886,7.4886,7.4886,7.4886,7.4886,7.4886,7.4886,7.4886,7.4886,7.4886,7.4886,7.4886,7.4886,7.4886,7.4886,7.4886,7.4886,7.4886,7.4886,7.4886,7.4886,7.4886,7.4886,7.4886,7.4886,7.4916,7.5035,7.5035,7.5095,7.6036,7.6587,7.7137,7.7454,7.7963,7.8579,7.8729,7.8759,7.8729,7.8579,7.8669,7.8789,7.8759,7.8729,7.8669,7.8789,7.8777,7.8759,7.8729,7.8699,7.846,7.8011,7.7472,7.6455,7.5377,7.4197,7.297,7.2086,7.1996,7.1757,7.1607,7.1338,7.1308,7.0962,7.0903,7.0903,7.0903,7.0903,7.0903,7.0903,7.0903,7.0903,7.0903,7.0903,7.0903,7.0903,7.1308,7.1803,7.2325,7.2834,7.3702,7.436,7.4527,7.4646,7.4826,7.4886,7.4886,7.4886,7.4886,7.8789,7.8789,7.8789,7.8789,7.8789,7.8789,7.8789,7.8789,7.8789,7.8789,7.8789,7.8789,7.8789,7.8789,7.8789,7.8747,7.8519,7.813,7.7724,7.7215,7.6497,7.5958,7.5647,7.5125,7.4976,7.4916,7.4886,7.4886,7.4886,7.4886,7.4886,7.4886,7.4886,7.4886,7.4886,7.4886,7.4886,7.4886,7.4886,7.4886,7.4886,7.4886,7.4886,7.4886,7.4886,7.4886,7.4886,7.4886,7.4886,7.4886,7.4886,7.4886,7.4976,7.5514,7.5365,7.5305,7.5647,7.6497,7.7335,7.7604,7.8071,7.8609,7.8789,7.8789,7.8789,7.8789,7.8789,7.8789,7.8789,7.8789,7.8789,7.8789,7.8789,7.8789,7.8789,7.8789,7.8729,7.8669,7.816,7.7813,7.6694,7.5527,7.433,7.3462,7.2727,7.2505,7.2235,7.1936,7.1743,7.1487,7.1128,7.1158,7.1128,7.1098,7.0903,7.0903,7.0903,7.0903,7.0903,7.0903,7.0903,7.0992,7.1591,7.2086,7.2624,7.3133,7.3762,7.4317,7.4736,7.4886,7.4886,7.4886,7.4886,7.4886,7.4886,7.8789,7.8789,7.8789,7.8789,7.8789,7.8789,7.8789,7.8789,7.8789,7.8789,7.8789,7.8789,7.8789,7.8789,7.8789,7.8789,7.8729,7.846,7.813,7.7861,7.7173,7.6574,7.5976,7.5587,7.5365,7.4976,7.4886,7.4886,7.4886,7.4886,7.4886,7.4886,7.4886,7.4886,7.4886,7.4886,7.4886,7.4886,7.4886,7.4886,7.4886,7.4886,7.4886,7.4886,7.4886,7.4886,7.4886,7.4886,7.4886,7.4886,7.4886,7.4886,7.4946,7.5185,7.5275,7.5587,7.5707,7.6317,7.7065,7.7215,7.7843,7.8519,7.8807,7.8789,7.8789,7.8789,7.8789,7.8789,7.8789,7.8789,7.8789,7.8789,7.8789,7.8789,7.8789,7.8789,7.8789,7.8789,7.8579,7.834,7.7981,7.6814,7.5677,7.4779,7.3941,7.3402,7.3013,7.2535,7.2445,7.2368,7.1966,7.1564,7.1487,7.1398,7.1098,7.0903,7.0949,7.0949,7.0903,7.0903,7.0903,7.1142,7.1621,7.2116,7.2565,7.3133,7.3808,7.4347,7.4826,7.4886,7.4886,7.4886,7.4886,7.4886,7.4886,7.8789,7.8789,7.8789,7.8789,7.8789,7.8789,7.8789,7.8789,7.8789,7.8789,7.8789,7.8789,7.8789,7.8789,7.8789,7.8789,7.8789,7.8789,7.8489,7.816,7.7801,7.7233,7.6604,7.6185,7.5617,7.5125,7.4946,7.4916,7.4886,7.4886,7.4886,7.4886,7.4886,7.4886,7.4886,7.4886,7.4886,7.4886,7.4886,7.4886,7.4886,7.4886,7.4886,7.4886,7.4886,7.4886,7.4886,7.4886,7.4886,7.4886,7.4886,7.4886,7.4916,7.4976,7.5125,7.5395,7.5527,7.5839,7.6497,7.6976,7.7574,7.822,7.8777,7.8789,7.8789,7.8789,7.8789,7.8789,7.8789,7.8789,7.8789,7.8789,7.8789,7.8789,7.8789,7.8789,7.8789,7.8789,7.8789,7.8609,7.834,7.8041,7.6993,7.6066,7.5228,7.448,7.3851,7.3206,7.3057,7.3086,7.2684,7.2222,7.2116,7.2026,7.1757,7.1441,7.1308,7.1098,7.1052,7.0962,7.1009,7.1128,7.1427,7.1936,7.2565,7.3359,7.4138,7.4557,7.4886,7.4886,7.4886,7.4886,7.4886,7.4886,7.4886,7.8789,7.8789,7.8789,7.8789,7.8789,7.8789,7.8789,7.8789,7.8789,7.8789,7.8789,7.8789,7.8789,7.8789,7.8789,7.8789,7.8789,7.8789,7.8717,7.846,7.813,7.7771,7.7215,7.6587,7.5958,7.5736,7.5365,7.5035,7.4916,7.4916,7.4916,7.4886,7.4886,7.4886,7.4886,7.4886,7.4886,7.4886,7.4886,7.4886,7.4886,7.4886,7.4886,7.4886,7.4886,7.4886,7.4886,7.4886,7.4886,7.4886,7.4886,7.4886,7.4886,7.4886,7.5035,7.5095,7.5155,7.5437,7.5916,7.6766,7.7604,7.8011,7.834,7.8699,7.8789,7.8789,7.8789,7.8789,7.8789,7.8789,7.8789,7.8789,7.8789,7.8789,7.8789,7.8789,7.8789,7.8789,7.8789,7.8789,7.8549,7.813,7.7604,7.6544,7.5886,7.5138,7.4689,7.4074,7.3685,7.3595,7.3253,7.2924,7.2864,7.2774,7.2668,7.2398,7.1966,7.1727,7.1637,7.1398,7.1188,7.1338,7.1727,7.2219,7.2967,7.3732,7.4407,7.4826,7.5065,7.4946,7.4886,7.4886,7.4886,7.4886,7.4886,7.8789,7.8789,7.8789,7.8789,7.8789,7.8789,7.8789,7.8789,7.8789,7.8789,7.8789,7.8789,7.8789,7.8789,7.8789,7.8789,7.8789,7.8789,7.8789,7.8729,7.8519,7.819,7.7741,7.7335,7.6886,7.6407,7.5826,7.5497,7.5514,7.5245,7.4946,7.4886,7.5006,7.4886,7.4886,7.4946,7.4946,7.4946,7.4946,7.4916,7.4886,7.4886,7.4886,7.4886,7.4886,7.4886,7.4886,7.4886,7.4886,7.4916,7.4916,7.4886,7.4886,7.4886,7.4886,7.4886,7.4886,7.5065,7.5365,7.6215,7.6916,7.7771,7.8071,7.834,7.8639,7.8759,7.8789,7.8789,7.8789,7.8789,7.8789,7.8789,7.8789,7.8789,7.8789,7.8789,7.8789,7.8789,7.8789,7.8789,7.84,7.7981,7.7442,7.6796,7.6305,7.5796,7.5407,7.5001,7.4672,7.4373,7.4163,7.3821,7.3732,7.3343,7.3223,7.2894,7.2535,7.2385,7.2235,7.1996,7.1816,7.2176,7.2565,7.2967,7.3236,7.3821,7.442,7.5048,7.5258,7.5125,7.5006,7.4886,7.4886,7.5006,7.5125,7.8789,7.8789,7.8789,7.8789,7.8789,7.8789,7.8789,7.8789,7.8789,7.8789,7.8789,7.8789,7.8789,7.8789,7.8789,7.8789,7.8789,7.8789,7.8789,7.8759,7.8699,7.8489,7.819,7.7831,7.7424,7.7006,7.6527,7.6185,7.6155,7.5677,7.5617,7.5587,7.5437,7.5377,7.4946,7.5125,7.5245,7.5425,7.5484,7.5437,7.5497,7.5527,7.5527,7.5557,7.5587,7.5587,7.5527,7.5484,7.5275,7.5185,7.5065,7.4916,7.4886,7.4886,7.4886,7.4886,7.4886,7.4886,7.5065,7.5557,7.6347,7.7245,7.7454,7.7843,7.828,7.8519,7.846,7.8789,7.8789,7.8789,7.8807,7.8789,7.8789,7.8789,7.8789,7.8789,7.8789,7.8789,7.8789,7.8789,7.831,7.7801,7.7203,7.6647,7.6347,7.6096,7.6078,7.5899,7.5869,7.5599,7.539,7.5031,7.4659,7.418,7.3672,7.3432,7.3193,7.3043,7.2894,7.2744,7.2684,7.2984,7.3163,7.3373,7.3642,7.3911,7.451,7.5228,7.5377,7.5335,7.5347,7.5527,7.5707,7.5856,7.5736,7.8867,7.8789,7.8849,7.8878,7.8908,7.8789,7.8789,7.8789,7.8789,7.8849,7.8908,7.8878,7.8956,7.8986,7.9118,7.9166,7.9136,7.9046,7.9046,7.9136,7.9028,7.8867,7.8579,7.828,7.7933,7.7664,7.7185,7.6796,7.6796,7.6497,7.6527,7.6527,7.6365,7.6048,7.5095,7.5557,7.6155,7.6617,7.6617,7.6557,7.6497,7.6467,7.6467,7.6455,7.6455,7.6377,7.6305,7.6036,7.5826,7.5647,7.5258,7.5065,7.4933,7.4886,7.4886,7.4886,7.4886,7.4886,7.4946,7.5527,7.6108,7.6676,7.6856,7.7155,7.7634,7.7891,7.81,7.843,7.8657,7.8747,7.8777,7.8789,7.8789,7.8789,7.8789,7.8789,7.8789,7.8789,7.8789,7.8699,7.816,7.7562,7.6946,7.6437,7.6258,7.6258,7.6527,7.6706,7.6766,7.6676,7.6407,7.5899,7.5437,7.5048,7.454,7.4121,7.3851,7.3732,7.3612,7.3522,7.3373,7.3432,7.3612,7.3791,7.4031,7.433,7.4869,7.5497,7.5916,7.6425,7.6377,7.6497,7.6647,7.6587,7.6347,8.0135,8.0105,8.0105,8.0135,7.9986,7.9166,7.8789,7.8789,7.8837,7.9058,7.9417,7.9477,7.9776,8.0016,8.0075,8.0045,8.0075,8.0135,8.0135,8.0045,7.9656,7.9507,7.9238,7.8759,7.843,7.828,7.7813,7.7454,7.7454,7.7185,7.6886,7.6796,7.6976,7.6587,7.6317,7.6437,7.6647,7.6766,7.6796,7.6796,7.6826,7.6856,7.6886,7.6886,7.6916,7.6946,7.6946,7.6647,7.6377,7.6096,7.5677,7.5377,7.5065,7.4976,7.4916,7.4916,7.4886,7.4886,7.4916,7.5198,7.5527,7.5958,7.6228,7.6467,7.7035,7.7125,7.7514,7.7981,7.819,7.837,7.8669,7.8759,7.8789,7.8789,7.8789,7.8789,7.8789,7.8789,7.8759,7.8609,7.822,7.7574,7.6976,7.7006,7.6856,7.6993,7.7305,7.7394,7.7454,7.7394,7.7185,7.6557,7.6078,7.5826,7.5437,7.4796,7.4437,7.4317,7.4377,7.4467,7.4317,7.4001,7.4151,7.4407,7.4557,7.4796,7.5437,7.6185,7.7155,7.7634,7.7394,7.7125,7.7065,7.6916,7.6706,8.0823,8.0823,8.0823,8.0823,8.0674,7.9836,7.9477,7.9477,7.9507,7.9746,8.0105,8.0165,8.0345,8.0704,8.0823,8.0823,8.0823,8.0794,8.0794,8.0685,8.0087,7.9818,7.9548,7.9178,7.8759,7.8639,7.843,7.816,7.813,7.7724,7.7604,7.7604,7.7454,7.7574,7.7454,7.7365,7.7335,7.7514,7.7664,7.7652,7.7622,7.7574,7.7574,7.7574,7.7574,7.7544,7.7454,7.7245,7.6976,7.6604,7.6275,7.5916,7.5467,7.5245,7.5125,7.5006,7.4886,7.4886,7.4916,7.4916,7.5215,7.5497,7.5527,7.5856,7.6317,7.6497,7.6856,7.7293,7.7592,7.7981,7.837,7.8519,7.8789,7.8789,7.8789,7.8789,7.8789,7.8789,7.8789,7.8609,7.828,7.7664,7.7305,7.7514,7.7634,7.7891,7.813,7.813,7.81,7.8011,7.7861,7.7245,7.6617,7.6228,7.5766,7.5155,7.4916,7.4886,7.4886,7.4886,7.4826,7.4527,7.4736,7.4886,7.4886,7.5125,7.6036,7.6856,7.7514,7.7963,7.81,7.7801,7.7514,7.7394,7.7305,8.0883,8.0853,8.0853,8.0913,8.0883,8.0902,8.0823,8.0764,8.0734,8.0764,8.0823,8.0823,8.0973,8.0943,8.0943,8.1033,8.1093,8.1063,8.1093,8.0823,8.0405,8.0105,7.9686,7.9178,7.8878,7.8789,7.8699,7.8579,7.8747,7.8489,7.8489,7.8609,7.843,7.843,7.831,7.8112,7.81,7.831,7.84,7.837,7.834,7.8519,7.843,7.843,7.843,7.846,7.834,7.8071,7.7783,7.7484,7.7155,7.6557,7.6138,7.5899,7.5467,7.5095,7.4916,7.4886,7.4886,7.4886,7.4916,7.5095,7.5006,7.5335,7.5647,7.5886,7.6198,7.6736,7.7233,7.7562,7.7891,7.834,7.8789,7.8789,7.8789,7.8789,7.8789,7.8789,7.8789,7.8609,7.828,7.7921,7.7891,7.8041,7.816,7.834,7.8489,7.8519,7.8489,7.8549,7.831,7.7921,7.7275,7.6647,7.6096,7.5574,7.5095,7.4976,7.4916,7.4886,7.4886,7.4886,7.4886,7.4916,7.4946,7.5425,7.6305,7.6946,7.7484,7.7903,7.837,7.843,7.813,7.828,7.831,8.2219,8.2219,8.2219,8.2238,8.2238,8.2219,8.171,8.0883,8.0823,8.1033,8.15,8.1482,8.171,8.2208,8.2219,8.2208,8.2208,8.2238,8.2268,8.18,8.0932,8.0644,8.0105,7.9405,7.8956,7.8789,7.8789,7.8789,7.8807,7.8789,7.8789,7.8759,7.8789,7.8789,7.8729,7.8609,7.8669,7.8747,7.8789,7.8789,7.8789,7.8789,7.8789,7.8789,7.8789,7.8789,7.8669,7.8579,7.828,7.7831,7.7664,7.7215,7.6617,7.6138,7.5604,7.5006,7.4886,7.4886,7.4886,7.4886,7.4886,7.4916,7.4916,7.4916,7.5155,7.5365,7.557,7.6125,7.6826,7.7245,7.7771,7.825,7.8639,7.8789,7.8789,7.8789,7.8789,7.8789,7.8789,7.8729,7.84,7.837,7.837,7.84,7.8519,7.8699,7.8789,7.8789,7.8789,7.8789,7.8699,7.831,7.7771,7.7065,7.6557,7.6018,7.5467,7.5065,7.4976,7.4886,7.4886,7.4886,7.4886,7.4946,7.5035,7.5677,7.6587,7.7095,7.7454,7.819,7.8669,7.8729,7.8789,7.8789,7.8789,8.2806,8.2806,8.2806,8.2806,8.2806,8.2806,8.2297,8.165,8.159,8.186,8.2159,8.2189,8.2447,8.2687,8.2717,8.2717,8.2717,8.2657,8.2657,8.2357,8.1441,8.0973,8.0345,7.9555,7.8926,7.8789,7.8789,7.8789,7.8789,7.8789,7.8789,7.8789,7.8789,7.8789,7.8759,7.8729,7.8759,7.8807,7.8789,7.8789,7.8789,7.8789,7.8789,7.8789,7.8789,7.8789,7.8789,7.8789,7.8549,7.825,7.819,7.7891,7.7155,7.6437,7.5856,7.5305,7.5006,7.4946,7.4886,7.4886,7.4886,7.4976,7.5138,7.5335,7.5215,7.5258,7.5288,7.5557,7.6317,7.7035,7.7622,7.816,7.8489,7.8789,7.8789,7.8789,7.8789,7.8789,7.8789,7.8789,7.8759,7.8729,7.8759,7.8789,7.8789,7.8789,7.8789,7.8789,7.8789,7.8789,7.8789,7.8609,7.8071,7.7472,7.6946,7.6317,7.5677,7.5155,7.4946,7.4886,7.4886,7.4886,7.4886,7.5006,7.5155,7.5766,7.6347,7.6946,7.7424,7.8071,7.8579,7.8729,7.8759,7.8789,7.8789,8.2806,8.2806,8.2806,8.2806,8.2806,8.2806,8.2747,8.2806,8.2687,8.2776,8.2747,8.2776,8.2747,8.2806,8.2806,8.2806,8.2806,8.2806,8.2657,8.2657,8.1411,8.0794,8.0255,7.9477,7.8908,7.8789,7.8789,7.8789,7.8789,7.8789,7.8789,7.8789,7.8789,7.8789,7.8789,7.8789,7.8789,7.8789,7.8789,7.8789,7.8789,7.8789,7.8789,7.8789,7.8789,7.8789,7.8789,7.8789,7.8789,7.8777,7.8669,7.837,7.7592,7.6886,7.6335,7.5886,7.5557,7.5407,7.5377,7.5377,7.5305,7.5425,7.5617,7.5856,7.5826,7.5647,7.5677,7.5856,7.6617,7.7095,7.7652,7.825,7.8669,7.8789,7.8789,7.8789,7.8789,7.8789,7.8789,7.8789,7.8789,7.8789,7.8789,7.8789,7.8789,7.8789,7.8789,7.8789,7.8789,7.8789,7.8789,7.8789,7.843,7.7831,7.6976,7.6377,7.5736,7.5288,7.5006,7.4886,7.4886,7.4886,7.4886,7.4976,7.5095,7.5407,7.5869,7.6437,7.7006,7.7544,7.8071,7.8519,7.8669,7.8639,7.8789,8.2806,8.2806,8.2806,8.2806,8.2806,8.2806,8.2806,8.2806,8.2806,8.2806,8.2806,8.2806,8.2806,8.2806,8.2806,8.2806,8.2806,8.2776,8.2477,8.2009,8.1153,8.0554,8.0045,7.9267,7.8849,7.8789,7.8789,7.8789,7.8789,7.8789,7.8789,7.8789,7.8789,7.8789,7.8789,7.8789,7.8789,7.8789,7.8789,7.8789,7.8789,7.8789,7.8789,7.8789,7.8789,7.8789,7.8789,7.8789,7.8789,7.8807,7.8789,7.843,7.7801,7.7472,7.7065,7.6676,7.6347,7.6185,7.6155,7.6125,7.6125,7.6245,7.6437,7.6527,7.6527,7.6425,7.6407,7.6617,7.6856,7.7245,7.7682,7.831,7.8789,7.8789,7.8789,7.8789,7.8789,7.8789,7.8789,7.8789,7.8789,7.8789,7.8789,7.8789,7.8789,7.8789,7.8789,7.8789,7.8789,7.8789,7.8789,7.8789,7.8789,7.822,7.7245,7.6497,7.5946,7.5318,7.4946,7.4886,7.4886,7.4886,7.4886,7.4886,7.5006,7.5258,7.5527,7.5916,7.6455,7.6993,7.7484,7.7951,7.819,7.822,7.8549,8.2806,8.2806,8.2806,8.2806,8.2806,8.2806,8.2806,8.2806,8.2806,8.2806,8.2806,8.2806,8.2806,8.2806,8.2806,8.2806,8.2806,8.2806,8.2417,8.18,8.1063,8.0446,7.9758,7.9118,7.8908,7.8789,7.8789,7.8789,7.8789,7.8789,7.8789,7.8789,7.8789,7.8789,7.8789,7.8789,7.8789,7.8789,7.8789,7.8789,7.8789,7.8789,7.8789,7.8789,7.8789,7.8789,7.8789,7.8789,7.8789,7.8789,7.8789,7.8699,7.825,7.7891,7.7604,7.7245,7.6976,7.6826,7.6856,7.6886,7.6916,7.6946,7.7185,7.7245,7.7365,7.7245,7.7095,7.7245,7.7305,7.7634,7.7861,7.834,7.8669,7.8789,7.8789,7.8789,7.8789,7.8789,7.8789,7.8789,7.8789,7.8789,7.8789,7.8789,7.8789,7.8789,7.8789,7.8789,7.8789,7.8789,7.8789,7.8729,7.8699,7.819,7.7125,7.6557,7.6185,7.5587,7.4916,7.4886,7.4886,7.4886,7.4886,7.4886,7.4916,7.5035,7.5335,7.5617,7.5886,7.6365,7.6856,7.7335,7.7544,7.7694,7.7831,8.2806,8.2806,8.2806,8.2806,8.2806,8.2806,8.2806,8.2806,8.2806,8.2806,8.2806,8.2806,8.2806,8.2806,8.2806,8.2806,8.2717,8.2567,8.2189,8.156,8.0913,8.0165,7.9567,7.9088,7.8878,7.8789,7.8789,7.8789,7.8789,7.8789,7.8789,7.8789,7.8789,7.8789,7.8789,7.8789,7.8789,7.8789,7.8789,7.8789,7.8789,7.8789,7.8789,7.8789,7.8789,7.8789,7.8789,7.8789,7.8789,7.8789,7.8789,7.8729,7.8609,7.828,7.813,7.7831,7.7574,7.7365,7.7245,7.7335,7.7275,7.7305,7.7711,7.7951,7.8023,7.7993,7.7813,7.7813,7.7873,7.7963,7.816,7.831,7.8609,7.8789,7.8789,7.8789,7.8789,7.8789,7.8789,7.8789,7.8789,7.8789,7.8789,7.8789,7.8789,7.8789,7.8789,7.8789,7.8789,7.8789,7.8789,7.8639,7.8519,7.7831,7.6946,7.6617,7.6335,7.5514,7.4886,7.4886,7.4886,7.4886,7.4886,7.4886,7.4946,7.4976,7.5095,7.5318,7.5587,7.5826,7.6258,7.6706,7.6826,7.6916,7.6886,8.2806,8.2806,8.2806,8.2806,8.2806,8.2806,8.2806,8.2806,8.2806,8.2806,8.2806,8.2806,8.2806,8.2806,8.2806,8.2776,8.2717,8.2387,8.165,8.0973,8.0434,7.9716,7.9178,7.8938,7.8819,7.8789,7.8789,7.8789,7.8789,7.8789,7.8789,7.8789,7.8789,7.8789,7.8789,7.8789,7.8789,7.8789,7.8789,7.8789,7.8789,7.8789,7.8789,7.8789,7.8789,7.8789,7.8789,7.8789,7.8789,7.8789,7.8789,7.8789,7.8747,7.8627,7.8537,7.843,7.819,7.819,7.81,7.81,7.8071,7.813,7.843,7.846,7.8519,7.8519,7.843,7.843,7.8489,7.8489,7.8609,7.8609,7.8789,7.8789,7.8789,7.8789,7.8789,7.8789,7.8789,7.8789,7.8789,7.8789,7.8789,7.8789,7.8789,7.8789,7.8789,7.8789,7.8789,7.8789,7.8789,7.8609,7.843,7.7694,7.6946,7.6676,7.6288,7.5467,7.4886,7.4886,7.4886,7.4886,7.4886,7.4886,7.4886,7.4916,7.5035,7.5125,7.5125,7.5347,7.5736,7.6078,7.6168,7.6215,7.6215]}]]